[[{"header":{"parameterUnit":"m.s-1","parameterCategory":1,"la1":31.0,"la2":29.5877,"lo1":-88.7671,"lo2":-86.6584,"dy":0.0162,"dx":0.0185,"nx":115,"ny":88,"refTime":"2024-09-29T18:00:00:Z","depth":0,"parameterNumber":2,"parameterNumberName":"U-component_of_WINDS"},"data":[0.0,0.0,0.0,0.0,0.0,0.0,0.0,0.0,0.0,0.0,0.0,0.0,0.0,0.0,0.0,0.0,0.0,0.0,0.0,0.0,0.0,0.0,0.0,0.0,0.0,0.0,0.0,0.0,0.0,0.0,0.0,0.0,0.0,0.0,0.0,0.0,0.0,0.0,0.0,0.0,0.0,0.0,0.0,0.0,0.0,0.0,0.0,0.0,0.0,0.0,0.0,0.0,0.0,0.0,0.0,0.0,0.0,0.0,0.0,0.0,0.0,0.0,0.0,0.0,0.0,0.0,0.0,0.0,0.0,0.0,0.0,0.0,0.0,0.0,0.0,0.0,0.0,0.0,0.0,0.0,0.0,0.0,0.0,0.0,0.0,0.0,0.0,0.0,0.0,0.0,0.0,0.0,0.0,0.0,0.0,0.0,0.0,0.0,0.0,0.0,0.0,0.0,0.0,0.0,0.0,0.0,0.0,0.0,0.0,0.0,0.0,0.0,0.0,0.0,0.0,0.0,0.0,0.0,0.0,0.0,0.0,0.0,0.0,0.0,0.0,0.0,0.0,0.0,0.0,0.0,0.0,0.0,0.0,0.0,0.0,0.0,0.0,0.0,0.0,0.0,0.0,0.0,0.0,0.0,0.0,0.0,0.0,0.0,0.0,0.0,0.0,0.0,0.0,0.0,0.0,0.0,0.0,0.0,0.0,0.0,0.0,0.0,0.0,0.0,0.0,0.0,0.0,0.0,0.0,0.0,0.0,0.0,0.0,0.0,0.0,0.0,0.0,0.0,0.0,0.0,0.0,0.0,0.0,0.0,0.0,0.0,0.0,0.0,0.0,0.0,0.0,0.0,0.0,0.0,0.0,0.0,0.0,0.0,0.0,0.0,0.0,0.0,0.0,0.0,0.0,0.0,0.0,0.0,0.0,0.0,0.0,0.0,0.0,0.0,0.0,0.0,0.0,0.0,0.0,0.0,0.0,0.0,0.0,0.0,0.0,0.0,0.0,0.0,0.0,0.0,0.0,0.0,0.0,0.0,0.0,0.0,0.0,0.0,0.0,0.0,0.0,0.0,0.0,0.0,0.0,0.0,0.0,0.0,0.0,0.0,0.0,0.0,0.0,0.0,0.0,0.0,0.0,0.0,0.0,0.0,0.0,0.0,0.0,0.0,0.0,0.0,0.0,0.0,0.0,0.0,0.0,0.0,0.0,0.0,0.0,0.0,0.0,0.0,0.0,0.0,0.0,0.0,0.0,0.0,0.0,0.0,0.0,0.0,0.0,0.0,0.0,0.0,0.0,0.0,0.0,0.0,0.0,0.0,0.0,0.0,0.0,0.0,0.0,0.0,0.0,0.0,0.0,0.0,0.0,0.0,0.0,0.0,0.0,0.0,0.0,0.0,0.0,0.0,0.0,0.0,0.0,0.0,0.0,0.0,0.0,0.0,0.0,0.0,0.0,0.0,0.0,0.0,0.0,0.0,0.0,0.0,0.0,0.0,0.0,0.0,0.0,0.0,0.0,0.0,0.0,0.0,0.0,0.0,0.0,0.0,0.0,0.0,0.0,0.0,0.0,0.0,0.0,0.0,0.0,0.0,0.0,0.0,0.0,0.0,0.0,0.0,0.0,0.0,0.0,0.0,0.0,0.0,0.0,0.0,0.0,0.0,0.0,0.0,0.0,0.0,0.0,0.0,0.0,0.0,0.0,0.0,0.0,0.0,0.0,0.0,0.0,0.0,0.0,0.0,0.0,0.0,0.0,0.0,0.0,0.0,0.0,0.0,0.0,0.0,0.0,0.0,0.0,0.0,0.0,0.0,0.0,0.0,0.0,0.0,0.0,0.0,0.0,0.0,0.0,0.0,0.0,0.0,0.0,0.0,0.0,0.0,0.0,0.0,0.0,0.0,0.0,0.0,0.0,0.0,0.0,0.0,0.0,0.0,0.0,0.0,0.0,0.0,0.0,0.0,0.0,0.0,0.0,0.0,0.0,0.0,0.0,0.0,0.0,0.0,0.0,0.0,0.0,0.0,0.0,0.0,0.0,0.0,0.0,0.0,0.0,0.0,0.0,0.0,0.0,0.0,0.0,0.0,0.0,0.0,0.0,0.0,0.0,0.0,0.0,0.0,0.0,0.0,0.0,0.0,0.0,0.0,0.0,0.0,0.0,0.0,0.0,0.0,0.0,0.0,0.0,0.0,0.0,0.0,0.0,0.0,0.0,0.0,0.0,0.0,0.0,0.0,0.0,0.0,0.0,0.0,0.0,0.0,0.0,0.0,0.0,0.0,0.0,0.0,0.0,0.0,0.0,0.0,0.0,0.0,0.0,0.0,0.0,0.0,0.0,0.0,0.0,0.0,0.0,0.0,0.0,0.0,0.0,0.0,0.0,0.0,0.0,0.0,0.0,0.0,0.0,0.0,0.0,0.0,0.0,0.0,0.0,0.0,0.0,0.0,0.0,0.0,0.0,0.0,0.0,0.0,0.0,0.0,0.0,0.0,0.0,0.0,0.0,0.0,0.0,0.0,0.0,0.0,0.0,0.0,0.0,0.0,0.0,0.0,0.0,0.0,0.0,0.0,0.0,0.0,0.0,0.0,0.0,0.0,0.0,0.0,0.0,0.0,0.0,0.0,0.0,0.0,0.0,0.0,0.0,0.0,0.0,0.0,0.0,0.0,0.0,0.0,0.0,0.0,0.0,0.0,0.0,0.0,0.0,0.0,0.0,0.0,0.0,0.0,0.0,0.0,0.0,0.0,0.0,0.0,0.0,0.0,0.0,0.0,0.0,0.0,0.0,0.0,0.0,0.0,0.0,0.0,0.0,0.0,0.0,0.0,0.0,0.0,0.0,0.0,0.0,0.0,0.0,0.0,0.0,0.0,0.0,0.0,0.0,0.0,0.0,0.0,0.0,0.0,0.0,0.0,0.0,0.0,0.0,0.0,0.0,0.0,0.0,0.0,0.0,0.0,0.0,0.0,0.0,0.0,0.0,0.0,0.0,0.0,0.0,0.0,0.0,0.0,0.0,0.0,0.0,0.0,0.0,0.0,0.0,0.0,0.0,0.0,0.0,0.0,0.0,0.0,0.0,0.0,0.0,0.0,0.0,0.0,0.0,0.0,0.0,0.0,0.0,0.0,0.0,0.0,0.0,0.0,0.0,0.0,0.0,0.0,0.0,0.0,0.0,0.0,0.0,0.0,0.0,0.0,0.0,0.0,0.0,0.0,0.0,0.0,0.0,0.0,0.0,0.0,0.0,0.0,0.0,0.0,0.0,0.0,0.0,0.0,0.0,0.0,0.0,0.0,0.0,0.0,0.0,0.0,0.0,0.0,0.0,0.0,0.0,0.0,0.0,0.0,0.0,0.0,0.0,0.0,0.0,0.0,0.0,0.0,0.0,0.0,0.0,0.0,0.0,0.0,0.0,0.0,0.0,0.0,0.0,0.0,0.0,0.0,0.0,0.0,0.0,0.0,0.0,0.0,0.0,0.0,0.0,0.0,0.0,0.0,0.0,0.0,0.0,0.0,0.0,0.0,0.0,0.0,0.0,0.0,0.0,0.0,0.0,0.0,0.0,0.0,0.0,0.0,0.0,0.0,0.0,0.0,0.0,0.0,0.0,0.0,0.0,0.0,0.0,0.0,0.0,0.0,0.0,0.0,0.0,0.0,0.0,0.0,0.0,0.0,0.0,0.0,0.0,0.0,0.0,0.0,0.0,0.0,0.0,0.0,0.0,0.0,0.0,0.0,0.0,0.0,0.0,0.0,0.0,0.0,0.0,0.0,0.0,0.0,0.0,0.0,0.0,0.0,0.0,0.0,0.0,0.0,0.0,0.0,0.0,0.0,0.0,0.0,0.0,0.0,0.0,0.0,0.0,0.0,0.0,0.0,0.0,0.0,0.0,0.0,0.0,0.0,0.0,0.0,0.0,0.0,0.0,0.0,0.0,0.0,0.0,0.0,0.0,0.0,0.0,0.0,0.0,0.0,0.0,0.0,0.0,0.0,0.0,0.0,0.0,0.0,0.0,0.0,0.0,0.0,0.0,0.0,0.0,0.0,0.0,0.0,0.0,0.0,0.0,0.0,0.0,0.0,0.0,0.0,0.0,0.0,0.0,0.0,0.0,0.0,0.0,0.0,0.0,0.0,0.0,0.0,0.0,0.0,0.0,0.0,0.0,0.0,0.0,0.0,0.0,0.0,0.0,0.0,0.0,0.0,0.0,0.0,0.0,0.0,0.0,0.0,0.0,0.0,0.0,0.0,0.0,0.0,0.0,0.0,1.7661,0.0,0.0,0.0,0.0,0.0,0.0,0.0,0.0,0.0,0.0,0.0,0.0,0.0,0.0,0.0,0.0,0.0,0.0,0.0,0.0,0.0,0.0,0.0,0.0,0.0,0.0,0.0,0.0,0.0,0.0,0.0,0.0,0.0,0.0,0.0,0.0,0.0,0.0,0.0,0.0,0.0,0.0,0.0,0.0,0.0,0.0,0.0,0.0,0.0,0.0,0.0,0.0,0.0,0.0,0.0,0.0,0.0,0.0,0.0,0.0,0.0,0.0,0.0,0.0,0.0,0.0,0.0,0.0,0.0,0.0,0.0,0.0,0.0,0.0,0.0,0.0,0.0,0.0,0.0,0.0,0.0,0.0,0.0,0.0,0.0,0.0,0.0,0.0,0.0,0.0,0.0,0.0,0.0,0.0,0.0,0.0,0.0,0.0,0.0,0.0,0.0,0.0,0.0,0.0,0.0,0.0,0.0,0.0,0.0,0.0,1.9786,1.9786,1.9123,1.8365,1.7518,0.0,0.0,0.0,0.0,0.0,0.0,0.0,0.0,0.0,0.0,0.0,0.0,0.0,0.0,0.0,0.0,0.0,0.0,0.0,0.0,0.0,0.0,0.0,0.0,0.0,0.0,0.0,0.0,0.0,0.0,0.0,0.0,0.0,0.0,0.0,0.0,0.0,0.0,0.0,0.0,0.0,0.0,0.0,0.0,0.0,0.0,0.0,0.0,0.0,0.0,0.0,0.0,0.0,0.0,0.0,0.0,0.0,0.0,0.0,0.0,0.0,0.0,0.0,0.0,0.0,0.0,0.0,0.0,0.0,0.0,0.0,0.0,0.0,0.0,0.0,0.0,0.0,0.0,0.0,0.0,0.0,0.0,0.0,0.0,0.0,0.0,0.0,0.0,0.0,0.0,0.0,0.0,0.0,0.0,0.0,0.0,0.0,0.0,0.0,0.0,0.0,0.0,0.0,0.0,0.0,0.0,0.0,0.0,0.0,0.0,0.0,0.0,1.9755,1.9182,1.8346,0.0,0.0,0.0,0.0,0.0,0.0,0.0,0.0,0.0,0.0,0.0,0.0,0.0,0.0,0.0,0.0,0.0,0.0,0.0,0.0,0.0,0.0,0.0,0.0,0.0,0.0,0.0,0.0,0.0,0.0,0.0,0.0,0.0,0.0,0.0,0.0,0.0,0.0,0.0,0.0,0.0,0.0,0.0,0.0,0.0,0.0,0.0,0.0,0.0,0.0,0.0,0.0,0.0,0.0,0.0,0.0,0.0,0.0,0.0,0.0,0.0,0.0,0.0,0.0,0.0,0.0,0.0,0.0,0.0,0.0,0.0,0.0,0.0,0.0,0.0,0.0,0.0,0.0,0.0,0.0,0.0,0.0,0.0,0.0,0.0,0.0,0.0,0.0,0.0,0.0,0.0,0.0,0.0,0.0,0.0,0.0,0.0,0.0,0.0,0.0,0.0,0.0,0.0,0.0,0.0,0.0,0.0,0.0,0.0,0.0,2.0132,2.1055,2.1803,0.0,2.1072,0.0,0.0,0.0,0.0,0.0,0.0,0.0,0.0,0.0,0.0,0.0,0.0,0.0,0.0,0.0,0.0,0.0,0.0,0.0,0.0,0.0,0.0,0.0,0.0,0.0,0.0,0.0,0.0,0.0,0.0,0.0,0.0,0.0,0.0,0.0,0.0,0.0,0.0,0.0,0.0,0.0,0.0,0.0,0.0,0.0,0.0,0.0,0.0,0.0,0.0,0.0,0.0,0.0,0.0,0.0,0.0,0.0,0.0,0.0,0.0,0.0,0.0,0.0,0.0,0.0,0.0,0.0,0.0,0.0,0.0,0.0,0.0,0.0,0.0,0.0,0.0,0.0,0.0,0.0,0.0,0.0,0.0,0.0,0.0,0.0,0.0,0.0,0.0,0.0,0.0,0.0,0.0,0.0,0.0,0.0,0.0,0.0,0.0,0.0,0.0,0.0,0.0,0.0,0.0,0.0,0.0,0.0,0.0,0.0,0.0,2.1255,2.1662,2.1174,2.077,0.0,0.0,0.0,0.0,0.0,0.0,0.0,0.0,0.0,0.0,0.0,0.0,0.0,0.0,0.0,0.0,0.0,0.0,0.0,0.0,0.0,0.0,0.0,0.0,0.0,0.0,0.0,0.0,0.0,0.0,0.0,0.0,0.0,0.0,0.0,0.0,0.0,0.0,0.0,0.0,0.0,0.0,0.0,0.0,0.0,0.0,0.0,0.0,0.0,0.0,0.0,0.0,0.0,0.0,0.0,0.0,0.0,0.0,0.0,0.0,0.0,0.0,0.0,0.0,0.0,0.0,0.0,0.0,0.0,0.0,0.0,0.0,0.0,0.0,0.0,0.0,0.0,0.0,0.0,0.0,0.0,0.0,0.0,0.0,0.0,0.0,0.0,0.0,0.0,0.0,0.0,0.0,0.0,0.0,0.0,0.0,0.0,0.0,0.0,0.0,0.0,0.0,0.0,0.0,0.0,0.0,0.0,0.0,0.0,0.0,2.1384,2.1958,2.2391,2.1403,2.042,1.9604,0.0,0.0,0.0,0.0,0.0,0.0,0.0,0.0,0.0,0.0,0.0,0.0,0.0,0.0,0.0,0.0,0.0,0.0,0.0,0.0,0.0,0.0,0.0,0.0,0.0,0.0,0.0,0.0,0.0,0.0,0.0,0.0,0.0,0.0,0.0,0.0,0.0,0.0,0.0,0.0,0.0,0.0,0.0,0.0,0.0,0.0,0.0,0.0,0.0,0.0,0.0,0.0,0.0,0.0,0.0,0.0,0.0,0.0,0.0,0.0,0.0,0.0,0.0,0.0,0.0,0.0,0.0,0.0,0.0,0.0,0.0,0.0,0.0,0.0,0.0,0.0,0.0,0.0,0.0,0.0,0.0,0.0,0.0,0.0,0.0,0.0,0.0,0.0,0.0,0.0,0.0,0.0,0.0,0.0,0.0,0.0,0.0,0.0,0.0,0.0,0.0,0.0,0.0,0.0,0.0,0.0,0.0,0.0,0.0,2.177,2.187,2.3562,2.3531,2.2007,0.0,0.0,0.0,0.0,0.0,0.0,0.0,0.0,0.0,0.0,0.0,0.0,0.0,0.0,0.0,0.0,0.0,0.0,0.0,0.0,0.0,0.0,0.0,0.0,0.0,0.0,0.0,0.0,0.0,0.0,0.0,0.0,0.0,0.0,0.0,0.0,0.0,0.0,0.0,0.0,0.0,0.0,0.0,0.0,0.0,0.0,0.0,0.0,0.0,0.0,0.0,0.0,0.0,0.0,0.0,0.0,0.0,0.0,0.0,0.0,0.0,0.0,0.0,0.0,0.0,0.0,0.0,0.0,0.0,0.0,0.0,0.0,0.0,0.0,0.0,0.0,0.0,0.0,0.0,0.0,0.0,0.0,0.0,0.0,0.0,0.0,0.0,0.0,0.0,0.0,0.0,0.0,0.0,0.0,0.0,0.0,0.0,0.0,0.0,0.0,0.0,0.0,0.0,0.0,0.0,0.0,0.0,0.0,0.0,1.938,1.9894,2.18,2.4955,2.2136,2.0649,0.0,0.0,0.0,0.0,0.0,0.0,0.0,0.0,0.0,0.0,0.0,0.0,0.0,0.0,0.0,0.0,0.0,0.0,0.0,0.0,0.0,0.0,0.0,0.0,0.0,0.0,0.0,0.0,0.0,0.0,0.0,0.0,0.0,0.0,0.0,0.0,0.0,0.0,0.0,0.0,0.0,0.0,0.0,0.0,0.0,0.0,0.0,0.0,0.0,0.0,0.0,0.0,0.0,0.0,0.0,0.0,0.0,0.0,0.0,0.0,0.0,0.0,0.0,0.0,0.0,0.0,0.0,0.0,0.0,0.0,0.0,0.0,0.0,0.0,0.0,0.0,0.0,0.0,0.0,0.0,0.0,0.0,0.0,0.0,0.0,0.0,0.0,0.0,0.0,0.0,0.0,0.0,0.0,0.0,0.0,0.0,0.0,0.0,0.0,0.0,0.0,0.0,0.0,0.0,0.0,0.0,0.0,0.0,0.0,1.8729,0.0,2.2674,0.0,2.1534,1.9837,0.0,0.0,0.0,0.0,0.0,0.0,0.0,0.0,0.0,0.0,0.0,0.0,0.0,0.0,0.0,0.0,0.0,0.0,0.0,0.0,0.0,0.0,0.0,0.0,0.0,0.0,0.0,0.0,0.0,0.0,0.0,0.0,0.0,0.0,0.0,0.0,0.0,0.0,0.0,0.0,0.0,0.0,0.0,0.0,0.0,0.0,0.0,0.0,0.0,0.0,0.0,0.0,0.0,0.0,0.0,0.0,0.0,0.0,0.0,0.0,0.0,0.0,0.0,0.0,0.0,0.0,0.0,0.0,0.0,0.0,0.0,0.0,0.0,0.0,0.0,0.0,0.0,0.0,0.0,0.0,0.0,0.0,0.0,0.0,0.0,0.0,0.0,0.0,0.0,0.0,0.0,0.0,0.0,0.0,0.0,0.0,0.0,0.0,0.0,0.0,0.0,0.0,0.0,0.0,0.0,0.0,0.0,0.0,1.8748,2.1829,2.4184,2.4344,2.2289,2.2054,1.9824,0.0,0.0,0.0,0.0,0.0,0.0,0.0,0.0,0.0,0.0,0.0,0.0,0.0,0.0,0.0,0.0,0.0,0.0,0.0,0.0,0.0,0.0,0.0,0.0,0.0,0.0,0.0,0.0,0.0,0.0,0.0,0.0,0.0,0.0,0.0,0.0,0.0,0.0,0.0,0.0,0.0,0.0,0.0,0.0,0.0,0.0,0.0,0.0,0.0,0.0,0.0,0.0,0.0,0.0,0.0,0.0,0.0,0.0,0.0,0.0,0.0,0.0,0.0,0.0,0.0,0.0,0.0,0.0,0.0,0.0,0.0,0.0,0.0,0.0,0.0,0.0,0.0,0.0,0.0,0.0,0.0,0.0,0.0,0.0,0.0,0.0,0.0,0.0,0.0,0.0,0.0,0.0,0.0,0.0,0.0,0.0,0.0,0.0,0.0,0.0,0.0,0.0,0.0,0.0,0.0,0.0,0.0,0.0,0.0,2.0452,2.1816,2.3545,2.5439,2.1916,2.0255,0.0,0.0,0.0,0.0,0.0,0.0,0.0,0.0,0.0,0.0,0.0,0.0,0.0,0.0,0.0,0.0,0.0,0.0,0.0,0.0,0.0,0.0,0.0,0.0,0.0,0.0,0.0,0.0,0.0,0.0,0.0,0.0,0.0,0.0,0.0,0.0,0.0,0.0,0.0,0.0,0.0,0.0,0.0,0.0,0.0,0.0,0.0,0.0,0.0,0.0,0.0,0.0,0.0,0.0,0.0,0.0,0.0,0.0,0.0,0.0,0.0,0.0,0.0,0.0,0.0,0.0,0.0,0.0,0.0,0.0,0.0,0.0,0.0,0.0,0.0,0.0,0.0,0.0,0.0,0.0,0.0,0.0,0.0,0.0,0.0,0.0,0.0,0.0,0.0,0.0,0.0,0.0,0.0,0.0,0.0,0.0,0.0,0.0,0.0,0.0,0.0,0.0,0.0,0.0,0.0,0.0,0.0,0.0,0.0,2.2473,2.3855,2.5286,2.6707,2.3007,2.1311,2.1783,0.0,0.0,0.0,0.0,0.0,0.0,0.0,0.0,0.0,0.0,0.0,0.0,0.0,0.0,0.0,0.0,0.0,0.0,0.0,0.0,0.0,0.0,0.0,0.0,0.0,0.0,0.0,0.0,0.0,0.0,0.0,0.0,0.0,0.0,0.0,0.0,0.0,0.0,0.0,0.0,0.0,0.0,0.0,0.0,0.0,0.0,0.0,0.0,0.0,0.0,0.0,0.0,0.0,0.0,0.0,0.0,0.0,0.0,0.0,0.0,0.0,0.0,0.0,0.0,0.0,0.0,0.0,0.0,0.0,0.0,0.0,0.0,0.0,0.0,0.0,0.0,0.0,0.0,0.0,0.0,0.0,0.0,0.0,0.0,0.0,0.0,0.0,0.0,0.0,0.0,0.0,0.0,0.0,0.0,0.0,0.0,0.0,0.0,0.0,0.0,0.0,0.0,0.0,0.0,0.0,0.0,0.0,0.0,2.7009,2.9463,2.9243,2.6298,2.5216,2.2923,0.0,0.0,0.0,0.0,0.0,0.0,0.0,0.0,0.0,0.0,0.0,0.0,0.0,0.0,0.0,0.0,0.0,0.0,0.0,0.0,0.0,0.0,0.0,0.0,0.0,0.0,0.0,0.0,0.0,0.0,0.0,0.0,0.0,0.0,0.0,0.0,0.0,0.0,0.0,0.0,0.0,0.0,0.0,0.0,0.0,0.0,0.0,0.0,0.0,0.0,0.0,0.0,0.0,0.0,0.0,0.0,0.0,0.0,0.0,0.0,0.0,0.0,0.0,0.0,0.0,0.0,0.0,0.0,0.0,0.0,0.0,0.0,0.0,0.0,0.0,0.0,0.0,0.0,0.0,0.0,0.0,0.0,0.0,0.0,0.0,0.0,0.0,0.0,0.0,0.0,0.0,0.0,0.0,0.0,0.0,0.0,0.0,0.0,0.0,0.0,0.0,0.0,0.0,0.0,0.0,0.0,0.0,0.0,0.0,2.8756,3.1114,3.1693,3.023,2.7379,2.5013,0.0,0.0,0.0,0.0,0.0,0.0,0.0,0.0,0.0,0.0,0.0,0.0,0.0,0.0,0.0,0.0,0.0,0.0,0.0,0.0,0.0,0.0,0.0,0.0,0.0,0.0,0.0,0.0,0.0,0.0,0.0,0.0,0.0,0.0,0.0,0.0,0.0,0.0,0.0,0.0,0.0,0.0,0.0,0.0,0.0,0.0,0.0,0.0,0.0,0.0,0.0,0.0,0.0,0.0,0.0,0.0,0.0,0.0,0.0,0.0,0.0,0.0,0.0,0.0,0.0,0.0,0.0,0.0,0.0,0.0,0.0,0.0,0.0,0.0,0.0,0.0,0.0,0.0,0.0,0.0,0.0,0.0,0.0,0.0,0.0,0.0,0.0,0.0,0.0,0.0,0.0,0.0,0.0,0.0,0.0,0.0,0.0,0.0,0.0,0.0,0.0,0.0,0.0,0.0,0.0,0.0,0.0,0.0,2.8384,3.0392,3.2414,3.3287,3.2823,2.9756,2.7064,0.0,0.0,0.0,0.0,0.0,0.0,0.0,0.0,0.0,0.0,0.0,0.0,0.0,0.0,0.0,0.0,0.0,0.0,0.0,0.0,0.0,0.0,0.0,0.0,0.0,0.0,0.0,0.0,0.0,0.0,0.0,0.0,0.0,0.0,0.0,0.0,0.0,0.0,0.0,0.0,0.0,0.0,0.0,0.0,0.0,0.0,0.0,0.0,0.0,0.0,0.0,0.0,0.0,0.0,0.0,0.0,0.0,0.0,0.0,0.0,0.0,0.0,0.0,0.0,0.0,0.0,0.0,0.0,0.0,0.0,0.0,0.0,0.0,0.0,0.0,0.0,0.0,0.0,0.0,0.0,0.0,0.0,0.0,0.0,0.0,0.0,0.0,0.0,0.0,0.0,0.0,0.0,0.0,0.0,0.0,0.0,0.0,0.0,0.0,0.0,0.0,0.0,0.0,0.0,0.0,0.0,0.0,0.0,2.9537,3.1898,3.3441,3.4277,3.4253,3.1913,2.8869,0.0,0.0,0.0,0.0,0.0,0.0,0.0,0.0,0.0,0.0,0.0,0.0,0.0,0.0,0.0,0.0,0.0,0.0,0.0,0.0,0.0,0.0,0.0,0.0,0.0,0.0,0.0,0.0,0.0,0.0,0.0,0.0,0.0,0.0,0.0,0.0,0.0,0.0,0.0,0.0,0.0,0.0,0.0,0.0,0.0,0.0,0.0,0.0,0.0,0.0,0.0,0.0,0.0,0.0,0.0,0.0,0.0,0.0,0.0,0.0,0.0,0.0,0.0,0.0,0.0,0.0,0.0,0.0,0.0,0.0,0.0,0.0,0.0,0.0,0.0,0.0,0.0,0.0,0.0,0.0,0.0,0.0,0.0,0.0,0.0,0.0,0.0,0.0,0.0,0.0,0.0,0.0,0.0,0.0,0.0,0.0,0.0,0.0,0.0,0.0,0.0,0.0,0.0,0.0,0.0,0.0,0.0,0.0,3.1014,3.2784,3.3766,3.458,3.5206,3.2317,2.9447,0.0,0.0,0.0,0.0,0.0,0.0,0.0,0.0,0.0,0.0,0.0,0.0,0.0,0.0,0.0,0.0,0.0,0.0,0.0,0.0,0.0,0.0,0.0,0.0,0.0,0.0,0.0,0.0,0.0,0.0,0.0,0.0,0.0,0.0,0.0,0.0,0.0,0.0,0.0,0.0,0.0,0.0,0.0,0.0,0.0,0.0,0.0,0.0,1.5154,0.0,0.0,0.0,0.0,0.0,0.0,0.0,0.0,0.0,0.0,0.0,0.0,0.0,0.0,0.0,0.0,0.0,0.0,0.0,0.0,0.0,0.0,0.0,0.0,0.0,0.0,0.0,0.0,0.0,0.0,0.0,0.0,0.0,0.0,0.0,0.0,0.0,0.0,0.0,0.0,0.0,0.0,0.0,0.0,0.0,0.0,0.0,0.0,0.0,0.0,0.0,0.0,0.0,0.0,0.0,0.0,0.0,0.0,0.0,3.1672,3.3585,3.4069,3.4697,3.5349,3.2742,3.015,0.0,0.0,0.0,0.0,0.0,0.0,0.0,0.0,0.0,0.0,0.0,0.0,0.0,0.0,0.0,0.0,0.0,0.0,0.0,0.0,0.0,0.0,0.0,0.0,0.0,0.0,0.0,0.0,0.0,0.0,0.0,0.0,0.0,0.0,0.0,0.0,0.0,0.0,0.0,0.0,0.0,0.0,0.0,0.0,0.0,0.0,0.0,0.0,0.0,0.0,0.0,0.0,0.0,0.0,0.0,0.0,0.0,0.0,0.0,0.0,0.0,0.0,0.0,0.0,0.0,0.0,0.0,0.0,0.0,0.0,0.0,0.0,0.0,0.0,0.0,0.0,0.0,0.0,0.0,0.0,0.0,0.0,0.0,0.0,0.0,0.0,0.0,0.0,0.0,0.0,0.0,0.0,0.0,0.0,0.0,0.0,0.0,0.0,0.0,0.0,0.0,0.0,0.0,0.0,0.0,0.0,0.0,2.9231,3.1955,3.4391,3.4391,3.4697,3.5423,3.3105,3.0691,2.8316,0.0,0.0,0.0,0.0,0.0,0.0,0.0,0.0,0.0,0.0,0.0,0.0,0.0,0.0,0.0,0.0,0.0,0.0,0.0,0.0,0.0,0.0,0.0,0.0,0.0,0.0,0.0,0.0,0.0,0.0,0.0,0.0,0.0,0.0,0.0,0.0,0.0,0.0,1.3712,1.6479,0.0,0.0,0.0,0.0,0.0,0.0,0.0,0.0,1.7715,0.0,0.0,0.0,0.0,0.0,0.0,0.0,0.0,0.0,0.0,0.0,0.0,0.0,0.0,0.0,0.0,0.0,0.0,0.0,0.0,0.0,0.0,0.0,0.0,0.0,0.0,0.0,0.0,0.0,0.0,0.0,0.0,0.0,0.0,0.0,0.0,0.0,0.0,0.0,0.0,0.0,0.0,0.0,0.0,0.0,0.0,0.0,0.0,0.0,0.0,0.0,0.0,0.0,0.0,0.0,0.0,2.882,3.0149,3.2299,3.5357,3.4736,3.4726,3.5411,3.3087,3.0664,2.8144,0.0,0.0,0.0,0.0,0.0,0.0,0.0,0.0,0.0,0.0,0.0,0.0,0.0,0.0,0.0,0.0,0.0,0.0,0.0,0.0,0.0,0.0,0.0,0.0,0.0,0.0,0.0,0.0,0.0,0.0,0.0,0.0,0.0,0.0,0.0,0.0,0.0,0.0,0.0,1.9852,2.1134,0.0,0.0,0.0,0.0,0.0,0.0,0.0,0.0,1.7431,0.0,0.0,0.0,0.0,0.0,0.0,0.0,0.0,0.0,0.0,0.0,0.0,0.0,0.0,0.0,0.0,0.0,0.0,0.0,0.0,0.0,0.0,0.0,0.0,0.0,0.0,0.0,0.0,0.0,0.0,0.0,0.0,0.0,0.0,0.0,0.0,0.0,0.0,0.0,0.0,0.0,0.0,0.0,0.0,0.0,0.0,0.0,0.0,0.0,0.0,0.0,0.0,0.0,0.0,0.0,2.811,3.0376,3.2662,3.4955,3.4633,3.4545,3.4803,3.2071,2.9582,0.0,0.0,0.0,0.0,0.0,0.0,0.0,0.0,0.0,0.0,0.0,0.0,0.0,0.0,0.0,0.0,0.0,0.0,0.0,0.0,0.0,0.0,0.0,0.0,0.0,0.0,0.0,0.0,0.0,0.0,0.0,0.0,0.0,0.0,0.0,0.0,0.0,0.0,0.0,0.0,2.0915,2.2022,2.2935,0.0,0.0,0.0,0.0,0.0,0.0,2.0274,1.8906,0.0,0.0,0.0,0.0,0.0,0.0,0.0,0.0,0.0,0.0,0.0,0.0,0.0,0.0,0.0,0.0,0.0,0.0,0.0,0.0,0.0,0.0,0.0,0.0,0.0,0.0,0.0,0.0,0.0,0.0,0.0,0.0,0.0,0.0,0.0,0.0,0.0,0.0,0.0,0.0,0.0,0.0,0.0,0.0,0.0,0.0,0.0,0.0,0.0,0.0,0.0,0.0,0.0,0.0,0.0,2.7062,3.0226,3.2722,3.4383,3.445,3.4311,3.4055,3.1362,2.8905,0.0,0.0,0.0,0.0,0.0,0.0,0.0,0.0,0.0,0.0,0.0,0.0,0.0,0.0,0.0,0.0,0.0,0.0,0.0,0.0,0.0,0.0,0.0,0.0,0.0,0.0,0.0,0.0,0.0,0.0,0.0,0.0,0.0,0.0,0.0,0.0,0.0,0.0,0.0,0.0,0.0,2.3129,2.4139,2.3109,0.0,0.0,0.0,0.0,2.3162,2.2344,0.0,0.0,0.0,0.0,0.0,0.0,0.0,0.0,0.0,0.0,0.0,0.0,0.0,0.0,0.0,0.0,0.0,0.0,0.0,0.0,0.0,0.0,0.0,0.0,0.0,0.0,0.0,0.0,0.0,0.0,0.0,0.0,0.0,0.0,0.0,0.0,0.0,0.0,0.0,0.0,0.0,0.0,0.0,0.0,0.0,0.0,0.0,0.0,0.0,0.0,0.0,0.0,0.0,0.0,0.0,0.0,2.7024,2.9683,3.2158,3.4345,3.4495,3.4113,3.3336,3.2259,2.9874,0.0,0.0,0.0,0.0,0.0,0.0,0.0,0.0,0.0,0.0,0.0,0.0,0.0,0.0,0.0,0.0,0.0,0.0,0.0,0.0,0.0,0.0,0.0,0.0,0.0,0.0,0.0,0.0,0.0,0.0,0.0,0.0,0.0,0.0,0.0,0.0,0.0,0.0,0.0,0.0,0.0,2.5795,2.4488,2.4139,2.3994,0.0,0.0,2.3945,2.4214,2.4713,0.0,0.0,0.0,0.0,0.0,0.0,0.0,0.0,0.0,0.0,0.0,0.0,0.0,0.0,0.0,0.0,0.0,0.0,0.0,0.0,0.0,0.0,0.0,0.0,0.0,0.0,0.0,0.0,0.0,0.0,0.0,0.0,0.0,0.0,0.0,0.0,0.0,0.0,0.0,0.0,0.0,0.0,0.0,0.0,0.0,0.0,0.0,0.0,0.0,0.0,0.0,0.0,0.0,0.0,0.0,2.3446,2.7042,3.0077,3.2553,3.4467,3.4517,3.4098,3.329,3.1526,2.8855,0.0,0.0,0.0,0.0,0.0,0.0,0.0,0.0,0.0,0.0,0.0,0.0,0.0,0.0,0.0,0.0,0.0,0.0,0.0,0.0,0.0,0.0,0.0,0.0,0.0,0.0,0.0,0.0,0.0,0.0,0.0,0.0,0.0,0.0,0.0,0.0,0.0,0.0,0.0,0.0,0.0,0.0,2.5726,2.5357,0.0,0.0,0.0,2.5387,2.6399,0.0,0.0,0.0,0.0,0.0,0.0,0.0,0.0,0.0,0.0,0.0,0.0,0.0,0.0,0.0,0.0,0.0,0.0,0.0,0.0,0.0,0.0,0.0,0.0,0.0,0.0,0.0,0.0,0.0,0.0,0.0,0.0,0.0,0.0,0.0,0.0,0.0,0.0,0.0,0.0,0.0,0.0,0.0,0.0,0.0,0.0,0.0,0.0,0.0,0.0,0.0,0.0,0.0,0.0,0.0,0.0,0.0,2.706,3.0396,3.2893,3.4526,3.4539,3.403,3.3018,3.0935,0.0,0.0,0.0,0.0,0.0,0.0,0.0,0.0,0.0,0.0,0.0,0.0,0.0,0.0,0.0,0.0,0.0,0.0,0.0,0.0,0.0,0.0,0.0,0.0,0.0,0.0,0.0,1.054,0.0,0.0,0.0,0.0,0.0,0.0,0.0,0.0,0.0,0.0,0.0,0.0,0.0,0.0,2.5585,2.6456,2.6593,2.6952,0.0,0.0,2.6887,2.7761,2.7225,2.5805,0.0,0.0,0.0,0.0,0.0,0.0,0.0,0.0,0.0,0.0,0.0,0.0,0.0,0.0,0.0,0.0,0.0,0.0,0.0,0.0,0.0,0.0,0.0,0.0,0.0,0.0,0.0,0.0,0.0,0.0,0.0,0.0,0.0,0.0,0.0,0.0,0.0,0.0,0.0,0.0,0.0,0.0,0.0,0.0,0.0,0.0,0.0,0.0,0.0,0.0,0.0,0.0,0.0,0.0,0.0,2.706,3.0396,3.2912,3.4526,3.4583,3.3813,3.2217,3.1278,2.8858,0.0,0.0,0.0,0.0,0.0,0.0,0.0,0.0,0.0,0.0,0.0,0.0,0.0,0.0,0.0,0.0,0.0,0.0,0.0,0.0,0.0,0.0,0.0,0.0,0.0,0.0,0.0,0.0,0.0,0.0,0.0,0.0,0.0,0.0,0.0,0.0,0.0,0.0,0.0,0.0,0.0,2.7394,2.5898,2.771,2.8985,0.0,0.0,2.8736,2.7305,2.8381,2.7676,2.2797,0.0,0.0,0.0,0.0,0.0,0.0,0.0,0.0,0.0,0.0,0.0,0.0,0.0,0.0,0.0,0.0,0.0,0.0,0.0,0.0,0.0,0.0,0.0,0.0,0.0,0.0,0.0,0.0,0.0,0.0,0.0,0.0,0.0,0.0,0.0,0.0,0.0,0.0,0.0,0.0,0.0,0.0,0.0,0.0,0.0,0.0,0.0,0.0,0.0,0.0,0.0,0.0,0.0,2.3866,2.715,3.0415,3.2893,3.4489,3.4113,3.3287,3.2123,3.1335,2.8951,0.0,0.0,0.0,0.0,0.0,0.0,0.0,0.0,0.0,0.0,0.0,0.0,0.0,0.0,0.0,0.0,0.0,0.0,0.0,0.0,0.0,0.0,0.0,0.0,0.0,0.0,0.0,0.0,1.2791,1.3028,1.2839,0.0,0.0,0.0,0.0,0.0,0.0,0.0,0.0,0.0,0.0,2.7592,2.7943,2.886,0.0,0.0,2.9634,2.9478,2.9413,2.9045,2.7932,2.544,2.4149,0.0,0.0,0.0,0.0,0.0,0.0,0.0,0.0,0.0,0.0,0.0,0.0,0.0,0.0,0.0,0.0,0.0,0.0,0.0,0.0,0.0,0.0,0.0,0.0,0.0,0.0,0.0,0.0,0.0,0.0,0.0,0.0,0.0,0.0,0.0,0.0,0.0,0.0,0.0,0.0,0.0,0.0,0.0,0.0,0.0,0.0,0.0,0.0,0.0,0.0,0.0,0.0,2.39,2.7167,3.0434,3.2912,3.4564,3.3813,3.2987,3.2123,3.1091,2.8837,0.0,0.0,0.0,0.0,0.0,0.0,0.0,0.0,0.0,0.0,0.0,0.0,0.0,0.0,0.0,0.0,0.0,0.0,0.0,0.0,0.0,0.0,0.0,0.0,0.0,0.0,0.0,0.0,1.3749,1.3655,1.2537,0.0,0.0,0.0,0.0,0.0,0.0,0.0,0.0,0.0,0.0,2.8215,2.9364,2.9734,3.0147,3.074,3.0088,2.9659,3.0062,2.9086,2.7837,2.646,0.0,0.0,0.0,0.0,0.0,0.0,0.0,0.0,0.0,0.0,0.0,0.0,0.0,0.0,0.0,0.0,0.0,0.0,0.0,0.0,0.0,0.0,0.0,0.0,0.0,0.0,0.0,0.0,0.0,0.0,1.4933,0.0,0.0,0.0,0.0,0.0,0.0,0.0,0.0,0.0,0.0,0.0,0.0,0.0,0.0,0.0,0.0,0.0,0.0,0.0,0.0,0.0,0.0,2.3938,2.7186,3.0453,3.2893,3.451,3.3794,3.2968,3.2067,3.0546,2.8573,2.611,0.0,0.0,0.0,0.0,0.0,0.0,0.0,0.0,0.0,0.0,0.0,0.0,0.0,0.0,0.0,0.0,0.0,0.0,0.0,0.0,0.0,0.0,0.0,0.0,0.0,0.0,1.3866,1.4083,1.3406,0.0,0.0,0.0,0.0,0.0,0.0,0.0,0.0,0.0,0.0,2.7383,2.9535,2.9611,3.0333,3.0841,3.0899,3.0174,2.934,2.8588,2.8367,2.7425,0.0,0.0,0.0,0.0,0.0,0.0,0.0,0.0,0.0,0.0,0.0,0.0,0.0,0.0,0.0,0.0,0.0,0.0,0.0,0.0,0.0,0.0,0.0,0.0,0.0,0.0,0.0,2.0451,2.0108,0.0,0.0,0.0,0.0,0.0,0.0,0.0,0.0,0.0,0.0,0.0,2.6626,2.7205,0.0,0.0,0.0,0.0,0.0,0.0,0.0,0.0,0.0,0.0,0.0,0.0,2.4794,2.8075,3.0863,3.2845,3.396,3.3167,3.2336,3.1504,3.0409,2.8439,2.5461,0.0,0.0,0.0,0.0,0.0,0.0,0.0,0.0,0.0,0.0,0.0,0.0,0.0,0.0,0.0,0.0,0.0,0.0,0.0,0.0,0.0,0.0,0.0,0.0,0.0,1.2823,0.0,0.0,0.0,0.0,0.0,0.0,0.0,0.0,0.0,0.0,0.0,2.4709,2.672,2.8506,2.9818,3.0383,3.0715,3.0911,0.0,0.0,0.0,0.0,0.0,0.0,0.0,0.0,0.0,0.0,0.0,0.0,0.0,0.0,2.7067,2.3376,2.2225,2.1813,2.1828,0.0,0.0,0.0,0.0,0.0,0.0,0.0,0.0,0.0,0.0,0.0,0.0,0.0,0.0,2.4335,0.0,2.2948,0.0,0.0,0.0,0.0,0.0,0.0,0.0,0.0,2.8318,2.9745,3.0544,3.1064,3.0611,0.0,2.8156,2.6148,0.0,0.0,0.0,0.0,0.0,0.0,0.0,0.0,2.6015,2.9042,3.1574,3.3145,3.3638,3.2842,3.2027,3.1231,3.0111,2.8362,2.5942,2.429,2.2517,0.0,0.0,0.0,0.0,0.0,0.0,0.0,0.0,0.0,0.0,0.0,0.0,0.0,0.0,0.0,0.0,0.0,0.0,0.0,0.0,0.0,0.0,0.0,1.3834,0.0,0.0,0.0,0.0,0.0,0.0,0.0,0.0,0.0,2.2678,2.4481,2.6493,2.8483,2.9502,3.0268,3.0818,0.0,0.0,0.0,0.0,0.0,0.0,0.0,2.8854,2.9113,2.8722,2.8446,2.8669,2.9447,2.9932,2.9611,0.0,0.0,2.6376,2.5281,2.4988,2.5275,2.5278,2.5068,2.4503,2.4527,2.4683,0.0,0.0,0.0,0.0,0.0,0.0,0.0,0.0,2.8468,2.8366,0.0,2.758,0.0,0.0,0.0,0.0,0.0,2.7014,0.0,0.0,3.3586,3.4808,3.4101,3.398,3.3473,3.2711,3.2616,3.1689,2.9744,2.4385,0.0,0.0,0.0,0.0,0.0,0.0,2.7509,2.9997,3.2443,3.3713,3.3694,3.2842,3.1989,3.1172,2.9665,2.8474,2.7537,2.606,2.4041,2.1538,1.9073,0.0,0.0,0.0,0.0,0.0,0.0,0.0,0.0,0.0,0.0,0.0,0.0,0.0,0.0,0.0,0.0,0.0,0.0,0.0,0.0,1.4359,0.0,0.0,0.0,0.0,0.0,0.0,0.0,0.0,0.0,0.0,2.4734,2.6751,2.8647,2.9519,0.0,0.0,0.0,0.0,3.0905,3.0918,3.0193,2.9661,2.9689,2.9628,2.9316,2.8557,0.0,0.0,2.9698,3.0239,3.0505,2.9702,3.0271,3.0798,3.068,2.9218,2.8473,2.9195,2.8038,2.6992,2.6961,2.7293,2.7451,3.3287,0.0,0.0,0.0,0.0,2.987,3.158,3.4334,3.3412,3.2958,3.2727,3.0972,0.0,0.0,0.0,0.0,0.0,0.0,3.1843,3.3765,3.4786,3.5706,3.6623,3.6606,3.5844,3.4489,3.4451,3.3576,3.1882,2.9665,2.6702,2.3094,0.0,0.0,0.0,0.0,2.9003,3.0925,3.2899,3.3922,3.3922,3.3067,3.1943,3.0513,3.0047,2.9379,2.8521,2.8044,2.667,2.4175,2.1711,0.0,0.0,0.0,0.0,0.0,0.0,0.0,0.0,0.0,0.0,0.0,0.0,0.0,0.0,0.0,0.0,0.0,0.0,0.0,1.3584,1.4201,1.5122,0.0,0.0,0.0,0.0,0.0,0.0,0.0,0.0,0.0,2.8066,2.8746,2.9544,0.0,0.0,3.0918,3.0911,3.0923,3.0921,3.0907,3.0691,0.0,3.0528,3.0001,2.9708,3.0021,3.0504,3.0735,3.0473,3.0622,3.0719,3.0455,3.0611,3.0782,3.0774,3.0427,3.0158,3.0321,2.9905,2.9531,2.9518,2.9564,2.9294,3.8271,3.4969,3.2922,3.2664,3.3585,3.3498,3.4898,3.7263,3.6649,3.6444,3.6426,3.4977,3.316,3.1039,2.9415,0.0,0.0,0.0,3.4695,3.6744,3.6747,3.7266,3.8204,3.8244,3.7536,3.6236,3.5878,3.5209,3.4197,3.3051,3.0729,2.7361,0.0,0.0,2.6885,2.916,3.1005,3.2355,3.3761,3.4331,3.3987,3.284,3.158,3.0261,3.0204,2.9964,2.9474,2.8817,2.7769,2.6261,2.355,2.1053,0.0,0.0,0.0,0.0,0.0,0.0,0.0,0.0,0.0,0.0,0.0,1.3816,1.1982,0.0,0.0,0.0,1.3086,1.4417,1.6485,1.699,0.0,0.0,0.0,0.0,0.0,0.0,0.0,2.6523,2.8262,2.9512,3.0038,3.0117,3.0312,3.0839,3.0918,3.0917,3.0921,0.0,3.0997,3.1328,3.1072,3.0972,3.1301,3.0657,3.0228,3.0716,3.0788,3.0801,3.0794,3.079,3.0802,3.0793,3.0793,3.0784,3.0714,3.0714,3.0714,3.0709,3.0613,3.0513,3.049,3.0325,3.0002,4.2061,4.1667,3.7971,3.6362,3.6389,3.7238,3.7565,3.7608,3.8496,3.8899,3.8918,3.8975,3.8132,3.6528,3.5066,0.0,3.5649,3.6504,3.7709,3.9207,3.9207,3.9207,3.9207,3.9193,3.8755,3.7876,3.7097,3.6623,3.6413,3.4958,3.3754,3.2879,3.1384,3.0925,3.1522,3.2344,3.3203,3.3987,3.477,3.477,3.3907,3.2416,3.1155,3.0237,3.0128,3.0125,3.0163,2.8664,2.7769,2.7599,2.4756,2.2293,2.0458,0.0,0.0,0.0,0.0,0.0,0.0,0.0,0.0,0.0,0.0,0.0,0.0,0.0,0.0,0.0,1.6552,0.0,2.048,2.1478,0.0,0.0,0.0,2.3729,2.4803,2.6267,2.7538,2.8397,0.0,0.0,3.0912,3.0905,3.0884,3.0892,3.0878,3.0916,3.0921,3.0897,3.1153,3.1797,3.1304,3.1103,3.1679,3.1227,3.0742,3.0778,3.0786,3.0778,3.0774,3.0784,3.0774,3.0794,3.0789,3.0734,3.062,3.0591,3.0576,3.0564,3.047,3.0364,3.0302,3.0142,2.9962,4.3446,4.2837,4.2001,4.0928,3.9816,4.0033,3.9864,3.9464,3.9697,3.9852,3.991,3.9334,3.8525,3.7581,3.7792,3.8,3.8243,3.9092,3.9701,4.0092,4.0104,4.0109,4.0089,4.0091,3.9651,3.8827,3.858,3.7833,3.6607,3.6166,3.5534,3.4711,3.4289,3.3206,3.1618,3.2955,3.3796,3.3987,3.4789,3.4518,3.3134,3.2704,3.178,3.0305,2.9625,2.9321,2.9366,2.8439,2.7561,2.6892,2.5599,2.3799,2.1397,1.9001,0.0,0.0,0.0,0.0,0.0,0.0,0.0,0.0,0.0,1.8535,1.4436,0.0,1.9088,0.0,1.976,2.0913,2.152,2.2339,0.0,0.0,2.5468,2.6211,2.9023,2.9138,2.9306,3.0183,3.0648,3.0919,3.0923,3.0921,3.088,3.0821,3.0884,3.0923,3.0899,3.0855,3.0891,3.1092,3.0967,3.0872,3.107,3.0962,3.0794,3.0786,3.0769,3.0711,3.0739,3.0736,3.0737,3.0717,3.0644,3.0548,3.0524,3.05,3.0423,3.0329,3.0283,3.0247,3.0228,3.0099,2.9836,4.4205,4.3874,4.3981,4.3334,4.2181,4.1442,4.094,4.0611,4.0328,4.0234,4.0272,3.983,3.9423,3.9054,3.9493,3.972,3.9778,4.0216,4.0441,4.045,4.0441,4.0427,4.0427,4.043,4.0181,3.972,3.9301,3.8613,3.7712,3.6964,3.6351,3.5871,3.5488,3.4596,3.3302,3.4125,3.4569,3.4592,3.5028,3.447,3.2891,3.2809,3.182,2.9874,2.9653,2.9274,2.8664,2.8179,2.7376,2.6168,2.5407,2.4166,2.2305,2.0628,1.9088,0.0,0.0,0.0,0.0,0.0,0.0,0.0,0.0,0.0,0.0,0.0,2.1499,2.1052,2.2574,2.3902,2.4683,2.5488,2.6737,2.8534,2.83,2.8788,3.0683,3.0482,3.0494,3.1348,3.1426,3.1582,3.1953,3.1677,3.1421,3.1379,3.1084,3.0849,3.0849,3.0824,3.0941,3.1298,3.1055,3.0782,3.075,3.075,3.075,3.0759,3.0728,3.0691,3.0704,3.0704,3.0664,3.0622,3.0543,3.0472,3.0393,3.0329,3.0266,3.0155,3.0099,3.0085,3.0114,3.003,2.9804,4.4624,4.4719,4.4745,4.4435,4.3847,4.2307,4.1508,4.1281,4.0597,4.031,4.031,4.0326,4.0362,4.0413,4.0466,4.0485,4.049,4.0495,4.0489,4.0489,4.0489,4.0489,4.0489,4.0495,4.0499,4.046,3.9663,3.9224,3.9071,3.7651,3.6826,3.6577,3.5867,3.5411,3.5315,3.5315,3.532,3.5312,3.532,3.451,3.2842,3.2804,3.1668,2.9434,2.9725,2.9389,2.8165,2.794,2.7173,2.5756,2.5087,2.4308,2.3368,2.2465,2.1533,0.0,1.9947,0.0,0.0,0.0,0.0,0.0,0.0,0.0,0.0,2.3216,2.3846,2.3613,2.5291,2.6949,2.8335,2.9253,3.0077,3.0801,3.0907,3.0912,3.0912,3.0913,3.1202,3.2014,3.2109,3.2422,3.318,3.2726,3.2251,3.2037,3.1464,3.1008,3.0813,3.079,3.1044,3.1831,3.1293,3.0755,3.0722,3.0711,3.0697,3.0697,3.069,3.0683,3.0683,3.0676,3.0642,3.0537,3.0482,3.0404,3.0209,3.0163,3.0133,3.0019,2.9937,2.9956,2.9972,2.9937,2.9907,4.4738,4.487,4.4967,4.4962,4.4779,4.3857,4.2717,4.1418,4.0616,4.0328,4.0381,4.0432,4.0463,4.0492,4.0492,4.0492,4.0492,4.0508,4.0489,4.0489,4.0489,4.0489,4.0489,4.0508,4.0508,4.0489,4.0338,3.9896,3.9262,3.8954,3.807,3.6709,3.6498,3.608,3.5417,0.0,0.0,0.0,3.533,3.4573,3.296,3.2891,3.1994,3.021,2.8974,0.0,2.81,2.7406,2.6905,2.6654,2.6546,0.0,0.0,0.0,0.0,0.0,0.0,0.0,0.0,0.0,0.0,0.0,2.4488,2.4036,2.307,2.6247,2.7773,2.6484,2.8476,2.9746,2.9386,3.014,3.0723,3.088,3.0901,3.0921,3.0923,3.0923,3.1194,3.1992,3.2124,3.2452,3.3269,3.3243,3.2904,3.2253,3.1976,3.1582,3.0925,3.0837,3.0845,3.093,3.0828,3.0717,3.0704,3.0697,3.0703,3.071,3.0661,3.0618,3.061,3.0623,3.0559,3.0422,3.0375,3.0292,3.0147,3.003,2.9969,2.994,2.9905,2.9907,2.9924,2.9905,2.9907,4.487,0.0,4.508,4.5148,0.0,4.434,4.3291,4.2087,4.1303,4.0765,4.0449,4.0485,4.0495,4.0489,4.0489,4.0489,4.0489,4.0489,4.0489,4.0489,4.0489,4.0489,4.0489,4.0489,4.0489,4.0489,4.0489,4.0277,3.9873,3.9488,3.8623,3.7334,3.6911,3.6281,3.5465,3.5493,3.546,3.5412,3.5427,3.4826,3.3609,3.3152,3.2166,3.0516,2.9661,0.0,0.0,0.0,0.0,0.0,0.0,0.0,0.0,0.0,0.0,2.4459,2.4834,2.4879,2.4472,2.5193,2.6051,2.6912,2.7382,2.7246,2.6364,2.834,2.941,2.9019,3.0154,3.072,3.0323,3.0628,3.0919,3.0899,3.086,3.0997,3.1407,3.1502,3.2006,3.3138,3.3386,3.3574,3.3965,3.4035,3.3691,3.2907,3.2713,3.2522,3.2044,3.1276,3.0735,3.0686,3.0658,3.0645,3.0634,3.0645,3.0632,3.0567,3.0567,3.054,3.0471,3.049,3.0439,3.0292,3.0234,3.0171,3.0034,2.9937,2.9907,2.9907,2.9907,2.9907,2.9907,2.9907,2.9907,4.4967,4.5106,4.5148,4.5192,4.5239,4.4532,4.3808,4.2967,0.0,0.0,0.0,4.0499,4.0495,4.0489,4.0489,4.0489,4.0489,4.0489,4.0489,4.0489,4.0489,4.0489,4.0489,4.0489,4.0489,4.0489,4.0489,4.0489,4.045,3.9815,3.9084,3.8219,3.7373,3.6449,3.5565,3.5488,3.5488,3.552,3.5488,3.5084,3.4231,3.3415,3.228,3.0761,3.0483,2.9757,2.8462,2.9107,2.8857,2.7563,2.7466,2.7446,2.7468,2.7318,2.7553,2.8232,2.8447,2.8531,2.8535,2.8671,2.8768,2.8769,2.9425,2.9832,2.9823,2.9835,3.0118,3.086,3.0907,3.0912,3.0912,3.0905,3.0958,3.1075,3.1072,3.1385,3.2187,3.2316,3.2934,3.4378,3.4624,3.4753,3.487,3.49,3.4599,3.3834,3.3568,3.3433,3.3115,3.1916,3.0918,3.071,3.0649,3.0616,3.0595,3.0568,3.053,3.0449,3.049,3.0477,3.0355,3.0336,3.0292,3.0147,3.009,3.0049,2.9956,2.9924,2.9907,2.9907,2.9907,2.9907,2.9907,2.9907,2.9907,4.4881,4.5275,4.5275,4.5297,4.5277,4.5225,4.4767,4.3902,4.1656,4.0581,4.0502,4.0492,4.0489,4.0489,4.0489,4.0489,4.0489,4.0489,4.0489,4.0489,4.0489,4.0489,4.0489,4.0489,4.0489,4.0489,4.0489,4.0489,4.0489,4.0373,3.9912,3.9084,3.8238,3.7021,3.5618,3.5502,3.5515,3.5579,3.5515,3.5084,3.4231,3.3415,3.2538,3.1549,3.0275,2.9445,2.9159,2.938,2.9413,2.9254,2.9234,2.9249,2.9201,2.8541,2.8177,2.832,2.9004,2.9414,2.9434,3.0117,3.0527,3.0527,3.0657,3.0704,3.0708,3.0714,3.0753,3.0899,3.0901,3.0921,3.0921,3.0938,3.1231,3.1816,3.1909,3.226,3.3105,3.3207,3.3587,3.4616,3.4705,3.4993,3.548,3.5646,3.5332,3.4633,3.4361,3.4158,3.3347,3.2373,3.1467,3.082,3.0615,3.0607,3.0578,3.05,3.0428,3.0398,3.0359,3.0343,3.0279,3.0273,3.0266,3.0104,3.0075,3.0049,2.994,2.9907,2.9907,2.9907,2.9907,2.9907,2.9907,2.9888,2.9907,4.4838,4.5045,4.5216,4.5317,4.532,4.4978,4.4613,4.4112,4.2093,4.1207,4.1149,4.0719,4.0489,4.0489,4.0489,4.0489,4.0489,4.0489,4.0489,4.0489,4.0489,4.0489,4.0489,4.0489,4.0489,4.0489,4.0489,4.0523,4.0558,4.0523,4.01,3.9249,3.7998,3.6972,3.6234,3.5779,3.5579,3.5572,3.5566,3.538,3.4956,3.4204,3.3363,3.2413,3.1396,3.06,3.0081,3.0152,3.0234,3.0312,3.0292,3.0291,3.0289,2.9918,2.9706,2.9726,3.0078,3.0293,3.0312,3.0664,3.0917,3.0913,3.0911,3.0905,3.0919,3.0923,3.0925,3.0899,3.086,3.1055,3.1485,3.1563,3.1892,3.2729,3.2801,3.3171,3.3916,3.4098,3.4432,3.5173,3.5349,3.5313,3.5196,3.558,3.5514,3.4754,3.4855,3.4814,3.3974,3.3122,3.2231,3.1419,3.0829,3.0537,3.049,3.0394,3.0323,3.0254,3.0292,3.024,3.0138,3.0138,3.0123,3.0034,2.9984,2.9969,2.9924,2.9907,2.9907,2.9907,2.9907,2.9907,2.9888,2.9803,2.9698,4.4701,4.4849,4.509,4.5298,4.5361,4.4805,4.4591,4.4437,4.3011,4.2258,4.197,4.0969,4.0489,4.0504,4.0523,4.0523,4.0543,4.0519,4.0539,4.0543,4.0504,4.0523,4.0489,4.0523,4.0523,4.0504,4.0519,4.0554,4.0588,4.0554,4.013,3.9292,3.802,3.7211,3.6806,3.6209,3.5828,3.5635,3.5616,3.5616,3.5584,3.4894,3.411,3.3341,3.2692,3.1925,3.1048,3.1053,3.1035,3.0918,3.0918,3.0918,3.0918,3.0918,3.0918,3.0917,3.0917,3.0917,3.0918,3.0918,3.0915,3.0921,3.0907,3.0909,3.0919,3.1075,3.1075,3.0938,3.1036,3.1407,3.1953,3.2282,3.2748,3.3562,3.3692,3.4039,3.4823,3.4959,3.5168,3.5791,3.5892,3.5592,3.5184,3.5407,3.5519,3.5075,3.5311,3.5369,3.4747,3.3815,3.2808,3.2113,3.1141,3.046,3.0394,3.0311,3.0207,3.009,3.0152,3.0109,2.9969,2.9984,3.0,2.994,2.9924,2.9905,2.9907,2.9907,2.9872,2.9839,2.9805,2.9805,2.9734,2.957,2.9435,4.4402,4.4868,4.4938,4.5159,4.5476,4.5399,4.5396,4.5316,4.447,4.3643,4.2797,4.1239,4.0508,4.0523,4.0554,4.0592,4.0581,4.0579,4.0583,4.0596,4.0592,4.0539,4.0504,4.0554,4.0588,4.0588,4.0579,4.0593,4.0607,4.0607,4.0202,3.9469,3.9218,3.8382,3.7095,3.6818,3.6404,3.5712,3.5704,3.567,3.5546,3.4894,3.441,3.4195,3.3529,3.2737,3.1835,3.1929,3.1641,3.0996,3.0918,3.0918,3.0918,3.0918,3.0917,3.0925,3.0923,3.0905,3.0914,3.0914,3.0912,3.0921,3.0958,3.0979,3.1016,3.1602,3.1641,3.1211,3.1563,3.2031,3.2129,3.2826,3.364,3.4456,3.4577,3.492,3.5548,3.5786,3.5813,3.5854,3.5854,3.5779,3.5643,3.5732,3.5715,3.5504,3.5582,3.5648,3.5375,3.4044,3.3034,3.2617,3.1513,3.0496,3.0359,3.0228,3.0123,3.0079,3.0019,2.9937,2.9905,2.9905,2.9905,2.9905,2.9907,2.9907,2.9891,2.9907,2.9822,2.9662,2.9626,2.9589,2.9395,2.923,2.9097,4.4346,4.4726,4.4953,4.5218,4.5495,4.5531,4.5568,4.5509,4.4662,4.3855,4.3008,4.1797,4.1004,4.0573,4.0588,4.0588,4.0583,4.0593,4.0582,4.0582,4.0598,4.0588,4.0564,4.0588,4.0603,4.0579,4.0588,4.0621,4.0635,4.0654,4.048,4.01,3.965,3.9026,3.8344,3.7402,3.6717,3.64,3.5936,3.5693,3.5623,3.5377,3.4932,3.4397,3.4145,3.3599,3.2783,3.2319,3.1914,3.166,3.1169,3.0911,3.0911,3.0915,3.0915,3.0909,3.0923,3.0921,3.0905,3.0905,3.1118,3.1582,3.1602,3.1816,3.2343,3.2695,3.2695,3.2478,3.267,3.3038,3.3545,3.3949,3.4507,3.5221,3.5407,3.5539,3.5827,3.5891,3.5891,3.5889,3.5801,3.5756,3.5747,3.5747,3.5728,3.5697,3.5695,3.5704,3.5607,3.4156,3.3133,3.2774,3.1429,3.0362,3.0226,3.009,3.0,2.9969,2.9956,2.9907,2.9907,2.9907,2.9907,2.9907,2.9888,2.982,2.9716,2.9716,2.9662,2.9494,2.9415,2.9375,2.9144,2.9052,2.8957,4.4308,4.4669,4.5045,4.5341,4.5532,4.5586,4.5622,4.5582,4.4949,4.4083,4.3063,4.2428,4.1578,4.068,4.0583,4.0598,4.0626,4.0654,4.0655,4.0642,4.0621,4.0612,4.0607,4.0631,4.0631,4.0621,4.0635,4.07,4.0733,4.0733,4.07,4.0571,4.0063,3.967,3.9322,3.8148,3.7367,3.6884,3.6303,3.5916,3.5723,3.5704,3.5394,3.4833,3.4803,3.4455,3.3654,3.3025,3.2617,3.2519,3.1711,3.1231,3.1211,3.1024,3.0989,3.1242,3.147,3.1602,3.1582,3.1582,3.1836,3.2363,3.2461,3.2734,3.3278,3.361,3.3746,3.3743,3.3968,3.4355,3.4576,3.4897,3.5295,3.5812,3.588,3.5889,3.5891,3.5878,3.5834,3.5838,3.5757,3.5708,3.5698,3.5716,3.5715,3.5715,3.5662,3.5651,3.5396,3.4103,3.2878,3.2827,3.1249,3.0209,3.0083,3.0,2.9924,2.9907,2.9907,2.9907,2.9907,2.9907,2.9839,2.9805,2.9817,2.975,2.957,2.9513,2.9435,2.9272,2.9185,2.9079,2.8892,2.8887,2.8791,4.417,4.4726,4.5322,4.5568,4.5586,4.5603,4.564,4.5693,4.5616,4.4672,4.3265,4.3054,4.2125,4.0684,4.0646,4.0646,4.0698,4.0765,4.0752,4.0694,4.0713,4.0654,4.0621,4.0654,4.0706,4.07,4.0746,4.079,4.081,4.081,4.081,4.0771,4.0694,4.0307,3.9649,3.934,3.8528,3.7232,3.6884,3.6477,3.582,3.5723,3.5665,3.5588,3.5626,3.5209,3.4555,3.4386,3.4062,3.3359,3.2512,3.2051,3.1992,3.1368,3.1331,3.1995,3.2792,3.3222,3.3183,3.3144,3.3222,3.3319,3.3356,3.3398,3.3649,3.4248,3.4635,3.4635,3.5206,3.5396,3.496,3.5338,3.5734,3.5846,3.5897,3.5885,3.5891,3.5799,3.5718,3.5727,3.5706,3.5706,3.5715,3.5704,3.5684,3.5662,3.5596,3.5515,3.5258,3.3858,3.2817,3.2313,3.1229,2.9956,3.0064,3.0003,2.9924,2.9907,2.9907,2.9907,2.9907,2.9891,2.9787,2.9697,2.9655,2.9568,2.9397,2.9286,2.9175,2.904,2.8839,2.8694,2.8743,2.8662,2.8637,4.425,4.48,4.5362,4.5586,4.5603,4.564,4.5693,4.569,4.5687,4.5051,4.3959,4.3343,4.2472,4.1407,4.0844,4.0654,4.0752,4.079,4.079,4.0771,4.0733,4.07,4.0733,4.07,4.0733,4.0778,4.081,4.079,4.079,4.079,4.079,4.079,4.079,4.0629,4.03,3.9765,3.9158,3.8528,3.7522,3.6767,3.6439,3.5974,3.5704,3.5704,3.5704,3.5588,3.5325,3.4808,3.4392,3.423,3.3402,3.2929,3.291,3.2656,3.2617,3.2929,3.3241,3.3398,3.3398,3.3398,3.3671,3.4178,3.4231,3.4482,3.497,3.5353,3.5522,3.558,3.5704,3.5719,3.5622,3.5749,3.5894,3.5894,3.5885,3.5878,3.5884,3.5782,3.5699,3.5698,3.5716,3.5704,3.5704,3.5704,3.5662,3.5577,3.5528,3.5457,3.5105,3.3785,3.2588,3.2305,3.1121,2.9905,2.9953,2.9937,2.9907,2.9907,2.9907,2.9888,2.9888,2.9769,2.9662,2.9551,2.9476,2.9345,2.9151,2.898,2.8918,2.8828,2.8612,2.8637,2.8644,2.8644,2.8687,4.4484,4.4849,4.5362,4.5603,4.562,4.5693,4.5709,4.5722,4.5715,4.5252,4.4373,4.3524,4.2695,4.1851,4.1012,4.0681,4.0771,4.0771,4.079,4.079,4.0765,4.0746,4.0771,4.0746,4.0746,4.079,4.079,4.079,4.079,4.079,4.079,4.079,4.079,4.079,4.0694,4.0191,3.9835,3.9332,3.8295,3.7522,3.6942,3.6381,3.5938,3.5737,3.5716,3.5742,3.5792,3.5243,3.4995,3.5005,3.4293,3.369,3.3456,3.3671,3.3827,3.3846,3.412,3.4234,3.4234,3.4237,3.4507,3.5034,3.5126,3.5415,3.5958,3.5986,3.5981,3.5958,3.5909,3.5885,3.5899,3.5889,3.5897,3.5878,3.5859,3.583,3.5823,3.5736,3.5708,3.5718,3.5706,3.5704,3.5704,3.5662,3.5596,3.5496,3.5424,3.5268,3.4734,3.3592,3.239,3.2086,3.0864,3.0056,2.9905,2.9924,2.9907,2.9888,2.9872,2.9872,2.9769,2.9644,2.9514,2.9418,2.928,2.9116,2.8915,2.8725,2.8637,2.8612,2.8612,2.8637,2.8662,2.8694,2.8718,4.4776,4.4872,4.5381,4.5622,4.5657,4.5693,4.5738,4.5781,4.58,4.5336,4.4588,4.3656,4.2855,4.1952,4.1195,4.0771,4.072,4.0739,4.079,4.081,4.079,4.079,4.079,4.079,4.079,4.079,4.079,4.079,4.079,4.079,4.079,4.079,4.079,4.079,4.079,4.0674,4.0339,3.9719,3.9371,3.8566,3.7154,3.6895,3.6474,3.5885,3.5766,3.5737,3.5804,3.582,3.581,3.5806,3.5154,3.4315,3.3846,3.4295,3.4705,3.4822,3.5467,3.5874,3.5893,3.5798,3.5734,3.5868,3.5942,3.5896,3.5966,3.5958,3.5909,3.5909,3.5899,3.5889,3.5889,3.5885,3.5879,3.5878,3.5803,3.5736,3.5708,3.5718,3.5704,3.5715,3.5704,3.5704,3.5673,3.5596,3.5515,3.5443,3.5181,3.4757,3.4094,3.3004,3.2101,3.1364,3.0568,2.9981,2.9907,2.9907,2.9888,2.9872,2.9855,2.9822,2.9644,2.9494,2.9334,2.9212,2.9071,2.8897,2.879,2.8637,2.8637,2.8612,2.863,2.8656,2.8712,2.8767,2.8743,4.4701,4.4915,4.5262,4.54,4.5457,4.5618,4.5735,4.5815,4.581,4.5636,4.5274,4.4501,4.3588,4.2695,4.188,4.1181,4.066,4.0673,4.0713,4.079,4.079,4.079,4.079,4.079,4.079,4.079,4.079,4.079,4.079,4.079,4.079,4.079,4.079,4.079,4.079,4.079,4.0616,4.0365,3.9777,3.9178,3.8581,3.755,3.6848,3.665,3.6137,3.5851,3.586,3.5892,3.5933,3.5974,3.5757,3.5467,3.5288,3.5447,3.5584,3.5623,3.5815,3.601,3.601,3.601,3.601,3.6007,3.6017,3.6009,3.6001,3.5948,3.5899,3.5894,3.5889,3.5889,3.5883,3.5859,3.5852,3.5883,3.5795,3.5708,3.5718,3.5707,3.5715,3.5704,3.5704,3.5704,3.5673,3.5584,3.5457,3.524,3.4745,3.4135,3.3633,3.246,3.161,3.1156,3.0438,2.9891,2.9855,2.9787,2.9716,2.9681,2.9662,2.9626,2.9474,2.9334,2.9185,2.9012,2.886,2.8766,2.8626,2.8612,2.8637,2.8662,2.8687,2.8737,2.881,2.8834,2.8834,4.4695,4.4962,4.5222,4.5361,4.5419,4.5651,4.5746,4.581,4.5819,4.5819,4.5578,4.4554,4.3719,4.2995,4.1986,4.1161,4.0631,4.064,4.0687,4.0733,4.0765,4.0778,4.079,4.079,4.079,4.079,4.079,4.079,4.079,4.079,4.079,4.079,4.079,4.079,4.079,4.079,4.079,4.0713,4.0261,3.9828,3.937,3.85,3.7681,3.7155,3.6632,3.6243,3.5974,3.5936,3.5957,3.5999,3.601,3.601,3.601,3.5991,3.601,3.601,3.601,3.601,3.601,3.601,3.6004,3.6001,3.599,3.5977,3.5953,3.5919,3.5889,3.5889,3.5889,3.5889,3.5883,3.5845,3.583,3.5866,3.5773,3.5708,3.5708,3.5697,3.5715,3.5704,3.5704,3.5673,3.5608,3.5515,3.5235,3.4829,3.4244,3.3382,3.2879,3.1895,3.1326,3.0817,3.0267,2.9912,2.9787,2.9681,2.9551,2.9474,2.9435,2.9355,2.923,2.9163,2.9026,2.8863,2.8725,2.8682,2.8587,2.8619,2.8644,2.8694,2.8737,2.8785,2.8858,2.8881,2.8881,4.4833,4.5052,4.5302,4.5438,4.5494,4.57,4.5791,4.58,4.58,4.58,4.5471,4.4258,4.3413,4.2897,4.1751,4.0932,4.0621,4.0654,4.0654,4.0654,4.0668,4.0746,4.081,4.079,4.079,4.079,4.079,4.079,4.079,4.079,4.079,4.079,4.079,4.079,4.079,4.079,4.079,4.079,4.0752,4.0331,3.9688,3.95,3.8773,3.7351,3.7131,3.6737,3.6088,3.5984,3.5996,3.601,3.601,3.601,3.601,3.601,3.601,3.601,3.601,3.601,3.601,3.6007,3.602,3.6009,3.5962,3.5885,3.5899,3.5894,3.5889,3.5889,3.5889,3.5889,3.5878,3.5852,3.5815,3.5782,3.5718,3.5706,3.5704,3.5704,3.5704,3.5673,3.5673,3.562,3.5477,3.5297,3.4772,3.4184,3.3686,3.2688,3.1876,3.1193,3.0758,3.0343,2.9986,2.9825,2.9698,2.9474,2.9334,2.9251,2.9166,2.9056,2.9007,2.8957,2.8887,2.8737,2.8637,2.8612,2.8612,2.8644,2.8669,2.8737,2.8785,2.8834,2.8881,2.8905,2.8929,4.4943,4.5304,4.5419,4.5456,4.5454,4.57,4.581,4.58,4.58,4.5747,4.5539,4.4742,4.3728,4.3106,4.211,4.1305,4.0756,4.0621,4.0654,4.0668,4.07,4.0746,4.079,4.079,4.079,4.079,4.079,4.079,4.079,4.079,4.079,4.079,4.079,4.079,4.079,4.079,4.081,4.0848,4.0829,4.0738,4.0455,3.9888,3.9116,3.816,3.7524,3.6816,3.6052,3.5984,3.601,3.601,3.601,3.601,3.601,3.601,3.601,3.601,3.601,3.601,3.601,3.601,3.6004,3.6017,3.5986,3.5958,3.5885,3.5894,3.5889,3.5889,3.5889,3.5889,3.5883,3.5872,3.5823,3.5736,3.5707,3.5704,3.5704,3.5704,3.5662,3.5565,3.5553,3.547,3.5259,3.4753,3.4219,3.3734,3.2816,3.1819,3.1156,3.0627,3.0229,3.0065,2.9823,2.9698,2.9533,2.9293,2.9119,2.903,2.8915,2.8749,2.8743,2.8718,2.8687,2.8612,2.8637,2.8619,2.8637,2.8662,2.8712,2.8785,2.8834,2.8881,2.8929,2.8975,2.8975,4.512,4.5454,4.5473,4.5473,4.5472,4.5692,4.5805,4.5722,4.5399,4.5249,4.5003,4.3965,4.3192,4.2642,4.1807,4.1189,4.0673,4.0654,4.0654,4.0654,4.0687,4.0733,4.0765,4.0778,4.0746,4.0713,4.0713,4.0713,4.0746,4.0746,4.0759,4.079,4.079,4.079,4.079,4.079,4.081,4.0848,4.0848,4.0854,4.0831,4.0461,3.954,3.8681,3.7934,3.7265,3.6187,3.5979,3.601,3.601,3.601,3.601,3.601,3.601,3.601,3.601,3.601,3.601,3.601,3.6007,3.602,3.5994,3.5981,3.5929,3.5899,3.5894,3.5889,3.5889,3.5889,3.5889,3.5883,3.5879,3.5803,3.5727,3.5697,3.5704,3.5704,3.5651,3.5596,3.5515,3.5463,3.5374,3.5216,3.4429,3.3772,3.3154,3.2117,3.1307,3.0644,3.0173,2.9869,2.9782,2.9643,2.9533,2.9377,2.9144,2.8962,2.8863,2.8791,2.8612,2.8612,2.8612,2.8612,2.8612,2.8619,2.8644,2.8669,2.8712,2.8785,2.8858,2.8905,2.8947,2.8975,2.8975,2.8975,4.5343,4.5526,4.5543,4.5543,4.5558,4.5723,4.5703,4.551,4.4901,4.4501,4.4061,4.2662,4.2198,4.1923,4.1247,4.0706,4.0668,4.0668,4.0635,4.0635,4.0654,4.0687,4.0706,4.0713,4.07,4.0687,4.0602,4.0668,4.072,4.0733,4.0746,4.081,4.081,4.081,4.0829,4.0829,4.0829,4.0868,4.0887,4.0909,4.0945,4.0791,4.0046,3.8653,3.7985,3.7305,3.6337,3.601,3.601,3.601,3.601,3.601,3.601,3.601,3.601,3.601,3.601,3.601,3.601,3.602,3.6009,3.6005,3.5948,3.5894,3.5914,3.5894,3.5889,3.5889,3.5889,3.5889,3.5883,3.5859,3.5799,3.5745,3.5718,3.5695,3.5673,3.5565,3.5483,3.5457,3.5345,3.5219,3.4816,3.4232,3.3361,3.2381,3.1457,3.0776,3.0307,2.9992,2.9763,2.9664,2.9531,2.9358,2.9191,2.8989,2.8821,2.8712,2.8669,2.8587,2.8612,2.8612,2.8612,2.8619,2.8669,2.8694,2.8718,2.8791,2.8863,2.8905,2.8929,2.8952,2.8975,2.8975,2.8975,4.5547,4.5731,4.5742,4.5737,4.5737,4.5766,4.5413,4.4833,4.4645,4.407,4.3366,4.2386,4.1947,4.1842,4.1026,4.0621,4.064,4.0621,4.0602,4.0602,4.0602,4.0626,4.0646,4.072,4.0778,4.0733,4.07,4.0713,4.0765,4.0733,4.0733,4.081,4.0848,4.0861,4.0892,4.0924,4.0996,4.1016,4.0996,4.1011,4.101,4.0914,4.013,3.8517,3.7298,3.6523,3.6159,3.601,3.601,3.601,3.601,3.601,3.601,3.601,3.601,3.601,3.601,3.601,3.601,3.6007,3.6004,3.6013,3.5981,3.5953,3.5904,3.5894,3.5889,3.5889,3.5889,3.5889,3.5889,3.5883,3.5846,3.5807,3.5699,3.5615,3.5604,3.5546,3.5416,3.5251,3.5152,3.4876,3.4128,3.3368,3.2498,3.1591,3.089,3.0227,2.9952,2.9771,2.9641,2.9563,2.9363,2.9169,2.9016,2.885,2.8743,2.8637,2.8612,2.8612,2.8637,2.8656,2.8662,2.8712,2.8743,2.8767,2.8791,2.8839,2.8905,2.8929,2.8952,2.8975,2.8975,2.8975,2.8975,4.5105,4.5143,4.478,4.4639,4.462,4.4639,4.4388,4.3949,4.3529,4.3109,4.2535,4.173,4.1349,4.1316,4.0853,4.0621,4.0621,4.0621,4.0588,4.0588,4.0588,4.0588,4.0612,4.066,4.07,4.066,4.0631,4.066,4.0687,4.07,4.072,4.0848,4.09,4.0912,4.0927,4.0995,4.1005,4.1034,4.1064,4.1067,4.1082,4.0657,3.966,3.8107,3.6713,3.6015,3.6003,3.6013,3.6013,3.601,3.601,3.601,3.601,3.601,3.601,3.601,3.601,3.601,3.601,3.6007,3.6004,3.6017,3.5986,3.5934,3.5904,3.5894,3.5889,3.5889,3.5889,3.5889,3.5889,3.5833,3.583,3.5771,3.5629,3.5495,3.5451,3.5402,3.5315,3.5138,3.5089,3.4562,3.3808,3.288,3.2084,3.1383,3.0608,2.9983,2.9933,2.9771,2.957,2.9419,2.9172,2.8984,2.8827,2.8725,2.8644,2.8612,2.8612,2.8637,2.8662,2.8687,2.8712,2.8761,2.8767,2.8815,2.8839,2.8905,2.8929,2.8952,2.8975,2.8975,2.8975,2.8975,2.8975,4.4283,4.424,4.3554,4.3291,4.3272,4.333,4.3258,4.2969,4.2323,4.2039,4.1672,4.091,4.0761,4.0693,4.0646,4.0607,4.064,4.0607,4.0579,4.0559,4.0559,4.0579,4.0593,4.0621,4.0621,4.0534,4.0559,4.0588,4.0662,4.0642,4.0757,4.0885,4.092,4.0955,4.0988,4.1031,4.1042,4.107,4.1093,4.1111,4.0982,4.0371,3.9121,3.7578,3.6543,3.6032,3.6003,3.6016,3.601,3.601,3.601,3.601,3.601,3.601,3.601,3.601,3.601,3.601,3.601,3.6007,3.602,3.6017,3.5966,3.5929,3.5919,3.5894,3.5894,3.5883,3.5878,3.5846,3.5866,3.5768,3.5698,3.5649,3.5507,3.5383,3.532,3.5261,3.5212,3.5141,3.4961,3.4509,3.3656,3.2728,3.197,3.1193,3.0419,2.9891,2.9823,2.97,2.9494,2.9237,2.8997,2.8845,2.87,2.8676,2.8612,2.8612,2.8612,2.8637,2.8687,2.8712,2.8737,2.8761,2.8791,2.8839,2.8905,2.8929,2.8952,2.8975,2.8975,2.8975,2.8975,2.8975,2.8975,4.3339,4.3335,4.3245,4.3221,4.3202,4.3202,4.2739,4.2198,4.1933,4.1489,4.0872,4.0675,4.0603,4.0622,4.0554,4.0519,4.0534,4.0534,4.0519,4.0534,4.0534,4.0549,4.0579,4.0655,4.0649,4.0662,4.0674,4.0711,4.0765,4.081,4.0849,4.0917,4.0952,4.1007,4.1073,4.1133,4.1152,4.1133,4.1152,4.1172,4.0996,4.0176,3.8926,3.7324,3.6367,3.6071,3.6021,3.6013,3.601,3.601,3.601,3.601,3.601,3.601,3.601,3.601,3.601,3.601,3.601,3.601,3.601,3.5988,3.5978,3.5986,3.5977,3.5904,3.5869,3.5846,3.5794,3.5737,3.5737,3.566,3.5609,3.5566,3.5483,3.5359,3.5283,3.5159,3.4971,3.4729,3.4622,3.4282,3.3182,3.2272,3.1625,3.0907,3.0265,2.9841,2.9735,2.9532,2.9295,2.9067,2.8805,2.8713,2.8612,2.8637,2.8612,2.8637,2.8637,2.8637,2.8687,2.8737,2.8785,2.8785,2.8834,2.8905,2.8929,2.8952,2.8975,2.8975,2.8975,2.8975,2.8975,2.8975,2.8975,4.2476,4.2453,4.2035,4.1856,4.1842,4.1846,4.1615,4.1282,4.1224,4.0993,4.0703,4.0593,4.0579,4.0598,4.0573,4.0519,4.0504,4.0489,4.0489,4.0504,4.0579,4.0602,4.0615,4.0711,4.0738,4.077,4.0811,4.0849,4.0859,4.0867,4.0921,4.0964,4.0987,4.1019,4.1081,4.1113,4.1172,4.1191,4.1191,4.1172,4.1016,3.9941,3.8359,3.6973,3.6289,3.6035,3.6012,3.6005,3.6003,3.6021,3.6016,3.6013,3.601,3.601,3.601,3.601,3.601,3.601,3.601,3.601,3.601,3.601,3.6004,3.602,3.5986,3.5904,3.582,3.5745,3.5715,3.566,3.566,3.5546,3.5507,3.5451,3.5378,3.5134,3.4802,3.4633,3.4323,3.4065,3.3973,3.3424,3.2286,3.1545,3.1127,3.0598,3.0073,2.9823,2.9644,2.9431,2.9193,2.9023,2.8805,2.8737,2.8687,2.8662,2.8662,2.8662,2.8681,2.8681,2.8687,2.8761,2.8804,2.8804,2.8876,2.8929,2.8952,2.8994,2.8975,2.8975,2.8975,2.8975,2.8975,2.8975,2.8975,4.1613,4.157,4.0882,4.0588,4.0593,4.0583,4.0603,4.0593,4.0612,4.0598,4.0574,4.0593,4.0579,4.0593,4.0598,4.0603,4.0558,4.0569,4.0568,4.0596,4.0674,4.0711,4.0726,4.0801,4.0857,4.0874,4.0935,4.1,4.0945,4.094,4.0981,4.1006,4.1008,4.1019,4.1087,4.1131,4.1152,4.1191,4.1191,4.1133,4.0371,3.9141,3.7637,3.6191,3.6016,3.6016,3.6016,3.6014,3.6009,3.6003,3.6016,3.601,3.601,3.601,3.601,3.601,3.601,3.601,3.601,3.601,3.5991,3.5971,3.5978,3.5974,3.5909,3.5795,3.5721,3.5601,3.5557,3.5554,3.5543,3.5432,3.5364,3.5355,3.5228,3.4942,3.4366,3.3933,3.3478,3.3312,3.328,3.2692,3.167,3.1388,3.1048,3.0503,2.9978,2.9753,2.957,2.9363,2.9177,2.8989,2.887,2.8803,2.8785,2.8779,2.8779,2.8755,2.8755,2.8755,2.8761,2.881,2.881,2.8852,2.8923,2.8975,2.8994,2.8994,2.8994,2.8975,2.8975,2.8975,2.8975,2.8975,2.8975,4.0658,4.0658,4.0577,4.0485,4.0539,4.0523,4.0504,4.0504,4.0519,4.0504,4.0519,4.0519,4.0519,4.0564,4.0642,4.0679,4.0698,4.0706,4.0712,4.0732,4.0772,4.0791,4.081,4.0926,4.0954,4.0968,4.1057,4.1033,4.1011,4.1033,4.1074,4.1078,4.1078,4.1091,4.1101,4.1131,4.1191,4.1191,4.1172,4.0449,3.9082,3.8027,3.7031,3.6309,3.6016,3.6016,3.6016,3.6016,3.6013,3.6021,3.6016,3.601,3.601,3.601,3.601,3.601,3.601,3.601,3.6007,3.6007,3.5971,3.5907,3.5903,3.5839,3.5767,3.5685,3.5621,3.5599,3.5495,3.5432,3.5424,3.533,3.5254,3.5181,3.5089,3.4655,3.4082,3.3242,3.2787,3.2157,3.1993,3.1828,3.1245,3.1172,3.1023,3.0443,2.9945,2.9717,2.9474,2.9255,2.9107,2.897,2.8911,2.8868,2.8858,2.8834,2.8852,2.8852,2.8852,2.8852,2.8852,2.8858,2.8881,2.8923,2.8975,2.8975,2.897,2.8994,2.8975,2.8975,2.8975,2.8975,2.8975,2.8975,2.8975,4.0489,4.0489,4.0489,4.0489,4.0489,4.0489,4.0489,4.0489,4.0489,4.0489,4.0489,4.0489,4.0534,4.0615,4.0723,4.0757,4.0773,4.0791,4.0801,4.0838,4.087,4.0906,4.0921,4.0992,4.1042,4.1061,4.1078,4.1081,4.1055,4.1078,4.1108,4.1108,4.1108,4.1091,4.1114,4.1128,4.1152,4.1016,4.0605,3.9551,3.8242,3.7461,3.6875,3.6074,3.6016,3.6016,3.6016,3.6016,3.6016,3.601,3.6009,3.6003,3.5999,3.5968,3.5951,3.5938,3.5899,3.5899,3.5934,3.5938,3.5892,3.5834,3.5772,3.5737,3.566,3.559,3.5531,3.5496,3.5397,3.5355,3.5345,3.5308,3.5242,3.513,3.4748,3.4025,3.3414,3.2745,3.2038,3.135,3.0796,3.0829,3.0871,3.0776,3.062,3.026,2.9857,2.9644,2.9375,2.9122,2.8997,2.89,2.8915,2.8934,2.8952,2.8929,2.8929,2.8923,2.8929,2.8923,2.8923,2.8947,2.8947,2.897,2.8975,2.8994,2.897,2.897,2.8975,2.8975,2.8975,2.8975,2.8975,2.8975,2.8975,4.0457,4.0476,4.0508,4.0489,4.0489,4.0489,4.0489,4.0489,4.0489,4.0489,4.0489,4.0504,4.0559,4.0687,4.077,4.0811,4.0869,4.0874,4.089,4.0911,4.0969,4.1,4.1,4.1037,4.1051,4.1074,4.1094,4.1097,4.1101,4.1104,4.1108,4.1108,4.1108,4.1111,4.1116,4.1082,4.1029,4.0625,3.9648,3.8555,3.7539,3.707,3.6601,3.6211,3.6016,3.6016,3.6016,3.6016,3.6016,3.6015,3.5981,3.5968,3.5968,3.5914,3.5878,3.5866,3.5846,3.582,3.5833,3.582,3.5772,3.5722,3.5663,3.562,3.5562,3.5507,3.5457,3.5393,3.5345,3.532,3.527,3.5155,3.4871,3.455,3.4152,3.3349,3.2607,3.2106,3.1518,3.0887,3.0466,3.0376,3.0381,3.0319,3.017,2.9959,2.9751,2.957,2.9312,2.9017,2.897,2.8929,2.8929,2.8975,2.8975,2.8975,2.8975,2.8975,2.8975,2.8975,2.8994,2.8994,2.8975,2.8975,2.8975,2.8975,2.8994,2.8975,2.8975,2.8975,2.8975,2.8975,2.8975,2.8975,2.8975,4.0415,4.0413,4.0476,4.0489,4.0489,4.0489,4.0489,4.0508,4.0489,4.0489,4.0504,4.0519,4.0588,4.0699,4.0791,4.0887,4.0965,4.1061,4.1047,4.1037,4.1075,4.105,4.1025,4.1006,4.1006,4.1031,4.1067,4.1096,4.11,4.1094,4.1101,4.1108,4.1108,4.1108,4.1052,4.0957,4.0396,3.972,3.8531,3.7732,3.707,3.6621,3.6133,3.6094,3.6016,3.6016,3.6016,3.5996,3.5976,3.5974,3.5938,3.5899,3.5896,3.5846,3.5807,3.5807,3.5776,3.576,3.5724,3.5713,3.5671,3.5609,3.556,3.5534,3.5476,3.5422,3.5379,3.5364,3.5364,3.5239,3.5047,3.474,3.4419,3.3906,3.3412,3.2742,3.2096,3.1656,3.1101,3.0456,3.0213,3.0232,3.0199,3.0213,3.0034,2.9836,2.957,2.9355,2.9228,2.8994,2.8994,2.8975,2.8975,2.8975,2.8975,2.8975,2.8975,2.8975,2.8975,2.8975,2.8975,2.8975,2.8975,2.8975,2.8975,2.8975,2.8975,2.8975,2.8975,2.8975,2.8975,2.8975,2.8975,2.8975,2.8975,4.0398,4.0415,4.043,4.0447,4.0447,4.0427,4.0447,4.0447,4.0447,4.0495,4.0554,4.0602,4.0706,4.0819,4.0894,4.0942,4.0992,4.1011,4.1031,4.1045,4.1019,4.1019,4.0994,4.0987,4.0994,4.0994,4.1025,4.1031,4.1031,4.1047,4.1076,4.1085,4.1023,4.1108,4.103,4.0464,3.9571,3.8539,3.7682,3.7118,3.6456,3.6266,3.6013,3.6013,3.6013,3.5974,3.5937,3.5918,3.5898,3.5888,3.5853,3.584,3.5833,3.5786,3.5757,3.5757,3.5718,3.5669,3.5669,3.5669,3.5641,3.5557,3.5509,3.5493,3.546,3.546,3.546,3.5427,3.5355,3.5168,3.4534,3.4251,3.3964,3.3316,3.2651,3.1999,3.1583,3.118,3.0879,3.0343,3.0266,3.0253,3.024,3.0207,2.9981,2.9732,2.9436,2.9185,2.9071,2.8975,2.8975,2.8975,2.8975,2.8975,2.8975,2.8975,2.8975,2.8975,2.8975,2.8975,2.8975,2.8975,2.8975,2.8975,2.8975,2.8975,2.8975,2.8975,2.8975,2.8975,2.8975,2.8975,2.8975,2.8975,2.8975,4.0363,4.0382,4.0363,4.0381,4.0398,4.0398,4.0398,4.0398,4.0415,4.0482,4.0603,4.0668,4.0787,4.0888,4.0949,4.0974,4.0978,4.0992,4.0981,4.0993,4.0986,4.0986,4.0979,4.0972,4.0953,4.096,4.0993,4.0993,4.0993,4.0987,4.0811,4.0716,4.0695,4.0664,4.0424,3.9605,3.8473,3.7575,3.695,3.6716,3.6052,3.6021,3.6007,3.6009,3.6013,3.5995,3.5942,3.5929,3.5924,3.5885,3.5852,3.5807,3.5786,3.5764,3.5704,3.5704,3.5673,3.5631,3.5654,3.5604,3.5596,3.5514,3.5509,3.5488,3.5507,3.5507,3.5474,3.5455,3.5282,3.482,3.4005,3.364,3.3121,3.2397,3.1712,3.1117,3.1028,3.0759,3.0574,3.0286,3.0292,3.0279,3.0221,3.0174,2.9946,2.968,2.9353,2.9138,2.9044,2.8975,2.8975,2.8975,2.8975,2.8975,2.8975,2.9017,2.9017,2.8975,2.8975,2.8975,2.8975,2.8998,2.8998,2.8975,2.8975,2.8975,2.8975,2.8975,2.8975,2.8975,2.8998,2.8998,2.8975,2.8975,2.8975,4.031,4.0329,4.031,4.0346,4.0398,4.0398,4.0398,4.0415,4.0413,4.0479,4.0603,4.0675,4.0784,4.0869,4.0906,4.0937,4.0981,4.0981,4.0991,4.0963,4.0952,4.0943,4.0935,4.0897,4.0887,4.0926,4.0932,4.0949,4.0859,4.0765,4.0474,3.9928,3.9686,3.9609,3.9621,3.8219,3.7399,3.7184,3.644,3.6147,3.6033,3.6016,3.6016,3.6007,3.6015,3.5993,3.5968,3.5947,3.5937,3.59,3.5826,3.5793,3.5785,3.5756,3.5725,3.5695,3.5715,3.5684,3.5704,3.5577,3.5514,3.5502,3.5522,3.552,3.5507,3.5449,3.5315,3.5141,3.4661,3.4237,3.3583,3.2872,3.2225,3.1571,3.0905,3.0624,3.0585,3.0554,3.04,3.0343,3.0318,3.0279,3.0221,3.0133,2.9915,2.9607,2.9249,2.9089,2.9044,2.9017,2.9035,2.8998,2.8998,2.9017,2.9017,2.9017,2.9017,2.9017,2.8998,2.8998,2.8998,2.8998,2.8998,2.8998,2.9021,2.9062,2.9021,2.8975,2.8998,2.8998,2.9017,2.9017,2.8998,2.8998,2.8998,4.0329,4.0329,4.0329,4.0345,4.0394,4.0345,4.0363,4.0411,4.0457,4.0534,4.064,4.0688,4.0773,4.0858,4.0898,4.0906,4.0932,4.0935,4.0927,4.0868,4.0878,4.0849,4.0839,4.0839,4.08,4.0849,4.0849,4.0499,4.0014,4.0107,3.9634,3.9033,3.8429,3.8093,3.7979,3.7324,3.7054,3.6498,3.6127,3.601,3.601,3.6013,3.6021,3.601,3.6015,3.5991,3.5949,3.5942,3.5924,3.5893,3.581,3.5801,3.5801,3.5766,3.5747,3.5728,3.5698,3.5697,3.5676,3.5612,3.557,3.5538,3.5553,3.5528,3.5501,3.4918,3.4732,3.4449,3.3814,3.3256,3.2391,3.216,3.1641,3.0975,3.0494,3.0475,3.0444,3.0424,3.0386,3.0367,3.0374,3.0343,3.0286,3.0202,3.0007,2.9832,2.9533,2.9291,2.9206,2.9126,2.9095,2.904,2.9044,2.904,2.904,2.9062,2.9085,2.9085,2.9044,2.9044,2.9044,2.9044,2.9044,2.9067,2.9089,2.9152,2.9089,2.9067,2.9021,2.9021,2.9062,2.9062,2.9062,2.9044,2.9044,4.0272,4.0253,4.0345,4.0377,4.0425,4.0381,4.0379,4.0454,4.0559,4.0648,4.072,4.075,4.0807,4.0877,4.0898,4.0888,4.0859,4.0868,4.0846,4.0804,4.0807,4.0807,4.0818,4.071,4.0565,4.0527,4.0313,4.0004,3.919,3.9199,3.8732,3.7969,3.717,3.6904,3.6752,3.6631,3.6489,3.6087,3.5955,3.5968,3.5977,3.5984,3.601,3.5996,3.5974,3.5945,3.5916,3.5885,3.5883,3.5852,3.583,3.5842,3.5815,3.5791,3.5765,3.5718,3.5708,3.5707,3.5684,3.5229,3.5121,3.5102,3.5415,3.5399,3.5149,3.4603,3.4128,3.3679,3.2954,3.2384,3.1819,3.1614,3.1083,3.0448,3.041,3.041,3.0398,3.0398,3.0398,3.0398,3.0398,3.0367,3.0336,3.0235,3.0122,2.9973,2.9832,2.9607,2.9395,2.9307,2.9237,2.92,2.9166,2.9188,2.9181,2.9152,2.9152,2.9152,2.9112,2.9089,2.9112,2.9112,2.9112,2.9134,2.9156,2.9178,2.9178,2.9156,2.9134,2.9134,2.9152,2.9152,2.913,2.9112,2.9115,4.0177,4.0195,4.0389,4.0473,4.0473,4.0427,4.0457,4.0526,4.072,4.0808,4.08,4.0848,4.0868,4.0897,4.0897,4.0859,4.083,4.0809,4.0688,4.0653,4.0521,4.0552,4.0466,4.0389,3.9951,3.9702,3.9469,3.914,3.8364,3.8025,3.7618,3.7093,3.6401,3.6141,3.608,3.608,3.6025,3.5943,3.5912,3.5926,3.5918,3.5992,3.6015,3.5993,3.5962,3.5929,3.5903,3.5885,3.5894,3.5872,3.5879,3.5892,3.5845,3.5771,3.5736,3.5708,3.5718,3.5542,3.5396,3.4805,3.4427,3.4417,3.4925,3.4828,3.4453,3.3956,3.3419,3.2848,3.2181,3.1881,3.1534,3.1068,3.0595,3.041,3.039,3.039,3.0398,3.0398,3.0398,3.0398,3.0398,3.0379,3.0379,3.0311,3.0235,3.0182,3.0052,2.9992,2.9801,2.9608,2.9532,2.9436,2.9399,2.9359,2.9318,2.9312,2.9351,2.9373,2.9222,2.9178,2.92,2.92,2.9197,2.92,2.92,2.9225,2.9256,2.9275,2.9267,2.9267,2.9351,2.931,2.9291,2.9267,2.9249,3.9832,3.9876,4.0062,4.0194,4.0298,4.0511,4.0621,4.0588,4.0732,4.0808,4.0815,4.0831,4.0796,4.0823,4.0826,4.0779,4.0759,4.0718,4.0316,4.0111,3.9847,3.946,3.9209,3.9093,3.8822,3.8717,3.8535,3.8227,3.7413,3.6929,3.6542,3.6047,3.5939,3.584,3.5818,3.5823,3.5866,3.5889,3.5884,3.589,3.5906,3.5974,3.5995,3.5982,3.5974,3.5958,3.5914,3.5885,3.5889,3.5889,3.5883,3.5897,3.5872,3.5859,3.584,3.5764,3.5344,3.4816,3.471,3.4042,3.3539,3.347,3.3729,3.371,3.3372,3.2965,3.2488,3.1984,3.1491,3.1182,3.1067,3.0717,3.0455,3.0425,3.0414,3.0402,3.0402,3.0421,3.0421,3.039,3.039,3.0421,3.041,3.039,3.0336,3.0323,3.0286,3.0228,3.0128,2.995,2.9803,2.9695,2.9623,2.9605,2.957,2.9551,2.957,2.957,2.9454,2.9332,2.9355,2.9353,2.9307,2.9326,2.937,2.9398,2.9401,2.942,2.9455,2.9551,2.9607,2.9533,2.9474,2.9455,2.9455,3.9441,3.9778,3.9681,3.9733,3.9845,3.9739,3.9644,3.9727,4.0391,4.0745,4.0784,4.0757,4.0583,4.0222,4.0176,4.0014,3.9627,3.9533,3.9296,3.9083,3.8948,3.8684,3.8317,3.8098,3.802,3.7878,3.7611,3.7323,3.6568,3.6124,3.5747,3.5766,3.5757,3.5766,3.5775,3.5773,3.5799,3.5827,3.5866,3.5893,3.5912,3.5957,3.5987,3.601,3.6004,3.5966,3.5929,3.5904,3.588,3.5875,3.5894,3.5889,3.5766,3.5624,3.5016,3.48,3.4342,3.4015,3.3852,3.3203,3.2829,3.2578,3.2386,3.2134,3.2184,3.1971,3.1661,3.1283,3.0848,3.0519,3.0509,3.049,3.0469,3.0458,3.0447,3.0425,3.0425,3.0433,3.0414,3.0414,3.0414,3.0414,3.0414,3.0433,3.0444,3.0414,3.0414,3.0371,3.0323,3.0202,3.0056,2.9908,2.9877,2.9845,2.9815,2.9784,2.9767,2.9767,2.9697,2.9607,2.957,2.957,2.957,2.957,2.9589,2.9607,2.9621,2.9658,2.9697,2.9784,2.9851,2.9801,2.975,2.9715,2.9732,3.8801,3.9578,3.9162,3.9026,3.9133,3.851,3.8202,3.8254,3.9702,4.0449,4.0372,4.043,3.9915,3.938,3.9303,3.8974,3.8704,3.8524,3.8395,3.8022,3.8029,3.7836,3.7681,3.7868,3.7243,3.6926,3.6737,3.6547,3.5985,3.5706,3.5707,3.5707,3.5708,3.5718,3.5728,3.5718,3.5754,3.5811,3.5875,3.591,3.5937,3.5971,3.6013,3.6013,3.6009,3.6005,3.5962,3.5899,3.5812,3.5788,3.5627,3.5543,3.524,3.4917,3.4108,3.3621,3.3354,3.3179,3.2927,3.2349,3.2011,3.1642,3.1202,3.1091,3.1196,3.1359,3.1149,3.0965,3.0608,3.054,3.054,3.053,3.05,3.049,3.0469,3.0458,3.0447,3.0447,3.0447,3.0447,3.0447,3.0447,3.0466,3.0466,3.0447,3.0488,3.0458,3.0447,3.0436,3.0359,3.0267,3.0122,3.0109,3.0066,3.0007,2.9962,2.9965,2.9934,2.9902,2.9867,2.9815,2.9853,2.9891,2.9822,2.9751,2.9822,2.9869,2.9867,2.9896,2.9977,3.0026,3.0041,3.0011,2.9996,2.9992,3.7143,3.7368,3.7565,3.787,3.8216,3.8059,3.7905,3.7982,3.8343,3.8628,3.8711,3.8704,3.8646,3.846,3.8402,3.8151,3.8016,3.7675,3.761,3.7301,3.7109,3.6871,3.6414,3.6523,3.6226,3.6033,3.5902,3.5974,3.5762,3.5715,3.5695,3.5695,3.5707,3.5698,3.5698,3.5689,3.5727,3.5779,3.5717,3.5775,3.5837,3.5932,3.6007,3.5981,3.5958,3.5857,3.5678,3.5284,3.5104,3.4948,3.4281,3.4038,3.3951,3.379,3.3604,3.3282,3.2628,3.2388,3.2123,3.1644,3.1268,3.1112,3.084,3.0769,3.0769,3.0867,3.0836,3.0674,3.0578,3.0598,3.0588,3.0569,3.0559,3.052,3.0491,3.0481,3.0479,3.0479,3.0479,3.0479,3.0479,3.0499,3.0499,3.0499,3.0479,3.0469,3.0428,3.0428,3.0439,3.0417,3.0402,3.0292,3.0311,3.0286,3.0215,3.0142,3.0133,3.0104,3.0056,3.0056,3.0037,3.0026,3.0015,2.9946,2.9877,2.9977,3.0056,3.0047,3.0089,3.0155,3.0202,3.0215,3.026,3.0247,3.0273,3.6274,3.6633,3.6748,3.6995,3.7217,3.6926,3.6753,3.6753,3.6753,3.6761,3.7041,3.7555,3.7819,3.7544,3.7481,3.7211,3.7076,3.6909,3.6587,3.6298,3.624,3.6003,3.5701,3.556,3.5649,3.5572,3.5628,3.5689,3.5693,3.5662,3.5643,3.5673,3.5676,3.5667,3.5657,3.5658,3.566,3.5735,3.5465,3.5332,3.5472,3.5683,3.5662,3.5636,3.5399,3.5298,3.4768,3.4335,3.4238,3.4078,3.3684,3.3208,3.3063,3.2844,3.2586,3.2187,3.1753,3.15,3.1348,3.1109,3.0748,3.0736,3.0736,3.0739,3.07,3.0788,3.0792,3.0653,3.0657,3.0657,3.0657,3.0649,3.0632,3.0615,3.0604,3.0585,3.054,3.052,3.052,3.0481,3.05,3.053,3.053,3.054,3.054,3.054,3.05,3.046,3.0479,3.046,3.0458,3.0436,3.0425,3.0414,3.0328,3.0292,3.0286,3.026,3.0202,3.0215,3.0215,3.0174,3.0147,3.0109,3.0122,3.0163,3.0203,3.0216,3.0248,3.0299,3.0336,3.0371,3.0414,3.0444,3.0425,3.5614,3.6358,3.6135,3.6175,3.6269,3.5634,3.5343,3.5343,3.5324,3.5358,3.5603,3.6915,3.7026,3.6748,3.6512,3.6012,3.5762,3.5935,3.5647,3.5595,3.5575,3.557,3.5578,3.5495,3.5522,3.5547,3.5572,3.5628,3.5681,3.5639,3.5608,3.562,3.5593,3.5585,3.5496,3.543,3.5338,3.4961,3.4652,3.4404,3.4744,3.5195,3.4974,3.471,3.4471,3.41,3.3629,3.3275,3.3269,3.3071,3.2931,3.2455,3.2136,3.1917,3.1616,3.1261,3.1135,3.0979,3.0877,3.0877,3.0774,3.0794,3.0799,3.0779,3.0716,3.072,3.071,3.0717,3.0704,3.071,3.071,3.071,3.0707,3.07,3.0688,3.0668,3.0613,3.0568,3.0521,3.0501,3.053,3.0559,3.0569,3.0569,3.0598,3.0598,3.0588,3.0559,3.055,3.051,3.049,3.0479,3.0449,3.0439,3.0428,3.0406,3.0371,3.0348,3.0304,3.0367,3.0379,3.0311,3.0299,3.0355,3.0359,3.034,3.0359,3.0379,3.0421,3.0414,3.0425,3.0428,3.0449,3.046,3.05,3.4363,3.4525,3.4624,3.4875,3.5116,3.5131,3.516,3.5207,3.5226,3.5242,3.5353,3.548,3.5645,3.5561,3.5561,3.5403,3.5446,3.5374,3.5364,3.535,3.5383,3.5398,3.5412,3.5455,3.5528,3.5554,3.5547,3.554,3.5616,3.5635,3.5584,3.5507,3.5543,3.5245,3.4577,3.4511,3.4337,3.3989,3.368,3.3413,3.3441,3.3723,3.3769,3.3664,3.3632,3.3534,3.3258,3.2695,3.2458,3.2165,3.1811,3.1435,3.1292,3.1207,3.1028,3.0962,3.0793,3.0793,3.0793,3.0789,3.0789,3.0799,3.0804,3.0784,3.0765,3.0765,3.0764,3.0759,3.0767,3.0737,3.073,3.0723,3.071,3.069,3.0678,3.0642,3.0613,3.0586,3.0588,3.0568,3.0588,3.0588,3.0597,3.0597,3.0597,3.0597,3.0568,3.0559,3.0559,3.054,3.053,3.0511,3.0501,3.05,3.0479,3.0469,3.0447,3.0417,3.0406,3.0425,3.0425,3.0406,3.0406,3.0436,3.0466,3.0447,3.0477,3.046,3.0488,3.0479,3.0469,3.049,3.0501,3.0511,3.0549]},{"header":{"parameterUnit":"m.s-1","parameterCategory":1,"la1":31.0,"la2":29.5877,"lo1":-88.7671,"lo2":-86.6584,"dy":0.0162,"dx":0.0185,"nx":115,"ny":88,"refTime":"2024-09-29T18:00:00:Z","depth":0,"parameterNumber":3,"parameterNumberName":"V-component_of_WINDS"},"data":[0.0,0.0,0.0,0.0,0.0,0.0,0.0,0.0,0.0,0.0,0.0,0.0,0.0,0.0,0.0,0.0,0.0,0.0,0.0,0.0,0.0,0.0,0.0,0.0,0.0,0.0,0.0,0.0,0.0,0.0,0.0,0.0,0.0,0.0,0.0,0.0,0.0,0.0,0.0,0.0,0.0,0.0,0.0,0.0,0.0,0.0,0.0,0.0,0.0,0.0,0.0,0.0,0.0,0.0,0.0,0.0,0.0,0.0,0.0,0.0,0.0,0.0,0.0,0.0,0.0,0.0,0.0,0.0,0.0,0.0,0.0,0.0,0.0,0.0,0.0,0.0,0.0,0.0,0.0,0.0,0.0,0.0,0.0,0.0,0.0,0.0,0.0,0.0,0.0,0.0,0.0,0.0,0.0,0.0,0.0,0.0,0.0,0.0,0.0,0.0,0.0,0.0,0.0,0.0,0.0,0.0,0.0,0.0,0.0,0.0,0.0,0.0,0.0,0.0,0.0,0.0,0.0,0.0,0.0,0.0,0.0,0.0,0.0,0.0,0.0,0.0,0.0,0.0,0.0,0.0,0.0,0.0,0.0,0.0,0.0,0.0,0.0,0.0,0.0,0.0,0.0,0.0,0.0,0.0,0.0,0.0,0.0,0.0,0.0,0.0,0.0,0.0,0.0,0.0,0.0,0.0,0.0,0.0,0.0,0.0,0.0,0.0,0.0,0.0,0.0,0.0,0.0,0.0,0.0,0.0,0.0,0.0,0.0,0.0,0.0,0.0,0.0,0.0,0.0,0.0,0.0,0.0,0.0,0.0,0.0,0.0,0.0,0.0,0.0,0.0,0.0,0.0,0.0,0.0,0.0,0.0,0.0,0.0,0.0,0.0,0.0,0.0,0.0,0.0,0.0,0.0,0.0,0.0,0.0,0.0,0.0,0.0,0.0,0.0,0.0,0.0,0.0,0.0,0.0,0.0,0.0,0.0,0.0,0.0,0.0,0.0,0.0,0.0,0.0,0.0,0.0,0.0,0.0,0.0,0.0,0.0,0.0,0.0,0.0,0.0,0.0,0.0,0.0,0.0,0.0,0.0,0.0,0.0,0.0,0.0,0.0,0.0,0.0,0.0,0.0,0.0,0.0,0.0,0.0,0.0,0.0,0.0,0.0,0.0,0.0,0.0,0.0,0.0,0.0,0.0,0.0,0.0,0.0,0.0,0.0,0.0,0.0,0.0,0.0,0.0,0.0,0.0,0.0,0.0,0.0,0.0,0.0,0.0,0.0,0.0,0.0,0.0,0.0,0.0,0.0,0.0,0.0,0.0,0.0,0.0,0.0,0.0,0.0,0.0,0.0,0.0,0.0,0.0,0.0,0.0,0.0,0.0,0.0,0.0,0.0,0.0,0.0,0.0,0.0,0.0,0.0,0.0,0.0,0.0,0.0,0.0,0.0,0.0,0.0,0.0,0.0,0.0,0.0,0.0,0.0,0.0,0.0,0.0,0.0,0.0,0.0,0.0,0.0,0.0,0.0,0.0,0.0,0.0,0.0,0.0,0.0,0.0,0.0,0.0,0.0,0.0,0.0,0.0,0.0,0.0,0.0,0.0,0.0,0.0,0.0,0.0,0.0,0.0,0.0,0.0,0.0,0.0,0.0,0.0,0.0,0.0,0.0,0.0,0.0,0.0,0.0,0.0,0.0,0.0,0.0,0.0,0.0,0.0,0.0,0.0,0.0,0.0,0.0,0.0,0.0,0.0,0.0,0.0,0.0,0.0,0.0,0.0,0.0,0.0,0.0,0.0,0.0,0.0,0.0,0.0,0.0,0.0,0.0,0.0,0.0,0.0,0.0,0.0,0.0,0.0,0.0,0.0,0.0,0.0,0.0,0.0,0.0,0.0,0.0,0.0,0.0,0.0,0.0,0.0,0.0,0.0,0.0,0.0,0.0,0.0,0.0,0.0,0.0,0.0,0.0,0.0,0.0,0.0,0.0,0.0,0.0,0.0,0.0,0.0,0.0,0.0,0.0,0.0,0.0,0.0,0.0,0.0,0.0,0.0,0.0,0.0,0.0,0.0,0.0,0.0,0.0,0.0,0.0,0.0,0.0,0.0,0.0,0.0,0.0,0.0,0.0,0.0,0.0,0.0,0.0,0.0,0.0,0.0,0.0,0.0,0.0,0.0,0.0,0.0,0.0,0.0,0.0,0.0,0.0,0.0,0.0,0.0,0.0,0.0,0.0,0.0,0.0,0.0,0.0,0.0,0.0,0.0,0.0,0.0,0.0,0.0,0.0,0.0,0.0,0.0,0.0,0.0,0.0,0.0,0.0,0.0,0.0,0.0,0.0,0.0,0.0,0.0,0.0,0.0,0.0,0.0,0.0,0.0,0.0,0.0,0.0,0.0,0.0,0.0,0.0,0.0,0.0,0.0,0.0,0.0,0.0,0.0,0.0,0.0,0.0,0.0,0.0,0.0,0.0,0.0,0.0,0.0,0.0,0.0,0.0,0.0,0.0,0.0,0.0,0.0,0.0,0.0,0.0,0.0,0.0,0.0,0.0,0.0,0.0,0.0,0.0,0.0,0.0,0.0,0.0,0.0,0.0,0.0,0.0,0.0,0.0,0.0,0.0,0.0,0.0,0.0,0.0,0.0,0.0,0.0,0.0,0.0,0.0,0.0,0.0,0.0,0.0,0.0,0.0,0.0,0.0,0.0,0.0,0.0,0.0,0.0,0.0,0.0,0.0,0.0,0.0,0.0,0.0,0.0,0.0,0.0,0.0,0.0,0.0,0.0,0.0,0.0,0.0,0.0,0.0,0.0,0.0,0.0,0.0,0.0,0.0,0.0,0.0,0.0,0.0,0.0,0.0,0.0,0.0,0.0,0.0,0.0,0.0,0.0,0.0,0.0,0.0,0.0,0.0,0.0,0.0,0.0,0.0,0.0,0.0,0.0,0.0,0.0,0.0,0.0,0.0,0.0,0.0,0.0,0.0,0.0,0.0,0.0,0.0,0.0,0.0,0.0,0.0,0.0,0.0,0.0,0.0,0.0,0.0,0.0,0.0,0.0,0.0,0.0,0.0,0.0,0.0,0.0,0.0,0.0,0.0,0.0,0.0,0.0,0.0,0.0,0.0,0.0,0.0,0.0,0.0,0.0,0.0,0.0,0.0,0.0,0.0,0.0,0.0,0.0,0.0,0.0,0.0,0.0,0.0,0.0,0.0,0.0,0.0,0.0,0.0,0.0,0.0,0.0,0.0,0.0,0.0,0.0,0.0,0.0,0.0,0.0,0.0,0.0,0.0,0.0,0.0,0.0,0.0,0.0,0.0,0.0,0.0,0.0,0.0,0.0,0.0,0.0,0.0,0.0,0.0,0.0,0.0,0.0,0.0,0.0,0.0,0.0,0.0,0.0,0.0,0.0,0.0,0.0,0.0,0.0,0.0,0.0,0.0,0.0,0.0,0.0,0.0,0.0,0.0,0.0,0.0,0.0,0.0,0.0,0.0,0.0,0.0,0.0,0.0,0.0,0.0,0.0,0.0,0.0,0.0,0.0,0.0,0.0,0.0,0.0,0.0,0.0,0.0,0.0,0.0,0.0,0.0,0.0,0.0,0.0,0.0,0.0,0.0,0.0,0.0,0.0,0.0,0.0,0.0,0.0,0.0,0.0,0.0,0.0,0.0,0.0,0.0,0.0,0.0,0.0,0.0,0.0,0.0,0.0,0.0,0.0,0.0,0.0,0.0,0.0,0.0,0.0,0.0,0.0,0.0,0.0,0.0,0.0,0.0,0.0,0.0,0.0,0.0,0.0,0.0,0.0,0.0,0.0,0.0,0.0,0.0,0.0,0.0,0.0,0.0,0.0,0.0,0.0,0.0,0.0,0.0,0.0,0.0,0.0,0.0,0.0,0.0,0.0,0.0,0.0,0.0,0.0,0.0,0.0,0.0,0.0,0.0,0.0,0.0,0.0,0.0,0.0,0.0,0.0,0.0,0.0,0.0,0.0,0.0,0.0,0.0,0.0,0.0,0.0,0.0,0.0,0.0,0.0,0.0,0.0,0.0,0.0,0.0,0.0,0.0,0.0,0.0,0.0,0.0,0.0,0.0,0.0,0.0,0.0,0.0,0.0,0.0,0.0,0.0,0.0,0.0,0.0,0.0,0.0,0.0,0.0,0.0,0.0,0.0,0.0,0.0,0.0,0.0,0.0,0.0,0.0,0.0,0.0,0.0,0.0,0.0,0.0,0.0,0.0,0.0,0.0,0.0,0.0,0.0,0.0,0.3714,0.0,0.0,0.0,0.0,0.0,0.0,0.0,0.0,0.0,0.0,0.0,0.0,0.0,0.0,0.0,0.0,0.0,0.0,0.0,0.0,0.0,0.0,0.0,0.0,0.0,0.0,0.0,0.0,0.0,0.0,0.0,0.0,0.0,0.0,0.0,0.0,0.0,0.0,0.0,0.0,0.0,0.0,0.0,0.0,0.0,0.0,0.0,0.0,0.0,0.0,0.0,0.0,0.0,0.0,0.0,0.0,0.0,0.0,0.0,0.0,0.0,0.0,0.0,0.0,0.0,0.0,0.0,0.0,0.0,0.0,0.0,0.0,0.0,0.0,0.0,0.0,0.0,0.0,0.0,0.0,0.0,0.0,0.0,0.0,0.0,0.0,0.0,0.0,0.0,0.0,0.0,0.0,0.0,0.0,0.0,0.0,0.0,0.0,0.0,0.0,0.0,0.0,0.0,0.0,0.0,0.0,0.0,0.0,0.0,0.0,0.5394,0.5394,0.4679,0.424,0.4085,0.0,0.0,0.0,0.0,0.0,0.0,0.0,0.0,0.0,0.0,0.0,0.0,0.0,0.0,0.0,0.0,0.0,0.0,0.0,0.0,0.0,0.0,0.0,0.0,0.0,0.0,0.0,0.0,0.0,0.0,0.0,0.0,0.0,0.0,0.0,0.0,0.0,0.0,0.0,0.0,0.0,0.0,0.0,0.0,0.0,0.0,0.0,0.0,0.0,0.0,0.0,0.0,0.0,0.0,0.0,0.0,0.0,0.0,0.0,0.0,0.0,0.0,0.0,0.0,0.0,0.0,0.0,0.0,0.0,0.0,0.0,0.0,0.0,0.0,0.0,0.0,0.0,0.0,0.0,0.0,0.0,0.0,0.0,0.0,0.0,0.0,0.0,0.0,0.0,0.0,0.0,0.0,0.0,0.0,0.0,0.0,0.0,0.0,0.0,0.0,0.0,0.0,0.0,0.0,0.0,0.0,0.0,0.0,0.0,0.0,0.0,0.0,0.4971,0.4517,0.432,0.0,0.0,0.0,0.0,0.0,0.0,0.0,0.0,0.0,0.0,0.0,0.0,0.0,0.0,0.0,0.0,0.0,0.0,0.0,0.0,0.0,0.0,0.0,0.0,0.0,0.0,0.0,0.0,0.0,0.0,0.0,0.0,0.0,0.0,0.0,0.0,0.0,0.0,0.0,0.0,0.0,0.0,0.0,0.0,0.0,0.0,0.0,0.0,0.0,0.0,0.0,0.0,0.0,0.0,0.0,0.0,0.0,0.0,0.0,0.0,0.0,0.0,0.0,0.0,0.0,0.0,0.0,0.0,0.0,0.0,0.0,0.0,0.0,0.0,0.0,0.0,0.0,0.0,0.0,0.0,0.0,0.0,0.0,0.0,0.0,0.0,0.0,0.0,0.0,0.0,0.0,0.0,0.0,0.0,0.0,0.0,0.0,0.0,0.0,0.0,0.0,0.0,0.0,0.0,0.0,0.0,0.0,0.0,0.0,0.0,0.5536,0.525,0.4884,0.0,0.4287,0.0,0.0,0.0,0.0,0.0,0.0,0.0,0.0,0.0,0.0,0.0,0.0,0.0,0.0,0.0,0.0,0.0,0.0,0.0,0.0,0.0,0.0,0.0,0.0,0.0,0.0,0.0,0.0,0.0,0.0,0.0,0.0,0.0,0.0,0.0,0.0,0.0,0.0,0.0,0.0,0.0,0.0,0.0,0.0,0.0,0.0,0.0,0.0,0.0,0.0,0.0,0.0,0.0,0.0,0.0,0.0,0.0,0.0,0.0,0.0,0.0,0.0,0.0,0.0,0.0,0.0,0.0,0.0,0.0,0.0,0.0,0.0,0.0,0.0,0.0,0.0,0.0,0.0,0.0,0.0,0.0,0.0,0.0,0.0,0.0,0.0,0.0,0.0,0.0,0.0,0.0,0.0,0.0,0.0,0.0,0.0,0.0,0.0,0.0,0.0,0.0,0.0,0.0,0.0,0.0,0.0,0.0,0.0,0.0,0.0,0.6498,0.6365,0.5723,0.5179,0.0,0.0,0.0,0.0,0.0,0.0,0.0,0.0,0.0,0.0,0.0,0.0,0.0,0.0,0.0,0.0,0.0,0.0,0.0,0.0,0.0,0.0,0.0,0.0,0.0,0.0,0.0,0.0,0.0,0.0,0.0,0.0,0.0,0.0,0.0,0.0,0.0,0.0,0.0,0.0,0.0,0.0,0.0,0.0,0.0,0.0,0.0,0.0,0.0,0.0,0.0,0.0,0.0,0.0,0.0,0.0,0.0,0.0,0.0,0.0,0.0,0.0,0.0,0.0,0.0,0.0,0.0,0.0,0.0,0.0,0.0,0.0,0.0,0.0,0.0,0.0,0.0,0.0,0.0,0.0,0.0,0.0,0.0,0.0,0.0,0.0,0.0,0.0,0.0,0.0,0.0,0.0,0.0,0.0,0.0,0.0,0.0,0.0,0.0,0.0,0.0,0.0,0.0,0.0,0.0,0.0,0.0,0.0,0.0,0.0,0.6742,0.6871,0.6792,0.6137,0.5519,0.4933,0.0,0.0,0.0,0.0,0.0,0.0,0.0,0.0,0.0,0.0,0.0,0.0,0.0,0.0,0.0,0.0,0.0,0.0,0.0,0.0,0.0,0.0,0.0,0.0,0.0,0.0,0.0,0.0,0.0,0.0,0.0,0.0,0.0,0.0,0.0,0.0,0.0,0.0,0.0,0.0,0.0,0.0,0.0,0.0,0.0,0.0,0.0,0.0,0.0,0.0,0.0,0.0,0.0,0.0,0.0,0.0,0.0,0.0,0.0,0.0,0.0,0.0,0.0,0.0,0.0,0.0,0.0,0.0,0.0,0.0,0.0,0.0,0.0,0.0,0.0,0.0,0.0,0.0,0.0,0.0,0.0,0.0,0.0,0.0,0.0,0.0,0.0,0.0,0.0,0.0,0.0,0.0,0.0,0.0,0.0,0.0,0.0,0.0,0.0,0.0,0.0,0.0,0.0,0.0,0.0,0.0,0.0,0.0,0.0,0.6345,0.6065,0.5929,0.5812,0.5385,0.0,0.0,0.0,0.0,0.0,0.0,0.0,0.0,0.0,0.0,0.0,0.0,0.0,0.0,0.0,0.0,0.0,0.0,0.0,0.0,0.0,0.0,0.0,0.0,0.0,0.0,0.0,0.0,0.0,0.0,0.0,0.0,0.0,0.0,0.0,0.0,0.0,0.0,0.0,0.0,0.0,0.0,0.0,0.0,0.0,0.0,0.0,0.0,0.0,0.0,0.0,0.0,0.0,0.0,0.0,0.0,0.0,0.0,0.0,0.0,0.0,0.0,0.0,0.0,0.0,0.0,0.0,0.0,0.0,0.0,0.0,0.0,0.0,0.0,0.0,0.0,0.0,0.0,0.0,0.0,0.0,0.0,0.0,0.0,0.0,0.0,0.0,0.0,0.0,0.0,0.0,0.0,0.0,0.0,0.0,0.0,0.0,0.0,0.0,0.0,0.0,0.0,0.0,0.0,0.0,0.0,0.0,0.0,0.0,0.6018,0.594,0.6097,0.6396,0.5673,0.5101,0.0,0.0,0.0,0.0,0.0,0.0,0.0,0.0,0.0,0.0,0.0,0.0,0.0,0.0,0.0,0.0,0.0,0.0,0.0,0.0,0.0,0.0,0.0,0.0,0.0,0.0,0.0,0.0,0.0,0.0,0.0,0.0,0.0,0.0,0.0,0.0,0.0,0.0,0.0,0.0,0.0,0.0,0.0,0.0,0.0,0.0,0.0,0.0,0.0,0.0,0.0,0.0,0.0,0.0,0.0,0.0,0.0,0.0,0.0,0.0,0.0,0.0,0.0,0.0,0.0,0.0,0.0,0.0,0.0,0.0,0.0,0.0,0.0,0.0,0.0,0.0,0.0,0.0,0.0,0.0,0.0,0.0,0.0,0.0,0.0,0.0,0.0,0.0,0.0,0.0,0.0,0.0,0.0,0.0,0.0,0.0,0.0,0.0,0.0,0.0,0.0,0.0,0.0,0.0,0.0,0.0,0.0,0.0,0.0,0.6131,0.0,0.6663,0.0,0.6175,0.5501,0.0,0.0,0.0,0.0,0.0,0.0,0.0,0.0,0.0,0.0,0.0,0.0,0.0,0.0,0.0,0.0,0.0,0.0,0.0,0.0,0.0,0.0,0.0,0.0,0.0,0.0,0.0,0.0,0.0,0.0,0.0,0.0,0.0,0.0,0.0,0.0,0.0,0.0,0.0,0.0,0.0,0.0,0.0,0.0,0.0,0.0,0.0,0.0,0.0,0.0,0.0,0.0,0.0,0.0,0.0,0.0,0.0,0.0,0.0,0.0,0.0,0.0,0.0,0.0,0.0,0.0,0.0,0.0,0.0,0.0,0.0,0.0,0.0,0.0,0.0,0.0,0.0,0.0,0.0,0.0,0.0,0.0,0.0,0.0,0.0,0.0,0.0,0.0,0.0,0.0,0.0,0.0,0.0,0.0,0.0,0.0,0.0,0.0,0.0,0.0,0.0,0.0,0.0,0.0,0.0,0.0,0.0,0.0,0.6137,0.7145,0.7799,0.7617,0.6655,0.7272,0.6489,0.0,0.0,0.0,0.0,0.0,0.0,0.0,0.0,0.0,0.0,0.0,0.0,0.0,0.0,0.0,0.0,0.0,0.0,0.0,0.0,0.0,0.0,0.0,0.0,0.0,0.0,0.0,0.0,0.0,0.0,0.0,0.0,0.0,0.0,0.0,0.0,0.0,0.0,0.0,0.0,0.0,0.0,0.0,0.0,0.0,0.0,0.0,0.0,0.0,0.0,0.0,0.0,0.0,0.0,0.0,0.0,0.0,0.0,0.0,0.0,0.0,0.0,0.0,0.0,0.0,0.0,0.0,0.0,0.0,0.0,0.0,0.0,0.0,0.0,0.0,0.0,0.0,0.0,0.0,0.0,0.0,0.0,0.0,0.0,0.0,0.0,0.0,0.0,0.0,0.0,0.0,0.0,0.0,0.0,0.0,0.0,0.0,0.0,0.0,0.0,0.0,0.0,0.0,0.0,0.0,0.0,0.0,0.0,0.0,0.6253,0.6256,0.653,0.6935,0.5821,0.5144,0.0,0.0,0.0,0.0,0.0,0.0,0.0,0.0,0.0,0.0,0.0,0.0,0.0,0.0,0.0,0.0,0.0,0.0,0.0,0.0,0.0,0.0,0.0,0.0,0.0,0.0,0.0,0.0,0.0,0.0,0.0,0.0,0.0,0.0,0.0,0.0,0.0,0.0,0.0,0.0,0.0,0.0,0.0,0.0,0.0,0.0,0.0,0.0,0.0,0.0,0.0,0.0,0.0,0.0,0.0,0.0,0.0,0.0,0.0,0.0,0.0,0.0,0.0,0.0,0.0,0.0,0.0,0.0,0.0,0.0,0.0,0.0,0.0,0.0,0.0,0.0,0.0,0.0,0.0,0.0,0.0,0.0,0.0,0.0,0.0,0.0,0.0,0.0,0.0,0.0,0.0,0.0,0.0,0.0,0.0,0.0,0.0,0.0,0.0,0.0,0.0,0.0,0.0,0.0,0.0,0.0,0.0,0.0,0.0,0.6924,0.701,0.7191,0.7406,0.6706,0.596,0.523,0.0,0.0,0.0,0.0,0.0,0.0,0.0,0.0,0.0,0.0,0.0,0.0,0.0,0.0,0.0,0.0,0.0,0.0,0.0,0.0,0.0,0.0,0.0,0.0,0.0,0.0,0.0,0.0,0.0,0.0,0.0,0.0,0.0,0.0,0.0,0.0,0.0,0.0,0.0,0.0,0.0,0.0,0.0,0.0,0.0,0.0,0.0,0.0,0.0,0.0,0.0,0.0,0.0,0.0,0.0,0.0,0.0,0.0,0.0,0.0,0.0,0.0,0.0,0.0,0.0,0.0,0.0,0.0,0.0,0.0,0.0,0.0,0.0,0.0,0.0,0.0,0.0,0.0,0.0,0.0,0.0,0.0,0.0,0.0,0.0,0.0,0.0,0.0,0.0,0.0,0.0,0.0,0.0,0.0,0.0,0.0,0.0,0.0,0.0,0.0,0.0,0.0,0.0,0.0,0.0,0.0,0.0,0.0,0.8711,0.9502,0.9291,0.804,0.924,0.84,0.0,0.0,0.0,0.0,0.0,0.0,0.0,0.0,0.0,0.0,0.0,0.0,0.0,0.0,0.0,0.0,0.0,0.0,0.0,0.0,0.0,0.0,0.0,0.0,0.0,0.0,0.0,0.0,0.0,0.0,0.0,0.0,0.0,0.0,0.0,0.0,0.0,0.0,0.0,0.0,0.0,0.0,0.0,0.0,0.0,0.0,0.0,0.0,0.0,0.0,0.0,0.0,0.0,0.0,0.0,0.0,0.0,0.0,0.0,0.0,0.0,0.0,0.0,0.0,0.0,0.0,0.0,0.0,0.0,0.0,0.0,0.0,0.0,0.0,0.0,0.0,0.0,0.0,0.0,0.0,0.0,0.0,0.0,0.0,0.0,0.0,0.0,0.0,0.0,0.0,0.0,0.0,0.0,0.0,0.0,0.0,0.0,0.0,0.0,0.0,0.0,0.0,0.0,0.0,0.0,0.0,0.0,0.0,0.0,0.9274,1.0109,1.0221,0.9604,0.811,0.6937,0.0,0.0,0.0,0.0,0.0,0.0,0.0,0.0,0.0,0.0,0.0,0.0,0.0,0.0,0.0,0.0,0.0,0.0,0.0,0.0,0.0,0.0,0.0,0.0,0.0,0.0,0.0,0.0,0.0,0.0,0.0,0.0,0.0,0.0,0.0,0.0,0.0,0.0,0.0,0.0,0.0,0.0,0.0,0.0,0.0,0.0,0.0,0.0,0.0,0.0,0.0,0.0,0.0,0.0,0.0,0.0,0.0,0.0,0.0,0.0,0.0,0.0,0.0,0.0,0.0,0.0,0.0,0.0,0.0,0.0,0.0,0.0,0.0,0.0,0.0,0.0,0.0,0.0,0.0,0.0,0.0,0.0,0.0,0.0,0.0,0.0,0.0,0.0,0.0,0.0,0.0,0.0,0.0,0.0,0.0,0.0,0.0,0.0,0.0,0.0,0.0,0.0,0.0,0.0,0.0,0.0,0.0,0.0,0.9154,0.9802,1.0532,1.0816,1.0665,0.8885,0.7506,0.0,0.0,0.0,0.0,0.0,0.0,0.0,0.0,0.0,0.0,0.0,0.0,0.0,0.0,0.0,0.0,0.0,0.0,0.0,0.0,0.0,0.0,0.0,0.0,0.0,0.0,0.0,0.0,0.0,0.0,0.0,0.0,0.0,0.0,0.0,0.0,0.0,0.0,0.0,0.0,0.0,0.0,0.0,0.0,0.0,0.0,0.0,0.0,0.0,0.0,0.0,0.0,0.0,0.0,0.0,0.0,0.0,0.0,0.0,0.0,0.0,0.0,0.0,0.0,0.0,0.0,0.0,0.0,0.0,0.0,0.0,0.0,0.0,0.0,0.0,0.0,0.0,0.0,0.0,0.0,0.0,0.0,0.0,0.0,0.0,0.0,0.0,0.0,0.0,0.0,0.0,0.0,0.0,0.0,0.0,0.0,0.0,0.0,0.0,0.0,0.0,0.0,0.0,0.0,0.0,0.0,0.0,0.0,0.9526,1.0287,1.0785,1.1055,1.1129,1.0678,0.9241,0.0,0.0,0.0,0.0,0.0,0.0,0.0,0.0,0.0,0.0,0.0,0.0,0.0,0.0,0.0,0.0,0.0,0.0,0.0,0.0,0.0,0.0,0.0,0.0,0.0,0.0,0.0,0.0,0.0,0.0,0.0,0.0,0.0,0.0,0.0,0.0,0.0,0.0,0.0,0.0,0.0,0.0,0.0,0.0,0.0,0.0,0.0,0.0,0.0,0.0,0.0,0.0,0.0,0.0,0.0,0.0,0.0,0.0,0.0,0.0,0.0,0.0,0.0,0.0,0.0,0.0,0.0,0.0,0.0,0.0,0.0,0.0,0.0,0.0,0.0,0.0,0.0,0.0,0.0,0.0,0.0,0.0,0.0,0.0,0.0,0.0,0.0,0.0,0.0,0.0,0.0,0.0,0.0,0.0,0.0,0.0,0.0,0.0,0.0,0.0,0.0,0.0,0.0,0.0,0.0,0.0,0.0,0.0,0.9779,1.0337,1.0728,1.1069,1.1354,1.1128,0.9924,0.0,0.0,0.0,0.0,0.0,0.0,0.0,0.0,0.0,0.0,0.0,0.0,0.0,0.0,0.0,0.0,0.0,0.0,0.0,0.0,0.0,0.0,0.0,0.0,0.0,0.0,0.0,0.0,0.0,0.0,0.0,0.0,0.0,0.0,0.0,0.0,0.0,0.0,0.0,0.0,0.0,0.0,0.0,0.0,0.0,0.0,0.0,0.0,0.1559,0.0,0.0,0.0,0.0,0.0,0.0,0.0,0.0,0.0,0.0,0.0,0.0,0.0,0.0,0.0,0.0,0.0,0.0,0.0,0.0,0.0,0.0,0.0,0.0,0.0,0.0,0.0,0.0,0.0,0.0,0.0,0.0,0.0,0.0,0.0,0.0,0.0,0.0,0.0,0.0,0.0,0.0,0.0,0.0,0.0,0.0,0.0,0.0,0.0,0.0,0.0,0.0,0.0,0.0,0.0,0.0,0.0,0.0,0.0,0.9835,1.0589,1.0742,1.1023,1.1486,1.1274,1.0161,0.0,0.0,0.0,0.0,0.0,0.0,0.0,0.0,0.0,0.0,0.0,0.0,0.0,0.0,0.0,0.0,0.0,0.0,0.0,0.0,0.0,0.0,0.0,0.0,0.0,0.0,0.0,0.0,0.0,0.0,0.0,0.0,0.0,0.0,0.0,0.0,0.0,0.0,0.0,0.0,0.0,0.0,0.0,0.0,0.0,0.0,0.0,0.0,0.0,0.0,0.0,0.0,0.0,0.0,0.0,0.0,0.0,0.0,0.0,0.0,0.0,0.0,0.0,0.0,0.0,0.0,0.0,0.0,0.0,0.0,0.0,0.0,0.0,0.0,0.0,0.0,0.0,0.0,0.0,0.0,0.0,0.0,0.0,0.0,0.0,0.0,0.0,0.0,0.0,0.0,0.0,0.0,0.0,0.0,0.0,0.0,0.0,0.0,0.0,0.0,0.0,0.0,0.0,0.0,0.0,0.0,0.0,0.8937,0.9846,1.0761,1.0761,1.1023,1.151,1.1238,1.0269,0.8589,0.0,0.0,0.0,0.0,0.0,0.0,0.0,0.0,0.0,0.0,0.0,0.0,0.0,0.0,0.0,0.0,0.0,0.0,0.0,0.0,0.0,0.0,0.0,0.0,0.0,0.0,0.0,0.0,0.0,0.0,0.0,0.0,0.0,0.0,0.0,0.0,0.0,0.0,0.126,0.1659,0.0,0.0,0.0,0.0,0.0,0.0,0.0,0.0,0.1862,0.0,0.0,0.0,0.0,0.0,0.0,0.0,0.0,0.0,0.0,0.0,0.0,0.0,0.0,0.0,0.0,0.0,0.0,0.0,0.0,0.0,0.0,0.0,0.0,0.0,0.0,0.0,0.0,0.0,0.0,0.0,0.0,0.0,0.0,0.0,0.0,0.0,0.0,0.0,0.0,0.0,0.0,0.0,0.0,0.0,0.0,0.0,0.0,0.0,0.0,0.0,0.0,0.0,0.0,0.0,0.0,0.8743,0.9002,0.9721,1.081,1.0703,1.0866,1.142,1.1232,1.0409,0.9009,0.0,0.0,0.0,0.0,0.0,0.0,0.0,0.0,0.0,0.0,0.0,0.0,0.0,0.0,0.0,0.0,0.0,0.0,0.0,0.0,0.0,0.0,0.0,0.0,0.0,0.0,0.0,0.0,0.0,0.0,0.0,0.0,0.0,0.0,0.0,0.0,0.0,0.0,0.0,0.2086,0.2221,0.0,0.0,0.0,0.0,0.0,0.0,0.0,0.0,0.1755,0.0,0.0,0.0,0.0,0.0,0.0,0.0,0.0,0.0,0.0,0.0,0.0,0.0,0.0,0.0,0.0,0.0,0.0,0.0,0.0,0.0,0.0,0.0,0.0,0.0,0.0,0.0,0.0,0.0,0.0,0.0,0.0,0.0,0.0,0.0,0.0,0.0,0.0,0.0,0.0,0.0,0.0,0.0,0.0,0.0,0.0,0.0,0.0,0.0,0.0,0.0,0.0,0.0,0.0,0.0,0.846,0.8926,0.9597,1.052,1.0506,1.0726,1.1141,1.0575,0.9826,0.0,0.0,0.0,0.0,0.0,0.0,0.0,0.0,0.0,0.0,0.0,0.0,0.0,0.0,0.0,0.0,0.0,0.0,0.0,0.0,0.0,0.0,0.0,0.0,0.0,0.0,0.0,0.0,0.0,0.0,0.0,0.0,0.0,0.0,0.0,0.0,0.0,0.0,0.0,0.0,0.2244,0.2363,0.2461,0.0,0.0,0.0,0.0,0.0,0.0,0.1774,0.1488,0.0,0.0,0.0,0.0,0.0,0.0,0.0,0.0,0.0,0.0,0.0,0.0,0.0,0.0,0.0,0.0,0.0,0.0,0.0,0.0,0.0,0.0,0.0,0.0,0.0,0.0,0.0,0.0,0.0,0.0,0.0,0.0,0.0,0.0,0.0,0.0,0.0,0.0,0.0,0.0,0.0,0.0,0.0,0.0,0.0,0.0,0.0,0.0,0.0,0.0,0.0,0.0,0.0,0.0,0.0,0.808,0.881,0.946,1.0185,1.0368,1.049,1.0656,1.0039,0.9322,0.0,0.0,0.0,0.0,0.0,0.0,0.0,0.0,0.0,0.0,0.0,0.0,0.0,0.0,0.0,0.0,0.0,0.0,0.0,0.0,0.0,0.0,0.0,0.0,0.0,0.0,0.0,0.0,0.0,0.0,0.0,0.0,0.0,0.0,0.0,0.0,0.0,0.0,0.0,0.0,0.0,0.2482,0.259,0.248,0.0,0.0,0.0,0.0,0.1925,0.1611,0.0,0.0,0.0,0.0,0.0,0.0,0.0,0.0,0.0,0.0,0.0,0.0,0.0,0.0,0.0,0.0,0.0,0.0,0.0,0.0,0.0,0.0,0.0,0.0,0.0,0.0,0.0,0.0,0.0,0.0,0.0,0.0,0.0,0.0,0.0,0.0,0.0,0.0,0.0,0.0,0.0,0.0,0.0,0.0,0.0,0.0,0.0,0.0,0.0,0.0,0.0,0.0,0.0,0.0,0.0,0.0,0.8069,0.8652,0.9373,1.0173,1.0218,1.0267,1.0271,1.0249,0.9563,0.0,0.0,0.0,0.0,0.0,0.0,0.0,0.0,0.0,0.0,0.0,0.0,0.0,0.0,0.0,0.0,0.0,0.0,0.0,0.0,0.0,0.0,0.0,0.0,0.0,0.0,0.0,0.0,0.0,0.0,0.0,0.0,0.0,0.0,0.0,0.0,0.0,0.0,0.0,0.0,0.0,0.2711,0.2628,0.259,0.2469,0.0,0.0,0.1937,0.1746,0.162,0.0,0.0,0.0,0.0,0.0,0.0,0.0,0.0,0.0,0.0,0.0,0.0,0.0,0.0,0.0,0.0,0.0,0.0,0.0,0.0,0.0,0.0,0.0,0.0,0.0,0.0,0.0,0.0,0.0,0.0,0.0,0.0,0.0,0.0,0.0,0.0,0.0,0.0,0.0,0.0,0.0,0.0,0.0,0.0,0.0,0.0,0.0,0.0,0.0,0.0,0.0,0.0,0.0,0.0,0.0,0.6945,0.801,0.8695,0.9411,0.9965,1.0143,1.0181,1.0019,0.9714,0.9029,0.0,0.0,0.0,0.0,0.0,0.0,0.0,0.0,0.0,0.0,0.0,0.0,0.0,0.0,0.0,0.0,0.0,0.0,0.0,0.0,0.0,0.0,0.0,0.0,0.0,0.0,0.0,0.0,0.0,0.0,0.0,0.0,0.0,0.0,0.0,0.0,0.0,0.0,0.0,0.0,0.0,0.0,0.2421,0.2386,0.0,0.0,0.0,0.1775,0.1557,0.0,0.0,0.0,0.0,0.0,0.0,0.0,0.0,0.0,0.0,0.0,0.0,0.0,0.0,0.0,0.0,0.0,0.0,0.0,0.0,0.0,0.0,0.0,0.0,0.0,0.0,0.0,0.0,0.0,0.0,0.0,0.0,0.0,0.0,0.0,0.0,0.0,0.0,0.0,0.0,0.0,0.0,0.0,0.0,0.0,0.0,0.0,0.0,0.0,0.0,0.0,0.0,0.0,0.0,0.0,0.0,0.0,0.8016,0.8788,0.9432,0.99,1.0067,0.9999,0.9702,0.9237,0.0,0.0,0.0,0.0,0.0,0.0,0.0,0.0,0.0,0.0,0.0,0.0,0.0,0.0,0.0,0.0,0.0,0.0,0.0,0.0,0.0,0.0,0.0,0.0,0.0,0.0,0.0,0.1341,0.0,0.0,0.0,0.0,0.0,0.0,0.0,0.0,0.0,0.0,0.0,0.0,0.0,0.0,0.2014,0.214,0.2151,0.2062,0.0,0.0,0.1586,0.1333,0.107,0.0901,0.0,0.0,0.0,0.0,0.0,0.0,0.0,0.0,0.0,0.0,0.0,0.0,0.0,0.0,0.0,0.0,0.0,0.0,0.0,0.0,0.0,0.0,0.0,0.0,0.0,0.0,0.0,0.0,0.0,0.0,0.0,0.0,0.0,0.0,0.0,0.0,0.0,0.0,0.0,0.0,0.0,0.0,0.0,0.0,0.0,0.0,0.0,0.0,0.0,0.0,0.0,0.0,0.0,0.0,0.0,0.8016,0.8788,0.9437,0.99,0.9916,0.9696,0.9238,0.9043,0.8411,0.0,0.0,0.0,0.0,0.0,0.0,0.0,0.0,0.0,0.0,0.0,0.0,0.0,0.0,0.0,0.0,0.0,0.0,0.0,0.0,0.0,0.0,0.0,0.0,0.0,0.0,0.0,0.0,0.0,0.0,0.0,0.0,0.0,0.0,0.0,0.0,0.0,0.0,0.0,0.0,0.0,0.1916,0.1754,0.1877,0.1836,0.0,0.0,0.138,0.1013,0.0991,0.1027,0.0846,0.0,0.0,0.0,0.0,0.0,0.0,0.0,0.0,0.0,0.0,0.0,0.0,0.0,0.0,0.0,0.0,0.0,0.0,0.0,0.0,0.0,0.0,0.0,0.0,0.0,0.0,0.0,0.0,0.0,0.0,0.0,0.0,0.0,0.0,0.0,0.0,0.0,0.0,0.0,0.0,0.0,0.0,0.0,0.0,0.0,0.0,0.0,0.0,0.0,0.0,0.0,0.0,0.0,0.69,0.7849,0.8793,0.9432,0.989,0.9782,0.9545,0.9211,0.8985,0.837,0.0,0.0,0.0,0.0,0.0,0.0,0.0,0.0,0.0,0.0,0.0,0.0,0.0,0.0,0.0,0.0,0.0,0.0,0.0,0.0,0.0,0.0,0.0,0.0,0.0,0.0,0.0,0.0,0.1429,0.1427,0.1349,0.0,0.0,0.0,0.0,0.0,0.0,0.0,0.0,0.0,0.0,0.1567,0.1587,0.1639,0.0,0.0,0.1423,0.1416,0.1091,0.1014,0.0975,0.0666,0.0738,0.0,0.0,0.0,0.0,0.0,0.0,0.0,0.0,0.0,0.0,0.0,0.0,0.0,0.0,0.0,0.0,0.0,0.0,0.0,0.0,0.0,0.0,0.0,0.0,0.0,0.0,0.0,0.0,0.0,0.0,0.0,0.0,0.0,0.0,0.0,0.0,0.0,0.0,0.0,0.0,0.0,0.0,0.0,0.0,0.0,0.0,0.0,0.0,0.0,0.0,0.0,0.0,0.6853,0.779,0.8727,0.9437,0.9911,0.9696,0.9459,0.9211,0.8915,0.8201,0.0,0.0,0.0,0.0,0.0,0.0,0.0,0.0,0.0,0.0,0.0,0.0,0.0,0.0,0.0,0.0,0.0,0.0,0.0,0.0,0.0,0.0,0.0,0.0,0.0,0.0,0.0,0.0,0.1475,0.1435,0.1235,0.0,0.0,0.0,0.0,0.0,0.0,0.0,0.0,0.0,0.0,0.1232,0.1346,0.1363,0.1316,0.1141,0.1314,0.1295,0.0984,0.0952,0.0911,0.052,0.0,0.0,0.0,0.0,0.0,0.0,0.0,0.0,0.0,0.0,0.0,0.0,0.0,0.0,0.0,0.0,0.0,0.0,0.0,0.0,0.0,0.0,0.0,0.0,0.0,0.0,0.0,0.0,0.0,0.0,0.4036,0.0,0.0,0.0,0.0,0.0,0.0,0.0,0.0,0.0,0.0,0.0,0.0,0.0,0.0,0.0,0.0,0.0,0.0,0.0,0.0,0.0,0.0,0.6864,0.7795,0.866,0.9432,0.9814,0.969,0.9453,0.9195,0.8759,0.8058,0.6996,0.0,0.0,0.0,0.0,0.0,0.0,0.0,0.0,0.0,0.0,0.0,0.0,0.0,0.0,0.0,0.0,0.0,0.0,0.0,0.0,0.0,0.0,0.0,0.0,0.0,0.0,0.1488,0.148,0.1379,0.0,0.0,0.0,0.0,0.0,0.0,0.0,0.0,0.0,0.0,0.1016,0.0967,0.1034,0.1059,0.1077,0.1079,0.112,0.096,0.0561,0.0805,0.0958,0.0,0.0,0.0,0.0,0.0,0.0,0.0,0.0,0.0,0.0,0.0,0.0,0.0,0.0,0.0,0.0,0.0,0.0,0.0,0.0,0.0,0.0,0.0,0.0,0.0,0.0,0.0,0.5913,0.5766,0.0,0.0,0.0,0.0,0.0,0.0,0.0,0.0,0.0,0.0,0.0,0.6392,0.6657,0.0,0.0,0.0,0.0,0.0,0.0,0.0,0.0,0.0,0.0,0.0,0.0,0.6701,0.7588,0.8198,0.8647,0.8862,0.8655,0.8513,0.8294,0.8006,0.7355,0.6466,0.0,0.0,0.0,0.0,0.0,0.0,0.0,0.0,0.0,0.0,0.0,0.0,0.0,0.0,0.0,0.0,0.0,0.0,0.0,0.0,0.0,0.0,0.0,0.0,0.0,0.1319,0.0,0.0,0.0,0.0,0.0,0.0,0.0,0.0,0.0,0.0,0.0,0.0917,0.0991,0.0746,0.0586,0.0663,0.067,0.0674,0.0,0.0,0.0,0.0,0.0,0.0,0.0,0.0,0.0,0.0,0.0,0.0,0.0,0.0,-0.1123,-0.1021,-0.097,-0.1,-0.1096,0.0,0.0,0.0,0.0,0.0,0.0,0.0,0.0,0.0,0.0,0.0,0.0,0.0,0.0,0.6749,0.0,0.6042,0.0,0.0,0.0,0.0,0.0,0.0,0.0,0.0,0.6538,0.6867,0.7052,0.7315,0.7279,0.0,0.663,0.6459,0.0,0.0,0.0,0.0,0.0,0.0,0.0,0.0,0.6667,0.7443,0.7946,0.8264,0.8387,0.8188,0.7985,0.7787,0.7438,0.694,0.6228,0.5664,0.5095,0.0,0.0,0.0,0.0,0.0,0.0,0.0,0.0,0.0,0.0,0.0,0.0,0.0,0.0,0.0,0.0,0.0,0.0,0.0,0.0,0.0,0.0,0.0,0.121,0.0,0.0,0.0,0.0,0.0,0.0,0.0,0.0,0.0,0.0891,0.0748,0.0752,0.087,0.0773,0.0594,0.0336,0.0,0.0,0.0,0.0,0.0,0.0,0.0,-0.0882,-0.0699,-0.0689,-0.0807,-0.1126,-0.1221,-0.1307,-0.1487,0.0,0.0,-0.1267,-0.127,-0.1255,-0.138,-0.1657,-0.1863,-0.1821,-0.2632,-0.3579,0.0,0.0,0.0,0.0,0.0,0.0,0.0,0.0,0.7628,0.7402,0.0,0.6685,0.0,0.0,0.0,0.0,0.0,0.5742,0.0,0.0,0.7139,0.7399,0.7248,0.7533,0.7651,0.7477,0.7455,0.7389,0.721,0.5854,0.0,0.0,0.0,0.0,0.0,0.0,0.6731,0.741,0.8014,0.8328,0.8323,0.8188,0.7976,0.77,0.7122,0.6639,0.6357,0.5718,0.5165,0.4726,0.3924,0.0,0.0,0.0,0.0,0.0,0.0,0.0,0.0,0.0,0.0,0.0,0.0,0.0,0.0,0.0,0.0,0.0,0.0,0.0,0.0,0.1004,0.0,0.0,0.0,0.0,0.0,0.0,0.0,0.0,0.0,0.0,0.0756,0.0584,0.0563,0.0837,0.0,0.0,0.0,0.0,-0.0877,-0.0135,-0.0329,-0.0647,-0.1037,-0.1099,-0.1088,-0.0997,0.0,0.0,-0.1297,-0.1452,-0.1599,-0.1622,-0.1586,-0.1614,-0.1608,-0.1531,-0.1555,-0.1594,-0.2207,-0.2718,-0.2834,-0.3957,-0.515,1.0495,0.0,0.0,0.0,0.0,0.8777,0.8981,0.928,0.8875,0.8447,0.8084,0.7364,0.0,0.0,0.0,0.0,0.0,0.0,0.6696,0.6946,0.7315,0.759,0.7784,0.7864,0.7783,0.7488,0.748,0.7367,0.7068,0.6509,0.5981,0.5544,0.0,0.0,0.0,0.0,0.6696,0.714,0.7444,0.752,0.752,0.7407,0.7155,0.6835,0.6593,0.6446,0.6258,0.6153,0.5669,0.4809,0.4073,0.0,0.0,0.0,0.0,0.0,0.0,0.0,0.0,0.0,0.0,0.0,0.0,0.0,0.0,0.0,0.0,0.0,0.0,0.0,0.089,0.1024,0.1024,0.0,0.0,0.0,0.0,0.0,0.0,0.0,0.0,0.0,0.0184,0.0502,0.0645,0.0,0.0,0.0067,-0.0674,-0.0945,-0.1012,-0.0809,-0.0871,0.0,-0.1066,-0.1048,-0.1037,-0.1048,-0.1198,-0.1275,-0.1464,-0.1605,-0.161,-0.1796,-0.1805,-0.1883,-0.2017,-0.1928,-0.1845,-0.2054,-0.2616,-0.3039,-0.3168,-0.4352,-0.5495,1.1701,1.0608,0.9752,0.9521,0.971,0.9447,0.9514,0.9897,0.9308,0.8918,0.8577,0.7995,0.7351,0.681,0.6185,0.0,0.0,0.0,0.698,0.7392,0.7476,0.7667,0.7859,0.7955,0.7808,0.7537,0.7626,0.7484,0.7269,0.7025,0.6672,0.6254,0.0,0.0,0.6145,0.6531,0.6874,0.7099,0.7253,0.7297,0.7224,0.698,0.6712,0.6432,0.642,0.6233,0.5997,0.5797,0.5461,0.4926,0.3994,0.3287,0.0,0.0,0.0,0.0,0.0,0.0,0.0,0.0,0.0,0.0,0.0,0.0936,0.0838,0.0,0.0,0.0,0.0714,0.0692,0.0792,0.0853,0.0,0.0,0.0,0.0,0.0,0.0,0.0,0.0116,0.0,-0.0064,-0.0262,-0.0066,0.0,-0.0202,-0.0067,-0.027,-0.1012,0.0,-0.1082,-0.1094,-0.1153,-0.1217,-0.1298,-0.1272,-0.1254,-0.1274,-0.1412,-0.1547,-0.1681,-0.1748,-0.1884,-0.2018,-0.2018,-0.2153,-0.2552,-0.2552,-0.2552,-0.2619,-0.3218,-0.3747,-0.4082,-0.5279,-0.624,1.2459,1.2342,1.1067,1.0513,1.0349,1.0065,0.9978,0.9814,0.9242,0.898,0.8896,0.8462,0.8105,0.7764,0.7214,0.0,0.7091,0.7096,0.7244,0.7621,0.7621,0.7621,0.7621,0.7796,0.7797,0.7706,0.7716,0.7784,0.774,0.7351,0.7098,0.6989,0.6599,0.6503,0.67,0.6875,0.7058,0.7224,0.7391,0.7391,0.713,0.6816,0.6551,0.6358,0.6404,0.6129,0.5522,0.4797,0.4585,0.4991,0.3755,0.3183,0.3423,0.0,0.0,0.0,0.0,0.0,0.0,0.0,0.0,0.0,0.0,0.0,0.0,0.0,0.0,0.0,0.0578,0.0,0.0581,0.0516,0.0,0.0,0.0,0.0259,0.0271,0.0344,0.018,-0.0248,0.0,0.0,-0.0607,-0.0877,-0.0944,-0.0607,-0.0269,-0.0337,-0.1012,-0.1146,-0.1088,-0.111,-0.123,-0.1358,-0.1591,-0.1637,-0.1544,-0.1613,-0.1816,-0.195,-0.2017,-0.2153,-0.2287,-0.2288,-0.2356,-0.2554,-0.3151,-0.3418,-0.3551,-0.3482,-0.4079,-0.4809,-0.5411,-0.6338,-0.7055,1.2869,1.2587,1.1747,1.1158,1.0855,1.0727,1.0217,0.9475,0.9256,0.9018,0.8665,0.8181,0.775,0.739,0.7432,0.7386,0.7261,0.7599,0.7537,0.725,0.7614,0.7796,0.7793,0.7884,0.7797,0.7635,0.7674,0.7525,0.7282,0.7194,0.7068,0.6904,0.6821,0.6756,0.6721,0.7005,0.7183,0.7224,0.7395,0.7258,0.6817,0.6579,0.6321,0.6028,0.623,0.5965,0.498,0.3492,0.3262,0.438,0.337,0.2817,0.3102,0.1955,0.0,0.0,0.0,0.0,0.0,0.0,0.0,0.0,0.0,0.085,0.0693,0.0,0.0708,0.0,0.0474,0.0456,0.0376,0.0439,0.0,0.0,0.0222,0.0057,0.0063,-0.0381,-0.0767,-0.0856,-0.1003,-0.108,-0.0945,-0.1012,-0.1078,-0.1076,-0.0944,-0.0945,-0.1079,-0.1212,-0.1281,-0.1154,-0.1352,-0.1685,-0.1968,-0.1826,-0.1681,-0.1816,-0.2084,-0.235,-0.2487,-0.2757,-0.296,-0.2958,-0.3288,-0.3616,-0.3816,-0.4151,-0.4683,-0.5143,-0.5408,-0.5606,-0.5807,-0.6535,-0.7163,1.278,1.2374,1.199,1.1308,1.0615,1.0429,1.0018,0.9376,0.9125,0.8828,0.856,0.8194,0.7842,0.7591,0.7587,0.7541,0.7552,0.7544,0.7404,0.7132,0.7404,0.7584,0.7584,0.7676,0.7629,0.7541,0.755,0.7506,0.733,0.7185,0.7066,0.6973,0.6898,0.6881,0.6775,0.6943,0.7112,0.7195,0.7206,0.7013,0.6542,0.6452,0.6113,0.547,0.5898,0.5492,0.4028,0.2403,0.2155,0.3387,0.267,0.2327,0.264,0.1759,0.1126,0.0,0.0,0.0,0.0,0.0,0.0,0.0,0.0,0.0,0.0,0.0,0.0469,0.0322,0.0443,0.0469,0.0485,0.0056,-0.0233,-0.0187,-0.0247,-0.0251,-0.0201,-0.0599,-0.0932,-0.1095,-0.1097,-0.1103,-0.1116,-0.1175,-0.1235,-0.1301,-0.1357,-0.1347,-0.1347,-0.1481,-0.1486,-0.1367,-0.156,-0.1883,-0.2353,-0.2353,-0.2353,-0.2488,-0.2621,-0.282,-0.2889,-0.3092,-0.3291,-0.3489,-0.3818,-0.4215,-0.4746,-0.5143,-0.5609,-0.6272,-0.6535,-0.6601,-0.647,-0.6933,-0.7293,1.2375,1.1878,1.178,1.1182,1.0123,0.967,0.9487,0.9341,0.8814,0.8568,0.8476,0.8204,0.8028,0.7764,0.7591,0.7595,0.7779,0.7323,0.7139,0.7139,0.7139,0.7139,0.7139,0.7323,0.7415,0.7408,0.753,0.7536,0.7506,0.7233,0.7075,0.7027,0.6891,0.6883,0.6865,0.6865,0.6945,0.7184,0.6945,0.6708,0.6384,0.6376,0.5869,0.4926,0.5308,0.472,0.296,0.1648,0.1365,0.231,0.1864,0.1806,0.225,0.1571,0.1128,0.0,0.074,0.0,0.0,0.0,0.0,0.0,0.0,0.0,0.0,0.0557,0.0312,0.0155,0.0331,0.047,0.0495,-0.0511,-0.1116,-0.1076,-0.0809,-0.0607,-0.0607,-0.054,-0.0749,-0.1048,-0.1121,-0.1132,-0.1231,-0.1357,-0.1479,-0.1469,-0.158,-0.1693,-0.1682,-0.1748,-0.1763,-0.1668,-0.1845,-0.2285,-0.2688,-0.3025,-0.3159,-0.3159,-0.3226,-0.3293,-0.3293,-0.336,-0.3491,-0.402,-0.4284,-0.468,-0.5804,-0.6137,-0.6474,-0.7068,-0.7326,-0.733,-0.7265,-0.7326,-0.7526,1.1883,1.1292,1.09,1.0587,1.0338,0.9723,0.9177,0.8898,0.8726,0.8388,0.8032,0.7768,0.7499,0.7231,0.7231,0.7231,0.7231,0.7143,0.7139,0.7139,0.7139,0.7139,0.7139,0.7143,0.7143,0.7139,0.7204,0.7125,0.7011,0.6956,0.6798,0.6638,0.66,0.6606,0.6644,0.0,0.0,0.0,0.6788,0.6486,0.6183,0.6022,0.5713,0.5259,0.4201,0.0,0.3015,0.1736,0.1234,0.1864,0.1391,0.0,0.0,0.0,0.0,0.0,0.0,0.0,0.0,0.0,0.0,0.0,0.0427,0.0577,0.0856,0.0401,0.0061,0.0058,0.0062,-0.013,-0.0705,-0.0987,-0.1073,-0.1078,-0.1012,-0.1012,-0.0945,-0.0945,-0.1021,-0.1117,-0.1262,-0.1346,-0.1453,-0.1597,-0.1724,-0.1831,-0.1886,-0.1932,-0.2095,-0.1954,-0.1819,-0.1689,-0.2359,-0.2958,-0.3092,-0.3159,-0.3295,-0.3228,-0.3493,-0.3692,-0.3758,-0.3964,-0.4295,-0.4818,-0.5219,-0.5683,-0.6408,-0.6933,-0.7195,-0.7396,-0.7456,-0.7526,-0.7461,-0.7456,-0.7526,1.1292,0.0,1.0511,1.0216,0.0,0.9526,0.9103,0.8754,0.8591,0.8201,0.768,0.7595,0.7323,0.7139,0.7139,0.7139,0.7139,0.7139,0.7139,0.7139,0.7139,0.7139,0.7139,0.7139,0.7139,0.7139,0.7139,0.7102,0.7031,0.6963,0.681,0.6583,0.6508,0.6479,0.6493,0.6338,0.6412,0.6563,0.6486,0.6298,0.6002,0.5548,0.5167,0.497,0.4499,0.0,0.0,0.0,0.0,0.0,0.0,0.0,0.0,0.0,0.0,0.0801,0.0705,0.0434,0.016,0.033,0.0455,0.0294,-0.0119,-0.0119,0.0403,-0.0124,-0.0513,-0.0507,-0.0329,-0.0402,-0.0728,-0.1003,-0.108,-0.1079,-0.1078,-0.1082,-0.1097,-0.1169,-0.1258,-0.1302,-0.1458,-0.1613,-0.1631,-0.1784,-0.1987,-0.2013,-0.2288,-0.2488,-0.2592,-0.2393,-0.2284,-0.2415,-0.3155,-0.3627,-0.3558,-0.3627,-0.3897,-0.4092,-0.4092,-0.4292,-0.4758,-0.4761,-0.4957,-0.5683,-0.6083,-0.6482,-0.7003,-0.7326,-0.7526,-0.7526,-0.7526,-0.7526,-0.7526,-0.7526,-0.7526,1.09,1.031,1.0216,1.0019,0.9616,0.9466,0.9112,0.8644,0.0,0.0,0.0,0.7415,0.7323,0.7139,0.7139,0.7139,0.7139,0.7139,0.7139,0.7139,0.7139,0.7139,0.7139,0.7139,0.7139,0.7139,0.7139,0.7139,0.7132,0.7021,0.6892,0.6739,0.659,0.6427,0.6271,0.6257,0.6257,0.6183,0.6257,0.6186,0.5959,0.5143,0.468,0.4666,0.5169,0.4514,0.2741,0.1398,0.0756,0.0902,0.0899,0.0898,0.0839,0.0596,0.0541,0.0739,0.0745,0.0498,0.0062,0.025,0.0314,0.0,-0.0706,-0.0846,-0.026,-0.0716,-0.1052,-0.1078,-0.0809,-0.0607,-0.0607,-0.0877,-0.1081,-0.1085,-0.1153,-0.1165,-0.1124,-0.134,-0.151,-0.1576,-0.1739,-0.1897,-0.1904,-0.2058,-0.2192,-0.2218,-0.2642,-0.3072,-0.3116,-0.2933,-0.2909,-0.3228,-0.3763,-0.4167,-0.4028,-0.4228,-0.4631,-0.4891,-0.4761,-0.4964,-0.5557,-0.5554,-0.5683,-0.6408,-0.6671,-0.6937,-0.733,-0.7461,-0.7526,-0.7526,-0.7526,-0.7526,-0.7526,-0.7526,-0.7526,1.1086,0.9727,0.9727,0.9628,0.9624,0.9304,0.8905,0.8236,0.7815,0.7613,0.7507,0.7231,0.7139,0.7139,0.7139,0.7139,0.7139,0.7139,0.7139,0.7139,0.7139,0.7139,0.7139,0.7139,0.7139,0.7139,0.7139,0.7139,0.7139,0.7119,0.7037,0.6892,0.6742,0.6445,0.596,0.5941,0.5864,0.5715,0.6103,0.6186,0.5959,0.5143,0.4935,0.5421,0.5338,0.4861,0.371,0.1411,0.0257,0.0447,0.051,0.0702,0.102,0.0872,0.0615,0.0185,0.0,0.0064,0.0,0.0,0.0067,-0.0067,-0.0669,-0.1072,-0.0938,-0.0737,-0.0738,-0.1079,-0.1012,-0.1012,-0.1012,-0.108,-0.1091,-0.1111,-0.1254,-0.1268,-0.1156,-0.1522,-0.176,-0.189,-0.2047,-0.214,-0.217,-0.2336,-0.2626,-0.2802,-0.3006,-0.3289,-0.3726,-0.3474,-0.3307,-0.3648,-0.403,-0.4233,-0.4298,-0.4694,-0.5024,-0.5087,-0.5422,-0.5624,-0.5954,-0.5885,-0.602,-0.6605,-0.6736,-0.6937,-0.7396,-0.7526,-0.7526,-0.7526,-0.7526,-0.7526,-0.7526,-0.7521,-0.7526,1.1179,1.04,0.9817,0.9529,0.9324,0.8845,0.847,0.8176,0.7707,0.7451,0.7441,0.718,0.7139,0.7139,0.7139,0.7139,0.7139,0.7139,0.7139,0.7139,0.7139,0.7139,0.7139,0.7139,0.7139,0.7139,0.7139,0.7054,0.6969,0.7054,0.6981,0.6744,0.6529,0.627,0.6064,0.5827,0.5715,0.5634,0.5792,0.5841,0.5771,0.4883,0.4689,0.5351,0.3925,0.3149,0.3228,0.1185,0.0066,0.0198,0.0198,0.033,0.0463,0.0457,0.0259,0.0,0.0,0.0,0.0,0.0,-0.0202,-0.054,-0.0674,-0.0877,-0.108,-0.0945,-0.0877,-0.1079,-0.1078,-0.1084,-0.1099,-0.1102,-0.1183,-0.1286,-0.1432,-0.1448,-0.1407,-0.1712,-0.2031,-0.2074,-0.2394,-0.2624,-0.2616,-0.2957,-0.3263,-0.3423,-0.3587,-0.3967,-0.4397,-0.4287,-0.4172,-0.4206,-0.4607,-0.4837,-0.4761,-0.5223,-0.562,-0.5881,-0.5888,-0.6152,-0.6544,-0.6544,-0.6609,-0.7003,-0.7129,-0.7195,-0.7461,-0.7526,-0.7526,-0.7526,-0.7526,-0.7526,-0.7521,-0.7777,-0.8166,1.156,1.0974,1.0203,0.9525,0.9023,0.8506,0.8164,0.8136,0.7681,0.7451,0.74,0.7224,0.7139,0.7051,0.7054,0.7054,0.7058,0.6962,0.6966,0.7058,0.7051,0.7054,0.7139,0.7054,0.7054,0.7051,0.6962,0.6877,0.6792,0.6877,0.6806,0.6487,0.6277,0.6144,0.6077,0.5735,0.5514,0.5485,0.5482,0.5482,0.5556,0.4594,0.4415,0.4983,0.2573,0.1743,0.299,0.1152,0.0,0.0,0.0,0.0,0.0,0.0,-0.0067,-0.0202,-0.027,-0.0202,-0.0135,-0.0135,-0.0405,-0.1012,-0.0809,-0.0742,-0.108,-0.1085,-0.1085,-0.108,-0.1084,-0.1097,-0.1116,-0.1198,-0.1287,-0.1465,-0.1618,-0.1709,-0.1673,-0.2062,-0.2459,-0.2503,-0.2982,-0.327,-0.3233,-0.3565,-0.3812,-0.3919,-0.4257,-0.4578,-0.4806,-0.4978,-0.4976,-0.4871,-0.5141,-0.5302,-0.5223,-0.5686,-0.6214,-0.6671,-0.6478,-0.6675,-0.7195,-0.7129,-0.7064,-0.7396,-0.7461,-0.7456,-0.7526,-0.7526,-0.7587,-0.7717,-0.7847,-0.7847,-0.8037,-0.8549,-0.9069,1.2732,1.0979,1.0685,0.9805,0.8531,0.8414,0.8209,0.7991,0.7841,0.7695,0.7546,0.7272,0.7143,0.7054,0.6877,0.6884,0.7064,0.6609,0.67,0.6976,0.6884,0.6966,0.7051,0.6877,0.6792,0.6792,0.6609,0.652,0.6432,0.6432,0.6367,0.6251,0.6212,0.5993,0.5627,0.5502,0.536,0.5098,0.5018,0.5251,0.555,0.4594,0.453,0.5339,0.2639,0.2217,0.4333,0.1673,0.0,0.0,0.0,0.0,0.0,0.0,-0.027,-0.0877,-0.0945,-0.0877,-0.0472,-0.0472,-0.0607,-0.1012,-0.1081,-0.1014,-0.1083,-0.1104,-0.1105,-0.109,-0.1102,-0.1119,-0.1122,-0.129,-0.1469,-0.158,-0.1888,-0.2059,-0.2019,-0.2581,-0.3212,-0.361,-0.361,-0.3761,-0.3746,-0.3834,-0.399,-0.4281,-0.4606,-0.4851,-0.4972,-0.5164,-0.5306,-0.5312,-0.5628,-0.5652,-0.5422,-0.6013,-0.6609,-0.6806,-0.7068,-0.7326,-0.7456,-0.7456,-0.7456,-0.7456,-0.7526,-0.7526,-0.7591,-0.7526,-0.7782,-0.8296,-0.8425,-0.8554,-0.9198,-0.9709,-1.0161,1.2926,1.1463,1.0792,0.9715,0.8432,0.8233,0.8137,0.8024,0.7875,0.7733,0.7584,0.737,0.7138,0.6881,0.6792,0.6792,0.67,0.652,0.6337,0.6337,0.6612,0.6792,0.6697,0.6792,0.6704,0.6609,0.6428,0.6343,0.6254,0.6257,0.6231,0.6262,0.6103,0.592,0.573,0.5423,0.5242,0.5116,0.505,0.5096,0.5165,0.4815,0.4754,0.4911,0.3966,0.3754,0.4316,0.1694,0.0,0.0,-0.0408,-0.0674,-0.0674,-0.0405,-0.0405,-0.0742,-0.0945,-0.1012,-0.0877,-0.0877,-0.0951,-0.1103,-0.1104,-0.1111,-0.1129,-0.1142,-0.1142,-0.1205,-0.1284,-0.137,-0.1391,-0.1556,-0.1733,-0.1923,-0.2088,-0.2174,-0.227,-0.2746,-0.3219,-0.3456,-0.3921,-0.4153,-0.4231,-0.4389,-0.4545,-0.4779,-0.4937,-0.5018,-0.5004,-0.5333,-0.5545,-0.5558,-0.618,-0.6523,-0.6218,-0.6671,-0.7064,-0.7195,-0.733,-0.7526,-0.7526,-0.7526,-0.7526,-0.7526,-0.7521,-0.7712,-0.8102,-0.8102,-0.8296,-0.8807,-0.9134,-0.9262,-0.9964,-1.0288,-1.0611,1.3125,1.176,1.04,0.9225,0.8336,0.8038,0.7942,0.7832,0.7825,0.7674,0.7496,0.7386,0.7144,0.6716,0.67,0.6612,0.6435,0.6257,0.5985,0.5802,0.6343,0.6523,0.6432,0.6526,0.6526,0.6343,0.6254,0.6083,0.5997,0.5997,0.6083,0.6154,0.5987,0.584,0.5789,0.5446,0.5252,0.5184,0.5102,0.5048,0.5021,0.5018,0.4974,0.4896,0.4969,0.4919,0.473,0.1659,0.0,0.0,-0.0692,-0.1091,-0.109,-0.0812,-0.0676,-0.0682,-0.0961,-0.1104,-0.1103,-0.1103,-0.1112,-0.113,-0.1134,-0.1143,-0.1235,-0.1247,-0.1252,-0.1326,-0.1557,-0.165,-0.151,-0.1753,-0.2004,-0.219,-0.2352,-0.251,-0.2746,-0.3139,-0.3608,-0.3767,-0.4311,-0.4543,-0.4621,-0.4781,-0.494,-0.494,-0.5171,-0.5249,-0.5369,-0.5783,-0.6093,-0.5936,-0.6856,-0.7113,-0.6876,-0.7064,-0.7461,-0.7526,-0.7526,-0.7526,-0.7526,-0.7526,-0.7717,-0.7847,-0.7642,-0.7902,-0.8619,-0.8812,-0.9069,-0.9582,-0.9907,-1.0155,-1.073,-1.08,-1.1052,1.3715,1.1463,0.9118,0.8137,0.8038,0.7939,0.7842,0.7646,0.7633,0.7475,0.724,0.7205,0.6955,0.6444,0.6438,0.6438,0.6355,0.5911,0.5727,0.5719,0.5994,0.6257,0.6343,0.6257,0.6174,0.6083,0.5908,0.5733,0.5735,0.5735,0.5735,0.573,0.5719,0.5665,0.5572,0.5529,0.5415,0.5233,0.5184,0.5127,0.5034,0.5021,0.5012,0.5002,0.5007,0.5027,0.4626,0.1802,0.0,0.0,-0.0709,-0.1119,-0.1117,-0.1095,-0.1026,-0.1047,-0.1145,-0.116,-0.1159,-0.1157,-0.116,-0.1164,-0.1238,-0.1166,-0.1249,-0.142,-0.1512,-0.1512,-0.1845,-0.1932,-0.1679,-0.1929,-0.2186,-0.2271,-0.2668,-0.3061,-0.3219,-0.3763,-0.4465,-0.4704,-0.4859,-0.4859,-0.494,-0.5018,-0.5015,-0.5171,-0.5479,-0.5864,-0.5979,-0.6581,-0.6901,-0.7016,-0.721,-0.733,-0.6872,-0.7134,-0.7461,-0.7526,-0.7526,-0.7526,-0.7526,-0.7591,-0.7912,-0.8096,-0.7877,-0.82,-0.9128,-0.9728,-1.0117,-1.0498,-1.0926,-1.1303,-1.1178,-1.1435,-1.1498,1.3318,1.117,0.892,0.8038,0.7939,0.7842,0.7646,0.7543,0.7441,0.7337,0.7356,0.7253,0.7012,0.6744,0.656,0.6257,0.6,0.5733,0.5733,0.573,0.5997,0.6083,0.5997,0.6083,0.5997,0.5822,0.5735,0.5733,0.5733,0.5733,0.5733,0.5733,0.5733,0.562,0.5574,0.5589,0.5416,0.5415,0.5273,0.5167,0.5121,0.5056,0.5018,0.5018,0.5018,0.5002,0.5043,0.2281,0.0375,-0.0747,-0.1021,-0.115,-0.1149,-0.114,-0.1139,-0.115,-0.1161,-0.1166,-0.1166,-0.1166,-0.1176,-0.1194,-0.1345,-0.143,-0.145,-0.1621,-0.1784,-0.1787,-0.2027,-0.2106,-0.2101,-0.2265,-0.2431,-0.2431,-0.2824,-0.3139,-0.3297,-0.3919,-0.4462,-0.4621,-0.4781,-0.5018,-0.5018,-0.5018,-0.5171,-0.5476,-0.5786,-0.6093,-0.6506,-0.695,-0.7225,-0.7236,-0.7328,-0.7456,-0.726,-0.7326,-0.7526,-0.7526,-0.7526,-0.7521,-0.7521,-0.7907,-0.8296,-0.8613,-0.8382,-0.8762,-0.9824,-1.0548,-1.0884,-1.1066,-1.156,-1.1498,-1.1428,-1.1428,-1.1373,1.2441,1.0974,0.892,0.7939,0.7839,0.7646,0.7547,0.7344,0.7138,0.7066,0.7127,0.6991,0.6858,0.6816,0.6496,0.608,0.573,0.573,0.5733,0.5733,0.5911,0.5908,0.573,0.5908,0.5908,0.5733,0.5733,0.5733,0.5733,0.5733,0.5733,0.5733,0.5733,0.5733,0.5719,0.5648,0.551,0.544,0.5382,0.5273,0.5192,0.5113,0.4891,0.4626,0.4781,0.5023,0.4951,0.2774,0.0611,-0.0993,-0.1272,-0.1176,-0.1168,-0.1176,-0.1181,-0.1182,-0.1191,-0.127,-0.127,-0.1196,-0.128,-0.13,-0.1457,-0.1546,-0.1649,-0.1886,-0.1964,-0.2042,-0.2196,-0.2273,-0.2353,-0.251,-0.2668,-0.2666,-0.3137,-0.345,-0.3528,-0.4151,-0.4543,-0.4623,-0.4859,-0.5018,-0.5018,-0.5171,-0.5479,-0.586,-0.6167,-0.6696,-0.6988,-0.7294,-0.7478,-0.7408,-0.7481,-0.7494,-0.7456,-0.7461,-0.7526,-0.7521,-0.7587,-0.7587,-0.7907,-0.8361,-0.8742,-0.8994,-0.9302,-0.9742,-1.0382,-1.117,-1.1498,-1.156,-1.156,-1.1498,-1.1435,-1.1303,-1.124,1.1268,1.0877,0.8924,0.7942,0.7743,0.7646,0.7244,0.6842,0.6845,0.6776,0.6763,0.6524,0.6596,0.6551,0.634,0.6002,0.5813,0.5816,0.5733,0.5735,0.5733,0.5733,0.5733,0.5733,0.5733,0.5733,0.5733,0.5733,0.5733,0.5733,0.5733,0.5733,0.5733,0.5733,0.5733,0.5716,0.5579,0.5494,0.5446,0.542,0.5222,0.5103,0.4559,0.3692,0.4233,0.4626,0.4714,0.2898,0.086,-0.1016,-0.1228,-0.1198,-0.1182,-0.1198,-0.1212,-0.1216,-0.1239,-0.1331,-0.1332,-0.125,-0.1404,-0.1488,-0.1569,-0.1724,-0.1885,-0.2042,-0.2196,-0.2196,-0.2353,-0.251,-0.251,-0.2824,-0.2902,-0.2666,-0.3526,-0.4151,-0.4226,-0.4623,-0.5018,-0.494,-0.5018,-0.5018,-0.5093,-0.5479,-0.5864,-0.617,-0.6839,-0.7546,-0.7558,-0.7771,-0.7929,-0.782,-0.7621,-0.7475,-0.7526,-0.7526,-0.7521,-0.7587,-0.7652,-0.7782,-0.8361,-0.8877,-0.939,-0.9703,-0.9939,-1.0375,-1.0836,-1.1498,-1.1498,-1.156,-1.1567,-1.1505,-1.131,-1.1115,-1.1178,1.156,1.0783,0.9414,0.8825,0.8528,0.7736,0.7141,0.6745,0.6642,0.6617,0.6665,0.6551,0.6709,0.6858,0.6633,0.643,0.6349,0.626,0.5994,0.5733,0.5733,0.5733,0.5733,0.5733,0.5733,0.5733,0.5733,0.5733,0.5733,0.5733,0.5733,0.5733,0.5733,0.5733,0.5733,0.5733,0.5708,0.5673,0.5502,0.5419,0.5165,0.4444,0.3873,0.3287,0.2606,0.2193,0.235,0.1803,0.0549,-0.1256,-0.1327,-0.1239,-0.1309,-0.1238,-0.1243,-0.1244,-0.1329,-0.1336,-0.1336,-0.1336,-0.1336,-0.1415,-0.1651,-0.1808,-0.1965,-0.2199,-0.2353,-0.2431,-0.251,-0.251,-0.2588,-0.3137,-0.3215,-0.2588,-0.3604,-0.4384,-0.4307,-0.4701,-0.494,-0.5018,-0.5018,-0.5018,-0.5093,-0.5556,-0.6093,-0.6531,-0.7227,-0.7646,-0.7997,-0.7943,-0.7881,-0.7768,-0.766,-0.7591,-0.7652,-0.7912,-0.8102,-0.8231,-0.8296,-0.8425,-0.8941,-0.939,-0.9907,-1.0345,-1.0647,-1.0899,-1.1421,-1.156,-1.1498,-1.1435,-1.1373,-1.1247,-1.1059,-1.0996,-1.0996,1.1663,1.0587,0.9509,0.9023,0.8726,0.7537,0.6939,0.6642,0.6439,0.6439,0.6608,0.646,0.6631,0.6714,0.6462,0.6427,0.6526,0.6346,0.6171,0.5997,0.5911,0.5822,0.5733,0.5733,0.5733,0.5733,0.5733,0.5733,0.5733,0.5733,0.5733,0.5733,0.5733,0.5733,0.5733,0.5733,0.5733,0.5722,0.5569,0.542,0.5009,0.4216,0.3379,0.2598,0.1439,0.0712,0.0392,0.0314,-0.0157,-0.11,-0.1336,-0.1336,-0.1336,-0.1335,-0.1336,-0.1336,-0.1336,-0.1336,-0.1336,-0.1336,-0.1493,-0.1572,-0.1807,-0.2043,-0.212,-0.2354,-0.251,-0.251,-0.251,-0.251,-0.2588,-0.3294,-0.345,-0.3059,-0.3997,-0.4543,-0.4543,-0.4779,-0.494,-0.5018,-0.5018,-0.5093,-0.5401,-0.5864,-0.6451,-0.7007,-0.7513,-0.7784,-0.8121,-0.7952,-0.781,-0.7755,-0.7617,-0.7666,-0.7912,-0.8231,-0.8683,-0.8941,-0.9069,-0.9326,-0.9709,-0.997,-1.0421,-1.0863,-1.117,-1.1226,-1.1622,-1.149,-1.1428,-1.1303,-1.1247,-1.1122,-1.0933,-1.087,-1.087,1.1282,1.0194,0.9217,0.8627,0.8329,0.7238,0.6639,0.6437,0.6437,0.6437,0.6391,0.6319,0.6295,0.6315,0.6054,0.6117,0.6343,0.6257,0.6257,0.6257,0.6169,0.5908,0.5735,0.5733,0.5733,0.5733,0.5733,0.5733,0.5733,0.5733,0.5733,0.5733,0.5733,0.5733,0.5733,0.5733,0.5733,0.5733,0.5727,0.5489,0.5137,0.4239,0.3222,0.1957,0.1134,0.024,-0.063,-0.0942,-0.1178,-0.1336,-0.1336,-0.1336,-0.1336,-0.1336,-0.1336,-0.1336,-0.1336,-0.1336,-0.1336,-0.1415,-0.1573,-0.1808,-0.1963,-0.2273,-0.2353,-0.2431,-0.251,-0.251,-0.251,-0.251,-0.2666,-0.3215,-0.3606,-0.3919,-0.4465,-0.4859,-0.5018,-0.5018,-0.5018,-0.5093,-0.5093,-0.5323,-0.5857,-0.6542,-0.6995,-0.7422,-0.7855,-0.7999,-0.7947,-0.7777,-0.7669,-0.7636,-0.7615,-0.7922,-0.8166,-0.8941,-0.939,-0.9646,-0.9901,-1.0218,-1.0415,-1.0611,-1.08,-1.1247,-1.1498,-1.156,-1.156,-1.1428,-1.1365,-1.1247,-1.1122,-1.0996,-1.087,-1.0807,-1.0744,1.0583,0.8909,0.8623,0.8425,0.8219,0.7238,0.6642,0.6437,0.6437,0.6531,0.6603,0.6388,0.6438,0.6635,0.6293,0.6265,0.6364,0.6343,0.6257,0.6169,0.6083,0.5908,0.5733,0.5733,0.5733,0.5733,0.5733,0.5733,0.5733,0.5733,0.5733,0.5733,0.5733,0.5733,0.5733,0.5733,0.5735,0.5741,0.5738,0.5544,0.5147,0.428,0.3336,0.2501,0.1065,0.0161,-0.0393,-0.0942,-0.1336,-0.1336,-0.1336,-0.1336,-0.1336,-0.1336,-0.1336,-0.1336,-0.1336,-0.1336,-0.1336,-0.1336,-0.1493,-0.1651,-0.1886,-0.2042,-0.2273,-0.2431,-0.251,-0.251,-0.251,-0.251,-0.2588,-0.2981,-0.3528,-0.4151,-0.4701,-0.5018,-0.5018,-0.5018,-0.5171,-0.5553,-0.5631,-0.6015,-0.6535,-0.6992,-0.7352,-0.7556,-0.7803,-0.7933,-0.7768,-0.7707,-0.7607,-0.7775,-0.7852,-0.8166,-0.8678,-0.9518,-1.0098,-1.0351,-1.0667,-1.1108,-1.1178,-1.124,-1.1373,-1.156,-1.1498,-1.149,-1.1498,-1.1435,-1.131,-1.1122,-1.0996,-1.087,-1.0744,-1.0618,-1.0618,0.9797,0.8219,0.8223,0.8223,0.812,0.7033,0.6539,0.6426,0.6481,0.6561,0.6625,0.6571,0.6455,0.6563,0.6341,0.6248,0.626,0.6257,0.6257,0.6257,0.6171,0.5997,0.5911,0.5822,0.5908,0.5994,0.5994,0.5994,0.5908,0.5908,0.5819,0.5733,0.5733,0.5733,0.5733,0.5733,0.5735,0.5741,0.5741,0.556,0.5285,0.461,0.3633,0.262,0.1076,0.0081,-0.0553,-0.1099,-0.1336,-0.1336,-0.1336,-0.1336,-0.1336,-0.1336,-0.1336,-0.1336,-0.1336,-0.1336,-0.1336,-0.1415,-0.1573,-0.1729,-0.1964,-0.2198,-0.2353,-0.2431,-0.251,-0.251,-0.251,-0.251,-0.2588,-0.2902,-0.3526,-0.4229,-0.4779,-0.5018,-0.5018,-0.5249,-0.5479,-0.5864,-0.6173,-0.6556,-0.7165,-0.7397,-0.7565,-0.773,-0.7785,-0.7806,-0.764,-0.7593,-0.7517,-0.7702,-0.8221,-0.8678,-0.9192,-0.9964,-1.0541,-1.0863,-1.1052,-1.156,-1.156,-1.156,-1.156,-1.156,-1.149,-1.1428,-1.1365,-1.131,-1.1122,-1.0933,-1.0807,-1.0751,-1.0618,-1.0618,-1.0618,0.8814,0.7925,0.7826,0.7826,0.7624,0.6833,0.6423,0.6396,0.651,0.6551,0.6585,0.6566,0.6495,0.6359,0.6256,0.6174,0.6169,0.6169,0.6254,0.6254,0.6257,0.6171,0.6174,0.5994,0.6083,0.6171,0.634,0.6169,0.6086,0.5997,0.5908,0.5735,0.5735,0.5735,0.5738,0.5738,0.5738,0.5744,0.5746,0.5295,0.4846,0.4467,0.368,0.2449,0.1326,-0.0081,-0.0872,-0.1336,-0.1336,-0.1336,-0.1336,-0.1336,-0.1336,-0.1336,-0.1336,-0.1336,-0.1336,-0.1336,-0.1336,-0.1573,-0.1808,-0.1887,-0.2199,-0.2431,-0.2433,-0.2431,-0.251,-0.251,-0.251,-0.251,-0.2588,-0.2901,-0.3368,-0.4073,-0.4623,-0.4937,-0.5093,-0.5553,-0.5938,-0.6093,-0.671,-0.7246,-0.7639,-0.7746,-0.7702,-0.7774,-0.777,-0.7673,-0.7697,-0.7826,-0.7697,-0.7534,-0.8259,-0.9186,-0.9767,-1.0408,-1.0919,-1.131,-1.1365,-1.1622,-1.156,-1.156,-1.156,-1.149,-1.1365,-1.1303,-1.124,-1.1052,-1.0863,-1.0807,-1.0744,-1.0681,-1.0618,-1.0618,-1.0618,0.8031,0.7039,0.6836,0.6734,0.6734,0.6534,0.6382,0.6301,0.6374,0.639,0.6481,0.6429,0.6456,0.6627,0.6406,0.6343,0.6346,0.6343,0.634,0.634,0.634,0.6435,0.6438,0.6086,0.5822,0.5997,0.6083,0.5994,0.5911,0.5997,0.5997,0.5735,0.5741,0.5652,0.5565,0.5479,0.567,0.5673,0.567,0.4945,0.3859,0.34,0.2894,0.2103,0.1384,0.0239,-0.0947,-0.1336,-0.1336,-0.1336,-0.1336,-0.1336,-0.1336,-0.1336,-0.1336,-0.1336,-0.1336,-0.1336,-0.1336,-0.1415,-0.1493,-0.173,-0.1964,-0.212,-0.2275,-0.2431,-0.251,-0.251,-0.251,-0.251,-0.251,-0.2588,-0.3057,-0.3684,-0.4462,-0.5085,-0.5162,-0.555,-0.6325,-0.7092,-0.7472,-0.7732,-0.8193,-0.8011,-0.7952,-0.7877,-0.7702,-0.7536,-0.7746,-0.8047,-0.8081,-0.7921,-0.8837,-0.9831,-1.0275,-1.0787,-1.1178,-1.1498,-1.156,-1.156,-1.1498,-1.1505,-1.1435,-1.131,-1.1178,-1.1115,-1.1052,-1.0926,-1.0807,-1.0744,-1.0681,-1.0618,-1.0618,-1.0618,-1.0618,0.7245,0.6747,0.6393,0.6274,0.6271,0.6274,0.6238,0.6274,0.6311,0.6347,0.6357,0.633,0.6364,0.6451,0.6379,0.6343,0.6343,0.6343,0.6428,0.6428,0.6428,0.6428,0.6523,0.6349,0.6083,0.6349,0.6526,0.6349,0.6171,0.6083,0.6086,0.5741,0.5657,0.5114,0.4482,0.4399,0.431,0.4585,0.5315,0.5133,0.4318,0.2309,0.1472,0.1164,0.0641,-0.0157,-0.0943,-0.1258,-0.1258,-0.1336,-0.1336,-0.1336,-0.1336,-0.1336,-0.1336,-0.1336,-0.1336,-0.1336,-0.1336,-0.1415,-0.1493,-0.1651,-0.1886,-0.2119,-0.2275,-0.2431,-0.251,-0.251,-0.251,-0.251,-0.251,-0.3214,-0.345,-0.3839,-0.4849,-0.5622,-0.6012,-0.6402,-0.6865,-0.7629,-0.794,-0.8138,-0.8351,-0.8198,-0.7999,-0.7825,-0.7702,-0.7545,-0.7741,-0.8047,-0.8619,-0.8854,-0.9761,-1.0478,-1.085,-1.117,-1.1428,-1.156,-1.156,-1.1498,-1.1435,-1.1373,-1.131,-1.1185,-1.1115,-1.0989,-1.0926,-1.0807,-1.0744,-1.0681,-1.0618,-1.0618,-1.0618,-1.0618,-1.0618,0.6816,0.671,0.6412,0.6181,0.6178,0.6186,0.6272,0.623,0.6325,0.6377,0.6321,0.6388,0.6456,0.6263,0.6438,0.6432,0.6346,0.6432,0.6609,0.6605,0.6605,0.6609,0.652,0.6343,0.6343,0.6874,0.6605,0.6428,0.6077,0.6074,0.5547,0.5473,0.5206,0.4757,0.3676,0.2599,0.242,0.2602,0.3595,0.423,0.3946,0.0,0.0,0.0164,-0.008,-0.0472,-0.0943,-0.1179,-0.1336,-0.1336,-0.1336,-0.1336,-0.1336,-0.1336,-0.1336,-0.1336,-0.1336,-0.1336,-0.1336,-0.1415,-0.1573,-0.1651,-0.1885,-0.2198,-0.2354,-0.2431,-0.2431,-0.2588,-0.2666,-0.2821,-0.2823,-0.368,-0.4304,-0.4693,-0.5544,-0.6398,-0.6945,-0.7334,-0.7565,-0.771,-0.8152,-0.8444,-0.8314,-0.816,-0.7971,-0.7777,-0.7655,-0.7591,-0.7852,-0.8306,-0.8877,-0.95,-1.0268,-1.0856,-1.1233,-1.1296,-1.156,-1.156,-1.156,-1.1498,-1.1373,-1.131,-1.1247,-1.1185,-1.1052,-1.0926,-1.0807,-1.0744,-1.0681,-1.0618,-1.0618,-1.0618,-1.0618,-1.0618,-1.0618,0.7155,0.7058,0.6753,0.6652,0.6649,0.6649,0.6578,0.6495,0.6548,0.6479,0.6382,0.6624,0.6704,0.6707,0.6877,0.6962,0.6874,0.6874,0.6962,0.6874,0.6874,0.6786,0.6609,0.5985,0.5894,0.5805,0.5716,0.545,0.5186,0.465,0.4654,0.4391,0.3853,0.3678,0.3593,0.0,0.0,0.0,0.0,0.0,0.0,0.0,0.0,0.0,0.0,-0.0472,-0.1022,-0.1258,-0.1336,-0.1336,-0.1336,-0.1336,-0.1336,-0.1336,-0.1336,-0.1336,-0.1336,-0.1336,-0.1336,-0.1336,-0.1336,-0.1414,-0.1649,-0.1886,-0.2043,-0.2275,-0.2508,-0.2821,-0.321,-0.3599,-0.3599,-0.4457,-0.4846,-0.5157,-0.5699,-0.6314,-0.6619,-0.7153,-0.7753,-0.7938,-0.8312,-0.8548,-0.8196,-0.7972,-0.7739,-0.7634,-0.7546,-0.7787,-0.8107,-0.8748,-0.9448,-1.0009,-1.0627,-1.1094,-1.156,-1.1498,-1.156,-1.1498,-1.1498,-1.1498,-1.1373,-1.1247,-1.1122,-1.1122,-1.0996,-1.0807,-1.0744,-1.0681,-1.0618,-1.0618,-1.0618,-1.0618,-1.0618,-1.0618,-1.0618,0.7108,0.7009,0.6658,0.6536,0.6627,0.6721,0.6684,0.6538,0.6529,0.6493,0.6447,0.652,0.6609,0.6612,0.6881,0.6962,0.7051,0.7139,0.7139,0.7051,0.6609,0.634,0.6251,0.545,0.5092,0.4825,0.4469,0.4293,0.4385,0.4115,0.376,0.3494,0.2956,0.2778,0.2423,0.0,0.0,0.0,0.0,0.0,0.0,0.0,0.0,0.0,0.0,0.0,-0.0471,-0.0864,-0.0943,-0.1022,-0.1179,-0.1258,-0.1336,-0.1336,-0.1336,-0.1336,-0.1336,-0.1336,-0.1336,-0.1336,-0.1336,-0.1336,-0.1493,-0.1573,-0.1886,-0.2275,-0.2898,-0.3521,-0.399,-0.4457,-0.4457,-0.5154,-0.5544,-0.5774,-0.6318,-0.667,-0.6844,-0.7283,-0.7609,-0.7864,-0.8,-0.7947,-0.7751,-0.7573,-0.7473,-0.7417,-0.7428,-0.7852,-0.8361,-0.928,-1.0123,-1.0135,-1.0627,-1.1031,-1.1373,-1.1435,-1.1435,-1.1435,-1.1442,-1.1442,-1.1373,-1.1185,-1.1129,-1.1129,-1.094,-1.0744,-1.0681,-1.0624,-1.0618,-1.0618,-1.0618,-1.0618,-1.0618,-1.0618,-1.0618,0.7057,0.6956,0.6567,0.6428,0.652,0.67,0.6704,0.652,0.6523,0.6612,0.6517,0.652,0.6609,0.652,0.6612,0.6704,0.6969,0.6789,0.6425,0.6248,0.5716,0.545,0.5181,0.4559,0.4024,0.3846,0.3132,0.3047,0.3492,0.3312,0.3045,0.2688,0.2329,0.1701,0.0717,0.0359,0.0,0.0,0.0,0.0,0.0,0.0,0.0,0.0,0.0,0.0,0.0,-0.0314,-0.0707,-0.0943,-0.1179,-0.1336,-0.1336,-0.1336,-0.1336,-0.1336,-0.1336,-0.1336,-0.1336,-0.1336,-0.1335,-0.1335,-0.1649,-0.1728,-0.2196,-0.2974,-0.3754,-0.4608,-0.5076,-0.5234,-0.5312,-0.6009,-0.6395,-0.6553,-0.7007,-0.7427,-0.7226,-0.729,-0.7269,-0.7385,-0.753,-0.7472,-0.7384,-0.7391,-0.7382,-0.7394,-0.7405,-0.8042,-0.8689,-1.011,-1.0692,-1.0408,-1.0508,-1.0912,-1.1122,-1.1192,-1.1192,-1.1254,-1.1254,-1.1254,-1.1185,-1.1059,-1.1059,-1.1003,-1.0814,-1.0618,-1.0624,-1.0624,-1.0624,-1.0618,-1.0618,-1.0618,-1.0618,-1.0618,-1.0618,0.7078,0.7078,0.6972,0.7048,0.6966,0.7054,0.7051,0.7051,0.6962,0.7051,0.6962,0.6962,0.6962,0.6697,0.6074,0.6352,0.6355,0.563,0.4819,0.4641,0.4465,0.4467,0.4289,0.3491,0.3133,0.2955,0.2152,0.224,0.2598,0.224,0.1793,0.1704,0.1704,0.1345,0.0987,0.0359,0.0,0.0,0.0,0.0,0.0,0.0,0.0,0.0,0.0,0.0,0.0,0.0,-0.0393,-0.1022,-0.1179,-0.1336,-0.1336,-0.1336,-0.1336,-0.1336,-0.1336,-0.1336,-0.1415,-0.1415,-0.1335,-0.1489,-0.196,-0.2663,-0.3287,-0.3908,-0.4611,-0.4924,-0.5622,-0.6009,-0.6167,-0.6788,-0.7173,-0.7238,-0.7298,-0.7366,-0.7244,-0.7066,-0.7044,-0.6909,-0.7019,-0.7129,-0.7142,-0.7197,-0.7234,-0.7309,-0.7536,-0.8172,-0.9011,-1.036,-1.11,-1.0688,-1.0451,-1.0793,-1.0933,-1.0996,-1.1003,-1.1003,-1.1003,-1.1003,-1.1003,-1.0933,-1.087,-1.0814,-1.0618,-1.0618,-1.0688,-1.0624,-1.0618,-1.0618,-1.0618,-1.0618,-1.0618,-1.0618,-1.0618,0.7139,0.7139,0.7139,0.7139,0.7139,0.7139,0.7139,0.7139,0.7139,0.7139,0.7139,0.7139,0.6874,0.6251,0.5361,0.5095,0.5277,0.4648,0.357,0.3124,0.3217,0.3489,0.331,0.2597,0.2061,0.2062,0.1704,0.1614,0.1792,0.1704,0.1436,0.1436,0.1436,0.1345,0.1256,0.0628,0.0,0.0,0.0,0.0,0.0,0.0,0.0,0.0,0.0,0.0,0.0,0.0,0.0,-0.0629,-0.0707,-0.0943,-0.11,-0.1413,-0.1805,-0.2041,-0.2353,-0.2353,-0.2119,-0.2041,-0.1803,-0.18,-0.2501,-0.3599,-0.43,-0.4844,-0.5389,-0.586,-0.6321,-0.6553,-0.671,-0.7103,-0.733,-0.7387,-0.7307,-0.7232,-0.7102,-0.696,-0.681,-0.6664,-0.6546,-0.6764,-0.6844,-0.6823,-0.7069,-0.7404,-0.7722,-0.8361,-0.9262,-1.0384,-1.0841,-1.0877,-1.0667,-1.0674,-1.0681,-1.0744,-1.0744,-1.0814,-1.0744,-1.0814,-1.0814,-1.0751,-1.0751,-1.0688,-1.0618,-1.0624,-1.0688,-1.0688,-1.0618,-1.0618,-1.0618,-1.0618,-1.0618,-1.0618,-1.0618,0.7316,0.7319,0.7143,0.7139,0.7139,0.7139,0.7139,0.7139,0.7139,0.7139,0.7139,0.7051,0.6605,0.5628,0.4825,0.4469,0.4295,0.3846,0.2949,0.2323,0.2326,0.2777,0.2777,0.2151,0.1882,0.1793,0.1794,0.1705,0.1615,0.1525,0.1436,0.1436,0.1436,0.1346,0.1166,0.0986,0.0716,0.0,0.0,0.0,0.0,0.0,0.0,0.0,0.0,0.0,0.0,0.0,0.0,-0.0157,-0.1571,-0.22,-0.22,-0.2433,-0.2666,-0.2823,-0.3057,-0.3134,-0.2978,-0.2898,-0.2501,-0.2655,-0.3355,-0.4768,-0.5315,-0.5544,-0.5854,-0.656,-0.671,-0.6945,-0.7096,-0.7073,-0.7095,-0.7108,-0.7104,-0.6937,-0.6857,-0.6678,-0.6627,-0.6495,-0.6406,-0.6457,-0.6527,-0.6444,-0.6758,-0.74,-0.7972,-0.8619,-0.9524,-1.0561,-1.0688,-1.0744,-1.0744,-1.0618,-1.0618,-1.0618,-1.0618,-1.0618,-1.0618,-1.0618,-1.0624,-1.0624,-1.0618,-1.0618,-1.0618,-1.0618,-1.0624,-1.0618,-1.0618,-1.0618,-1.0618,-1.0618,-1.0618,-1.0618,-1.0618,0.7856,0.7764,0.7319,0.7139,0.7139,0.7139,0.7139,0.7143,0.7139,0.7139,0.7051,0.6962,0.6428,0.5539,0.4648,0.4117,0.4125,0.2422,0.2331,0.251,0.2512,0.2601,0.2689,0.2688,0.2688,0.2599,0.2332,0.2154,0.2064,0.1794,0.1615,0.1436,0.1436,0.1436,0.1344,0.1251,0.1058,0.0693,0.0588,0.0412,0.0162,0.0,0.0,0.0,0.0,0.0,0.0,0.0,0.0,-0.0392,-0.2356,-0.3932,-0.3773,-0.3688,-0.3684,-0.3684,-0.3602,-0.3759,-0.3912,-0.3832,-0.3671,-0.4057,-0.4919,-0.5867,-0.6096,-0.6405,-0.6637,-0.6714,-0.6714,-0.685,-0.6812,-0.6753,-0.6768,-0.6744,-0.6722,-0.6587,-0.653,-0.6441,-0.6328,-0.6266,-0.6284,-0.6288,-0.635,-0.6284,-0.7003,-0.7647,-0.8619,-0.9326,-0.9779,-1.0624,-1.0624,-1.0618,-1.0618,-1.0618,-1.0618,-1.0618,-1.0618,-1.0618,-1.0618,-1.0618,-1.0618,-1.0618,-1.0618,-1.0618,-1.0618,-1.0618,-1.0618,-1.0618,-1.0618,-1.0618,-1.0618,-1.0618,-1.0618,-1.0618,-1.0618,0.7944,0.7856,0.7676,0.7588,0.7588,0.7584,0.7588,0.7588,0.7588,0.7323,0.6877,0.634,0.563,0.4741,0.3848,0.3042,0.2597,0.2598,0.2599,0.269,0.2778,0.2778,0.2867,0.2956,0.2867,0.2867,0.2689,0.2599,0.2599,0.2331,0.2153,0.1973,0.1612,0.1436,0.1433,0.1413,0.1209,0.1093,0.0987,0.0891,0.0795,0.0475,0.0393,0.0393,0.0393,-0.0392,0.0,0.0,0.0,-0.1881,-0.2979,-0.3925,-0.4797,-0.4553,-0.447,-0.447,-0.4307,-0.4538,-0.4696,-0.4538,-0.4455,-0.5076,-0.5783,-0.6338,-0.6412,-0.6412,-0.6412,-0.6486,-0.6553,-0.6597,-0.6479,-0.6503,-0.6448,-0.6401,-0.6347,-0.622,-0.6211,-0.6131,-0.6142,-0.6036,-0.602,-0.6086,-0.6152,-0.6214,-0.706,-0.7967,-0.9,-0.9907,-1.0295,-1.0618,-1.0618,-1.0618,-1.0618,-1.0618,-1.0618,-1.0618,-1.0618,-1.0618,-1.0618,-1.0618,-1.0618,-1.0618,-1.0618,-1.0618,-1.0618,-1.0618,-1.0618,-1.0618,-1.0618,-1.0618,-1.0618,-1.0618,-1.0618,-1.0618,-1.0618,0.812,0.8124,0.812,0.8032,0.7944,0.7944,0.7944,0.7944,0.7856,0.7503,0.6704,0.5897,0.5008,0.4297,0.3673,0.2865,0.2506,0.2597,0.3045,0.3136,0.3226,0.3226,0.3315,0.3405,0.3403,0.3314,0.3136,0.3136,0.3136,0.2956,0.2675,0.2312,0.1955,0.1775,0.1412,0.1383,0.1343,0.1312,0.129,0.1282,0.1259,0.1022,0.0786,0.0707,0.0393,-0.0314,-0.1569,-0.2198,-0.2827,-0.2824,-0.3215,-0.3684,-0.4394,-0.4867,-0.5018,-0.5018,-0.5093,-0.5246,-0.509,-0.5162,-0.5082,-0.5625,-0.6022,-0.6257,-0.6261,-0.6261,-0.6335,-0.6331,-0.63,-0.6218,-0.6226,-0.6159,-0.6064,-0.6005,-0.5949,-0.5837,-0.5891,-0.584,-0.5874,-0.5818,-0.5888,-0.5954,-0.6148,-0.6276,-0.712,-0.8161,-0.9396,-1.0104,-1.0428,-1.0618,-1.0618,-1.0618,-1.0618,-1.0618,-1.0618,-1.0561,-1.0561,-1.0618,-1.0618,-1.0618,-1.0618,-1.0555,-1.0555,-1.0618,-1.0618,-1.0618,-1.0618,-1.0618,-1.0618,-1.0618,-1.0555,-1.0555,-1.0618,-1.0618,-1.0618,0.8568,0.8572,0.8568,0.83,0.7944,0.7944,0.7944,0.7856,0.7764,0.7411,0.6704,0.5988,0.5188,0.4476,0.4119,0.3582,0.3045,0.3045,0.3406,0.3944,0.3853,0.3942,0.4032,0.4208,0.4117,0.4121,0.3851,0.3673,0.3575,0.3298,0.3008,0.2705,0.2514,0.2162,0.147,0.1335,0.1306,0.1299,0.1352,0.1341,0.1258,0.1179,0.1179,0.0786,0.0236,-0.0471,-0.1413,-0.2514,-0.3144,-0.3536,-0.3686,-0.3999,-0.4235,-0.4628,-0.4862,-0.4937,-0.494,-0.5015,-0.5018,-0.5476,-0.5625,-0.5702,-0.5944,-0.6183,-0.6261,-0.6251,-0.6227,-0.6196,-0.6112,-0.6037,-0.5922,-0.5796,-0.5755,-0.5638,-0.5589,-0.5607,-0.56,-0.5663,-0.5634,-0.5624,-0.5756,-0.5954,-0.6148,-0.6474,-0.7251,-0.835,-0.9716,-1.0301,-1.0428,-1.0561,-1.0568,-1.0555,-1.0555,-1.0561,-1.0561,-1.0561,-1.0561,-1.0561,-1.0555,-1.0555,-1.0555,-1.0555,-1.0555,-1.0555,-1.0491,-1.0434,-1.0491,-1.0618,-1.0555,-1.0555,-1.0561,-1.0561,-1.0555,-1.0555,-1.0555,0.8572,0.8572,0.8572,0.8208,0.776,0.8208,0.812,0.7672,0.7316,0.6874,0.6346,0.5899,0.5277,0.4746,0.4389,0.4119,0.3851,0.4032,0.4482,0.4656,0.4567,0.4654,0.4743,0.4743,0.4739,0.4654,0.4474,0.4257,0.4206,0.3862,0.3467,0.3158,0.2856,0.233,0.1907,0.1711,0.1618,0.1354,0.1341,0.1336,0.1336,0.1258,0.1022,0.0629,0.0079,-0.0628,-0.1412,-0.2592,-0.3064,-0.3614,-0.3843,-0.3921,-0.3921,-0.4233,-0.4389,-0.4545,-0.4621,-0.4779,-0.4935,-0.5243,-0.5395,-0.547,-0.5631,-0.6025,-0.618,-0.6,-0.6046,-0.6074,-0.5962,-0.5864,-0.5711,-0.5671,-0.5579,-0.5531,-0.5446,-0.5442,-0.5505,-0.5502,-0.5495,-0.5491,-0.5561,-0.5624,-0.5818,-0.6145,-0.6859,-0.7507,-0.8678,-0.9588,-0.9843,-1.0314,-1.0518,-1.0498,-1.0428,-1.0498,-1.0498,-1.0434,-1.0371,-1.0371,-1.0428,-1.0428,-1.0428,-1.0428,-1.0428,-1.0364,-1.0301,-1.018,-1.0301,-1.0364,-1.0491,-1.0491,-1.0434,-1.0434,-1.0434,-1.0428,-1.0428,0.856,0.8556,0.8208,0.7848,0.7492,0.8032,0.794,0.7224,0.6605,0.6166,0.5813,0.5455,0.501,0.4748,0.4569,0.4297,0.4385,0.4656,0.5015,0.5191,0.501,0.501,0.4921,0.4999,0.4891,0.4886,0.4861,0.4646,0.4552,0.4466,0.4071,0.3656,0.317,0.2823,0.2489,0.224,0.1992,0.1812,0.1727,0.1413,0.1178,0.0942,0.0629,0.0079,-0.0392,-0.0941,-0.1725,-0.2273,-0.2588,-0.3215,-0.345,-0.353,-0.3606,-0.3841,-0.4075,-0.4307,-0.4543,-0.4701,-0.5015,-0.5029,-0.5092,-0.5089,-0.5372,-0.5607,-0.5803,-0.5635,-0.5635,-0.5712,-0.5663,-0.5637,-0.5467,-0.5503,-0.5481,-0.5369,-0.5362,-0.5362,-0.5428,-0.5428,-0.5428,-0.5428,-0.5428,-0.5491,-0.5554,-0.5877,-0.6334,-0.692,-0.7507,-0.835,-0.9198,-0.9664,-0.9996,-0.9983,-0.9901,-0.9837,-0.9977,-1.018,-1.018,-1.018,-1.0238,-1.0301,-1.0238,-1.0238,-1.0238,-1.0174,-1.011,-1.0047,-1.0047,-1.011,-1.0174,-1.0174,-1.018,-1.018,-1.0244,-1.0238,-1.0168,0.854,0.8452,0.7577,0.7228,0.7228,0.7584,0.7316,0.6691,0.5813,0.5463,0.5371,0.4835,0.4656,0.475,0.475,0.4565,0.4472,0.483,0.5176,0.5442,0.5245,0.5159,0.5058,0.5049,0.5082,0.4875,0.4846,0.4806,0.4711,0.4585,0.4369,0.4144,0.3826,0.348,0.3077,0.284,0.2519,0.2277,0.1803,0.149,0.1176,0.055,0.0079,-0.0471,-0.102,-0.1412,-0.196,-0.2273,-0.2431,-0.2744,-0.2902,-0.2982,-0.3294,-0.3839,-0.4151,-0.4384,-0.4623,-0.4758,-0.4817,-0.4814,-0.4838,-0.4914,-0.522,-0.5205,-0.5072,-0.5226,-0.5368,-0.535,-0.5313,-0.5335,-0.5277,-0.5338,-0.5326,-0.5362,-0.5359,-0.5359,-0.5428,-0.5428,-0.5428,-0.5428,-0.5428,-0.5425,-0.5425,-0.5686,-0.5877,-0.6141,-0.6662,-0.6924,-0.7707,-0.849,-0.8818,-0.9,-0.8988,-0.9116,-0.9314,-0.9524,-0.9466,-0.9332,-0.9919,-1.0047,-0.9983,-0.9983,-1.0053,-0.9983,-0.9983,-0.9849,-0.9506,-0.9512,-0.9722,-0.9722,-0.9466,-0.9594,-0.9588,-0.9722,-0.9716,1.0024,0.985,0.8973,0.836,0.7742,0.6779,0.6343,0.6428,0.5725,0.5463,0.5555,0.5285,0.5099,0.5193,0.5013,0.4917,0.4914,0.509,0.5308,0.537,0.5423,0.537,0.5336,0.532,0.5283,0.5183,0.5073,0.4863,0.476,0.4698,0.4487,0.4346,0.4095,0.3925,0.3765,0.3528,0.3059,0.251,0.1959,0.141,0.094,0.0392,-0.0314,-0.1021,-0.1256,-0.1649,-0.2118,-0.2273,-0.251,-0.251,-0.2588,-0.2668,-0.2744,-0.2901,-0.3136,-0.3522,-0.3793,-0.4121,-0.4339,-0.4331,-0.4415,-0.463,-0.4891,-0.4888,-0.4764,-0.4853,-0.5,-0.5066,-0.5058,-0.5009,-0.499,-0.5071,-0.5096,-0.516,-0.5226,-0.5292,-0.5292,-0.5296,-0.5296,-0.5359,-0.5359,-0.5296,-0.5362,-0.5359,-0.5554,-0.562,-0.5818,-0.6013,-0.6404,-0.719,-0.7777,-0.7957,-0.8146,-0.821,-0.8409,-0.8613,-0.8549,-0.8549,-0.9075,-0.946,-0.9326,-0.9396,-0.9664,-0.967,-0.9472,-0.9058,-0.8639,-0.8784,-0.9005,-0.8613,-0.842,-0.8678,-0.8941,-0.9005,-0.9005,1.0292,0.9918,0.8888,0.8084,0.7295,0.6294,0.6013,0.6115,0.5766,0.5636,0.5641,0.5547,0.5523,0.5563,0.5468,0.5357,0.5305,0.5556,0.5698,0.5667,0.5647,0.5695,0.5641,0.5524,0.5513,0.5408,0.5202,0.4997,0.4895,0.4676,0.4548,0.455,0.4311,0.4233,0.4155,0.3997,0.3763,0.3056,0.2272,0.1332,0.0627,0.0078,-0.0785,-0.1336,-0.1493,-0.1885,-0.2198,-0.2275,-0.2352,-0.243,-0.2431,-0.251,-0.2579,-0.2647,-0.291,-0.3351,-0.3609,-0.3725,-0.3782,-0.3783,-0.3958,-0.4072,-0.4192,-0.4159,-0.438,-0.4493,-0.4591,-0.4745,-0.4748,-0.4697,-0.4764,-0.4761,-0.4894,-0.496,-0.5027,-0.516,-0.516,-0.5229,-0.5226,-0.5226,-0.5226,-0.5226,-0.5226,-0.5229,-0.5163,-0.5226,-0.5226,-0.5355,-0.562,-0.6145,-0.6732,-0.7111,-0.7242,-0.7372,-0.7572,-0.7772,-0.7837,-0.7837,-0.8096,-0.842,-0.8479,-0.8549,-0.8689,-0.8759,-0.8765,-0.835,-0.8006,-0.8016,-0.8096,-0.7772,-0.7512,-0.7707,-0.7902,-0.8032,-0.7967,1.0035,0.9502,0.8146,0.7321,0.6373,0.6186,0.6136,0.6059,0.6022,0.5775,0.5764,0.5772,0.5787,0.5798,0.5786,0.5738,0.5698,0.5843,0.591,0.6022,0.5853,0.5823,0.58,0.5744,0.5566,0.5436,0.5245,0.5055,0.4977,0.4859,0.4701,0.4701,0.4543,0.4465,0.4387,0.4307,0.3995,0.3448,0.243,0.1411,0.0157,-0.0628,-0.1258,-0.173,-0.1808,-0.1887,-0.1963,-0.2038,-0.219,-0.2267,-0.2335,-0.2408,-0.2542,-0.2671,-0.2984,-0.3163,-0.3285,-0.3268,-0.3243,-0.3329,-0.3365,-0.3326,-0.3211,-0.3336,-0.3623,-0.4059,-0.4308,-0.449,-0.4506,-0.4564,-0.4564,-0.4631,-0.4694,-0.4761,-0.4894,-0.496,-0.5027,-0.5027,-0.5027,-0.5027,-0.5027,-0.5027,-0.503,-0.503,-0.5027,-0.4897,-0.496,-0.5027,-0.5093,-0.5422,-0.5815,-0.6334,-0.64,-0.6597,-0.6859,-0.7055,-0.7125,-0.7256,-0.7386,-0.7447,-0.7572,-0.7582,-0.7591,-0.7782,-0.7972,-0.7782,-0.7517,-0.7447,-0.7246,-0.699,-0.6863,-0.6798,-0.6929,-0.6994,-0.6924,1.1711,1.1514,0.9978,0.8482,0.7083,0.6968,0.694,0.6954,0.6934,0.6551,0.6045,0.5957,0.5948,0.6005,0.5996,0.5957,0.5936,0.5967,0.6125,0.6075,0.6044,0.5922,0.5686,0.5621,0.5495,0.5466,0.5286,0.5056,0.5026,0.494,0.4937,0.4937,0.4701,0.4621,0.4621,0.454,0.4229,0.3761,0.2968,0.1797,0.0469,-0.0627,-0.1415,-0.1571,-0.1649,-0.1722,-0.1792,-0.1849,-0.1917,-0.1908,-0.1947,-0.2082,-0.2225,-0.2289,-0.2424,-0.2546,-0.2639,-0.2691,-0.281,-0.2908,-0.2942,-0.3133,-0.3105,-0.2827,-0.303,-0.3585,-0.3991,-0.4175,-0.4298,-0.43,-0.4367,-0.4364,-0.4431,-0.4561,-0.4625,-0.4691,-0.4827,-0.4827,-0.4827,-0.4827,-0.4827,-0.4831,-0.4831,-0.4831,-0.4827,-0.4894,-0.5024,-0.5024,-0.4957,-0.509,-0.5292,-0.5683,-0.5686,-0.5818,-0.6079,-0.6338,-0.6474,-0.6605,-0.6732,-0.6732,-0.6728,-0.6863,-0.6999,-0.712,-0.7242,-0.699,-0.6732,-0.6593,-0.6396,-0.6272,-0.6145,-0.6079,-0.5951,-0.6017,-0.5885,1.2049,1.1638,0.9932,0.8456,0.7319,0.7178,0.7144,0.7144,0.7144,0.6896,0.6448,0.6453,0.6414,0.6283,0.6188,0.6144,0.6121,0.6176,0.6205,0.6156,0.6146,0.6025,0.5814,0.5712,0.5646,0.5634,0.5404,0.5254,0.5096,0.5171,0.5168,0.5093,0.4935,0.4854,0.4932,0.4774,0.4457,0.3992,0.3571,0.2626,0.1084,-0.0234,-0.1245,-0.14,-0.1468,-0.1541,-0.1594,-0.1649,-0.1645,-0.1711,-0.1765,-0.1886,-0.2022,-0.2081,-0.2136,-0.2251,-0.229,-0.2272,-0.2467,-0.2517,-0.2622,-0.2757,-0.2757,-0.2487,-0.2484,-0.3032,-0.3372,-0.356,-0.3696,-0.3696,-0.3696,-0.3763,-0.3897,-0.403,-0.3961,-0.3959,-0.4292,-0.4561,-0.4561,-0.4691,-0.4694,-0.4631,-0.4631,-0.4564,-0.4564,-0.4564,-0.4694,-0.4824,-0.4827,-0.4824,-0.496,-0.5093,-0.516,-0.5226,-0.5484,-0.5683,-0.5818,-0.5951,-0.6145,-0.6079,-0.6079,-0.6276,-0.6408,-0.64,-0.6334,-0.6137,-0.5939,-0.5873,-0.5811,-0.5752,-0.5554,-0.5355,-0.5226,-0.5163,-0.516,1.1744,1.0942,0.9345,0.8186,0.7379,0.7169,0.703,0.703,0.7026,0.6953,0.6921,0.6925,0.6862,0.6645,0.652,0.6431,0.6386,0.6417,0.6366,0.6437,0.6433,0.6352,0.6193,0.6099,0.5944,0.5789,0.5634,0.5404,0.5174,0.5326,0.5401,0.5323,0.524,0.516,0.5226,0.5137,0.4809,0.468,0.4332,0.3768,0.2049,0.0154,-0.0687,-0.106,-0.1204,-0.1191,-0.1248,-0.1307,-0.1453,-0.1516,-0.1582,-0.1701,-0.1825,-0.1882,-0.2003,-0.2049,-0.2177,-0.2166,-0.2227,-0.2227,-0.2287,-0.2288,-0.2221,-0.222,-0.2283,-0.2485,-0.2822,-0.2958,-0.3092,-0.3228,-0.3228,-0.3228,-0.3431,-0.3498,-0.3429,-0.3426,-0.3894,-0.4228,-0.4425,-0.4558,-0.4495,-0.4431,-0.4364,-0.4364,-0.43,-0.43,-0.4367,-0.4431,-0.4498,-0.4628,-0.4761,-0.4827,-0.4891,-0.4957,-0.5024,-0.5156,-0.5355,-0.5488,-0.5617,-0.5491,-0.5425,-0.5686,-0.5752,-0.5557,-0.5422,-0.5418,-0.5422,-0.5425,-0.5296,-0.5226,-0.516,-0.5024,-0.4891,-0.4824,-0.4694,1.1665,1.1552,1.0668,0.9672,0.8674,0.8111,0.7714,0.7403,0.7407,0.733,0.7273,0.7138,0.7009,0.6832,0.6832,0.6721,0.649,0.6556,0.6714,0.6791,0.6718,0.6641,0.6563,0.6331,0.6025,0.587,0.5789,0.5709,0.5482,0.5485,0.5556,0.5544,0.5312,0.5189,0.5168,0.5081,0.5055,0.5004,0.4958,0.4473,0.3589,0.1767,-0.0074,-0.0735,-0.1174,-0.1171,-0.1234,-0.1142,-0.1204,-0.1194,-0.125,-0.1372,-0.1503,-0.1635,-0.1694,-0.1826,-0.2018,-0.2018,-0.2018,-0.2085,-0.2085,-0.2221,-0.2154,-0.2153,-0.2151,-0.2151,-0.2421,-0.2488,-0.2624,-0.296,-0.3027,-0.3094,-0.3228,-0.3226,-0.3157,-0.3491,-0.3894,-0.4095,-0.4231,-0.4228,-0.4231,-0.4231,-0.4164,-0.4164,-0.4164,-0.4164,-0.4228,-0.4295,-0.4295,-0.4428,-0.4495,-0.4492,-0.4558,-0.4694,-0.4827,-0.4894,-0.5027,-0.509,-0.5156,-0.516,-0.516,-0.5156,-0.5156,-0.5093,-0.503,-0.5027,-0.4964,-0.4824,-0.4897,-0.4827,-0.4894,-0.4761,-0.4558,-0.4356,-0.4225]}]]